     2              OBSERVATION DATA    GPS                 RINEX VERSION / TYPE
teqc 1998Mar9 19980808 01:00:40UTC                          PGM / RUN BY / DATE
                                                            COMMENT
BIT 2 OF LLI FLAGS DATA COLLECTED UNDER A-S CONDITION       COMMENT
BIT 2 OF LLI FLAGS DATA COLLECTED UNDER A-S CONDITION       COMMENT
Original Marker Name: SPJ1                                  COMMENT
Campaign Name: L.A. Basin 1997                              COMMENT
4-Character Station Name: SPJ1                              COMMENT
6-Character Antenna Code: TRMSST                            COMMENT
Vertical Measurement Point: TGP                             COMMENT
Vertical Offset to Rinex Ref. Point: 0.0629                 COMMENT
Radial Measurement Point: NGP                               COMMENT
Radial Offset to Rinex Ref. Point: 0.2334                   COMMENT
Antenna Height from Field Measurement: 0.9075 m             COMMENT
Original XYZ: -2519747.9456 -4669426.4092 3527796.7966      COMMENT
New XYZ position is based on association with SCEC monument COMMENT
E1C7V4T9+0011. Position of that monument is believed to be  COMMENT
valid to within 1 m horizontally; vertical accuracy         COMMENT
should be no worse than 3-times this value.                 COMMENT
                                                            COMMENT
Revised Rinex header created by UCSD GPS archive for        COMMENT
GSAC on 06-Apr-1999 (1999:096) 01:28:59 GMT                 COMMENT
For assistance contact dagnew@ucsd.edu or hjohnson@ucsd.edu COMMENT
                                                            COMMENT
SAN PEDRO HILLS J-1 1037 RE2177                             MARKER NAME
UNKNOWN OBSERVER UCLA                                       OBSERVER / AGENCY
1051 TRIMBLE 4000 SST NP 4.81; SP 4.20                      REC # / TYPE / VERS
271 TR 4000SST L1/L2 GEO                                    ANT # / TYPE
 -2519754.0000 -4669432.0000  3527797.0000                  APPROX POSITION XYZ
        0.8141        0.0000        0.0000                  ANTENNA: DELTA H/E/N
     1     1     0                                          WAVELENGTH FACT L1/2
     3    C1    L1    L2                                    # / TYPES OF OBSERV
     0                                                      INTERVAL
  1997     1     8     0     1   30.000000                  TIME OF FIRST OBS
  1997     1     8    23    59   30.000000                  TIME OF LAST OBS
     0                                                      # OF SATELLITES
                                                            END OF HEADER
 97  1  8  0  1 30.0000000  0  6G 2G 7G15G27G26G19
  21207221.6414         -0.92357
  21338317.742          -0.92817
  24027054.7424         -0.95455
  20309726.3984         -0.90557
  23359574.5234         -0.63456
  22275596.0944         -0.42356
 97  1  8  0  2  0.0000000  0  6G 2G 7G15G27G26G19
  21194985.7504     -64312.88047        -0.14373
  21313922.258     -128201.209 7        -0.10333
  24008272.3134     -98680.18145
  20301415.4694     -43665.36747
  23336790.453     -119719.388 6
  22277958.2584      12414.36246
 97  1  8  0  2 30.0000000  0  6G 2G 7G15G27G26G19
  21182787.656     -128411.177 7    -49946.85623
  21289603.7974    -255982.58147    -99569.97363
  23989577.109     -196931.424 5        -0.21831
  20293191.9304     -86897.95147        -0.16073
  23314095.9694    -239008.69645
  22280375.6414      25117.12846        -0.24371
 97  1  8  0  3  0.0000000  0  6G 2G 7G15G27G26G19
  21170633.2194    -192279.77847    -99714.60863
  21265371.4924    -383324.37746   -198797.31961
  23970963.1724    -294748.33345    -76221.11261
  20285046.914     -129694.468 7    -33348.09422
  23291474.742     -357862.740 6
  22282851.125       38123.105 6     10134.27422
 97  1  8  0  3 30.0000000  0  6G 2G 7G15G27G26G19
  21158523.0314    -255929.38947   -149311.68763
  21241221.0474    -510238.65747   -297691.54163
  23952433.3444    -392129.60345   -152102.58361
  20276981.5164    -172055.80747    -66356.91663
  23268941.008     -476289.115 6        -0.29831
  22285381.6484      51429.82346     20503.13461
 97  1  8  0  4  0.0000000  0  6G 2G 7G15G27G26G19
  21146448.6254    -319373.22847   -198748.43263
  21217148.6024    -636743.35047   -396266.61063
  23933987.016     -489077.547 5   -227646.41921
  20269003.8834    -213989.47647    -99032.49863
  23246482.438     -594298.708 6    -91955.80421
  22287975.6644      65050.80246     31116.85861
 97  1  8  0  4 30.0000000  0  6G 2G 7G15G27G26G19
  21134408.0634    -382641.04447   -248048.02363
  21193152.594     -762841.290 7   -494524.72023
  23915619.594     -585582.095 5   -302844.71121
  20261104.7504    -255499.15847   -131377.70563
  23224113.4144    -711869.81046   -183569.64961
  22290631.750       79015.202 6     41998.18721
 97  1  8  0  5  0.0000000  0  6G 2G 7G15G27G26G19
  21122397.0394    -445755.74847   -297228.29363
  21169234.0084    -888539.26047   -592471.16963
  23897340.422     -681645.138 5   -377698.99521
  20253291.0634    -296578.42947   -163387.52163
  23201821.2114    -829005.18846   -274843.95561
  22293353.5234      93311.39546     53138.05561
 97  1  8  0  5 29.9990000  0  6G 2G 7G15G27G26G19
  21110417.0264    -508723.61547   -346294.15463
  21145393.8624   -1013823.45947   -690095.20363
  23879144.4804    -777260.35145   -452204.34461
  20245554.5974    -337208.70047   -195047.46563
  23179613.1904    -945691.89646   -365768.63761
  22296134.6124     107921.57646     64522.59361
 97  1  8  0  5 59.9990000  0  6G 2G 7G15G27G26G19
  21098461.1834    -571550.09147   -395249.83863
  21121636.3944   -1138670.78947   -787378.81863
  23861032.3864    -872431.72845   -526363.82561
  20237912.5034    -377384.49347   -226353.27163
  23157499.026    -1061920.211 6   -456336.13021
  22298974.198      122844.866 6     76151.09921
 97  1  8  0  6 29.9990000  0  6G 2G 7G15G27G26G19
  21086535.2924    -634215.36647   -444079.90963
  21097969.0654   -1263041.87547   -884291.33563
  23843012.862     -967148.690 5   -600169.20721
  20230357.1834    -417091.05147   -257293.43863
  23135467.5504   -1177677.58046   -546536.66661
  22301869.183      138067.623 6     88012.96921
 97  1  8  0  6 59.9990000  0  6G 2G 7G15G27G26G19
  21074644.2924    -696706.42947   -492774.23963
  21074393.8234   -1386930.01047   -980827.52963
  23825071.097    -1061411.802 5   -673620.95321
  20222890.5114    -456318.22947   -287860.06763
  23113533.300    -1292960.325 6   -636367.35721
  22304820.0504     153565.43746    100089.17561
 97  1  8  0  7 29.9990000  0  6G 2G 7G15G27G26G19
  21062789.9804    -759010.44747   -541322.80663
  21050910.4094   -1510337.61647  -1076989.28163
  23807222.0344   -1155213.66645   -746713.28761
  20215513.4564    -495076.85247   -318061.58963
  23091686.7454   -1407752.09846   -725815.46761
  22307822.9174     169349.09446    112388.12461
 97  1  8  0  7 59.9990000  0  6G 2G 7G15G27G26G19
  21050967.9644    -821119.87047   -589719.74863
  21027515.9404   -1633280.48347  -1172788.90063
  23789454.292    -1248552.583 5   -819444.88221
  20208228.8704    -533379.86347   -347908.08863
  23069935.8554   -1522064.18146   -814889.79961
  22310882.3624     185426.45746    124915.92061
 97  1  8  0  8 29.9990000  0  6G 2G 7G15G27G26G19
  21039190.9094    -883029.32447   -637960.87563
  21004199.5034   -1755804.09547  -1268261.83763
  23771784.862    -1341432.818 5   -891819.05421
  20201020.8004    -571238.67747   -377408.47163
  23048273.9404   -1635906.20446   -903597.84561
  22313997.5264     201793.67546    137669.59261
 97  1  8  0  8 59.9990000  0  6G 2G 7G15G27G26G19
  21027446.7614    -944739.00347   -686046.33563
  20980958.3784   -1877941.69447  -1363433.97563
  23754196.230    -1433854.367 5   -963835.83721
  20193898.6834    -608668.92647   -406574.90763
  23026698.4404   -1749277.95246   -991939.45961
  22317170.1984     218462.69246    150658.42461
 97  1  8  0  9 29.9990000  0  6G 2G 7G15G27G26G19
  21015742.6984   -1006238.50247   -733968.01463
  20957790.2844   -1999690.29147  -1458302.99463
  23736695.144    -1525812.337 5  -1035491.37221
  20186858.2614    -645665.70847   -435403.56863
  23005210.4254   -1862196.19846  -1079927.68361
  22320399.3944     235438.61746    163886.40961
 97  1  8  0  9 59.9990000  0  6G 2G 7G15G27G26G19
  21004078.5584   -1067540.74847   -781735.98463
  20934696.9484   -2121035.17747  -1552857.43263
  23719296.9174   -1617306.91245  -1106785.81161
  20179903.9094    -682213.84947   -463882.65163
  22983807.9484   -1974668.51446  -1167568.43261
  22323686.0504     252711.11646    177345.48161
 97  1  8  0 10 29.9990000  0  6G 2G 7G15G27G26G19
  20992447.6674   -1128661.53347   -829362.55963
  20911684.5734   -2241972.49147  -1647094.28263
  23701965.362    -1708331.016 5  -1177713.67121
  20173035.9254    -718304.00247   -492004.84963
  22962491.362    -2086686.539 6  -1254855.18021
  22327030.4484     270286.44446    191040.52261
 97  1  8  0 10 59.9990000  0  6G 2G 7G15G27G26G19
  20980845.1904   -1189617.58747   -876860.77763
  20888754.6594   -2362469.34347  -1740987.92463
  23684738.1054   -1798888.27145  -1248277.74861
  20166258.2144    -753933.86547   -519768.37563
  22941258.5814   -2198265.12646  -1341799.51961
  22330429.5194     288144.63746    204955.97461
 97  1  8  0 11 29.9990000  0  6G 2G 7G15G27G26G19
  20969277.5034   -1250411.59347   -924232.72363
  20865913.5814   -2482494.42147  -1834513.94363
  23667590.534    -1888971.893 5  -1318472.76221
  20159566.3704    -789091.92447   -547164.26463
  22920107.7534   -2309400.88146  -1428398.78361
  22333881.862      306281.964 6    219088.93321
 97  1  8  0 11 59.9990000  0  6G 2G 7G15G27G26G19
  20957741.6364   -1311043.60747   -971478.44163
  20843165.9804   -2602044.98747  -1927670.20763
  23650538.128    -1978575.072 5  -1388293.38921
  20152963.6054    -823785.27647   -574198.04663
  22899052.065    -2420074.578 6  -1514638.01321
  22337387.972      324713.689 6    233451.29821
 97  1  8  0 12 29.9990000  0  6G 2G 7G15G27G26G19
  20946235.2534   -1371501.24447  -1018588.27663
  20820501.2694   -2721138.27947  -2020470.15363
  23633578.8624   -2067698.02045  -1457739.82561
  20146447.8314    -858027.74147   -600880.49863
  22878079.597    -2530282.375 6  -1600514.20221
  22340954.667      343448.109 6    248049.52121
 97  1  8  0 12 59.9990000  0  6G 2G 7G15G27G26G19
  20934763.9174   -1431777.98347  -1065557.15363
  20797927.1754   -2839773.59147  -2112913.23763
  23616711.0114   -2156348.80945  -1526818.32361
  20140016.9804    -891830.34947   -627220.19463
  22857196.7844   -2640029.01046  -1686031.05061
  22344574.5584     362471.42146    262872.87061
 97  1  8  0 13 29.9990000  0  6G 2G 7G15G27G26G19
  20923327.8704   -1491874.96247  -1112385.95963
  20775435.9254   -2957963.27447  -2205009.07263
  23599932.9804   -2244514.33445  -1595518.69661
  20133669.7694    -925186.79547   -653212.23163
  22836400.4724   -2749291.18446  -1771170.38861
  22348250.167      381803.883 6    277937.11521
 97  1  8  0 13 59.9990000  0  6G 2G 7G15G27G26G19
  20911927.2614   -1551794.42947  -1159076.44563
  20753029.0814   -3075714.95447  -2296763.61463
  23583252.0424   -2332187.01545  -1663835.03661
  20127408.1284    -958085.20647   -678847.36263
  22815703.128    -2858056.750 6  -1855922.75821
  22351989.644      401444.063 6    293241.13021
 97  1  8  0 14 29.9990000  0  6G 2G 7G15G27G26G19
  20900557.8624   -1611547.72347  -1205637.44163
  20730707.3864   -3193015.26947  -2388166.44063
  23566659.159    -2419368.020 5  -1731768.24621
  20121235.8474    -990515.71647   -704117.90063
  22795100.4724   -2966323.21146  -1940286.23361
  22355782.651      421370.095 6    308767.87921
 97  1  8  0 14 59.9990000  0  6G 2G 7G15G27G26G19
  20889215.1754   -1671150.43247  -1252081.10563
  20708472.0814   -3309857.39347  -2479212.23463
  23550163.683    -2506066.211 5  -1799325.24321
  20115151.4334   -1022484.61747   -729028.73463
  22774593.9174   -3074105.72946  -2024272.58761
  22359621.987      441562.978 6    324502.56821
 97  1  8  0 15 29.9990000  0  6G 2G 7G15G27G26G19
  20877902.9874   -1730597.78347  -1298403.70663
  20686324.9014   -3426235.17447  -2569896.19963
  23533761.620    -2592271.510 5  -1866498.17121
  20109159.6594   -1053981.78447   -753571.98863
  22754178.5114   -3181395.29746  -2107874.84361
  22363515.7844     462027.82146    340449.17761
 97  1  8  0 15 59.9990000  0  6G 2G 7G15G27G26G19
  20866622.8624   -1789862.03647  -1344583.63663
  20664270.4954   -3542136.14547  -2660208.62563
  23517449.464    -2677980.356 5  -1933284.24321
  20103257.4014   -1085003.34747   -777744.64263
  22733851.6204   -3288195.72746  -2191095.94961
  22367463.8704     482770.54746    356612.31461
 97  1  8  0 16 29.9990000  0  6G 2G 7G15G27G26G19
  20855384.5584   -1848932.31847  -1390612.41963
  20642304.690    -3657572.079 7  -2750158.68223
  23501230.628    -2763199.301 5  -1999688.57321
  20097440.4874   -1115563.45447   -801557.71963
  22713618.9804   -3394518.44346  -2273944.81961
  22371466.5114     503798.83746    372997.97961
 97  1  8  0 16 59.9990000  0  6G 2G 7G15G27G26G19
  20844182.5194   -1907791.39147  -1436476.62263
  20620424.4484   -3772551.67447  -2839753.15263
  23485112.261    -2847914.975 5  -2065700.75121
  20091718.3004   -1145650.18347   -825001.92963
  22693479.6364   -3500359.07846  -2356418.05261
  22375528.9724     525135.38146    389623.83661
 97  1  8  0 17 29.9990000  0  6G 2G 7G15G27G26G19
  20833018.6674   -1966449.78347  -1482184.45263
  20598626.870    -3887094.145 7  -2929007.00624
  23469088.472    -2932131.056 5  -2131323.64521
  20086081.8864   -1175264.80447   -848078.26563
  22673430.5264   -3605713.39046  -2438512.29461
  22379644.2304     546769.50446    406481.56761
 97  1  8  0 17 59.9990000  0  6G 2G 7G15G27G26G19
  20821893.4174   -2024910.19747  -1527738.02163
  20576913.894    -4001201.160 7  -3017921.54223
  23453155.214    -3015846.727 5  -2196556.59921
  20080534.9954   -1204414.79747   -870792.54763
  22653476.8554   -3710578.43446  -2520225.32461
  22383815.440      568701.654 6    423571.52921
 97  1  8  0 18 29.9990000  0  6G 2G 7G15G27G26G19
  20810806.4404   -2083181.79447  -1573144.44763
  20555285.8234   -4114857.44347  -3106484.85563
  23437321.261    -3099041.948 5  -2261384.01621
  20075078.4404   -1233086.29447   -893133.99563
  22633618.2224   -3814928.19946  -2601536.82261
  22388046.3154     590941.40846    440901.19561
 97  1  8  0 18 59.9980000  0  6G 2G 7G15G27G26G19
  20799748.0924   -2141304.70747  -1618435.03463
  20533743.436    -4228063.720 7  -3194697.51523
  23421590.920    -3181727.837 5  -2325814.55521
  20069706.7954   -1261296.41847   -915115.92863
  22613861.3654   -3918767.47446  -2682450.53961
  22392332.7254     613456.57146    458445.44861
 97  1  8  0 19 29.9980000  0  6G 2G 7G15G27G26G19
  20788711.1234   -2199286.34547  -1663615.52663
  20512287.318    -4340812.087 7  -3282553.35923
  23405952.357    -3263906.480 5  -2389849.82621
  20064428.3734   -1289055.41447   -936746.31363
  22594196.3114   -4022092.04246  -2762963.19561
  22396673.303      636250.610 6    476207.01021
 97  1  8  0 19 59.9980000  0  6G 2G 7G15G27G26G19
  20777704.2094   -2257129.22047  -1708687.89263
  20490922.1864   -4453086.93447  -3370040.23163
  23390412.5764   -3345572.35045  -2453485.54561
  20059230.8974   -1316372.17147   -958032.11563
  22574635.1004   -4124893.24946  -2843068.02361
  22401062.404      659329.335 6    494190.40221
 97  1  8  0 20 29.9980000  0  6G 2G 7G15G27G26G19
  20766722.4124   -2314845.71247  -1753661.77063
  20469647.170    -4564894.425 7  -3457162.92623
  23374966.123    -3426733.118 5  -2516727.66921
  20054116.2874   -1343244.45447   -978971.56563
  22555169.053    -4227175.098 6  -2922768.16421
  22405502.889      682679.921 6    512385.62921
 97  1  8  0 20 59.9980000  0  6G 2G 7G15G27G26G19
  20755770.5534   -2372396.03747  -1798506.17363
  20448466.982    -4676207.585 7  -3543900.42823
  23359619.9514   -3507367.54045  -2579559.66061
  20049090.7874   -1369643.99447   -999542.64163
  22535805.2404   -4328921.37246  -3002050.96961
  22410005.451      706320.283 6    530806.64921
 97  1  8  0 21 29.9980000  0  6G 2G 7G15G27G26G19
  20744850.5064   -2429783.40547  -1843223.59063
  20427371.350    -4787051.191 7  -3630272.04723
  23344373.2724   -3587490.62045  -2641993.21061
  20044155.1004   -1395574.35247  -1019748.11363
  22516541.5144   -4430154.85546  -3080934.19561
  22414557.7094     730231.20546    549438.51061
 97  1  8  0 21 59.9980000  0  6G 2G 7G15G27G26G19
  20733964.4514   -2486990.73747  -1887800.73563
  20406369.131    -4897422.290 7  -3716275.46923
  23329226.764    -3667093.295 5  -2704021.22521
  20039313.7174   -1421019.18747  -1039575.26963
  22497380.3264   -4530878.70846  -3159420.30661
  22419155.389      754409.846 6    568278.97021
 97  1  8  0 22 29.9980000  0  6G 2G 7G15G27G26G19
  20723114.8034   -2544006.97547  -1932228.96763
  20385452.850    -5007333.896 7  -3801920.85423
  23314174.928    -3746180.634 5  -2765647.68121
  20034569.1074   -1445967.98947  -1059015.89863
  22478301.0844   -4631116.59646  -3237527.75861
  22423803.154      778840.241 6    587315.61121
 97  1  8  0 22 59.9980000  0  6G 2G 7G15G27G26G19
  20712303.7794   -2600819.35147  -1976498.33663
  20364625.717    -5116783.110 7  -3887205.92523
  23299224.045    -3824748.952 5  -2826869.71321
  20029914.8574   -1470424.31247  -1078072.77263
  22459315.7014   -4730883.47146  -3315268.17161
  22428503.2174     803528.79746    606553.42261
 97  1  8  0 23 29.9980000  0  6G 2G 7G15G27G26G19
  20701529.5454   -2657439.28047  -2020617.75563
  20343885.404    -5225772.938 7  -3972133.03623
  23284371.756    -3902796.512 5  -2887685.95921
  20025352.7874   -1494389.01647  -1096746.56863
  22440421.8814   -4830179.71346  -3392641.86161
  22433251.6784     828484.64346    625999.51461
 97  1  8  0 23 59.9980000  0  6G 2G 7G15G27G26G19
  20690790.8264   -2713867.94947  -2064588.13563
  20323236.123    -5334285.422 7  -4056688.19423
  23269625.756    -3980316.001 5  -2948090.70521
  20020886.1544   -1517868.68247  -1115042.41163
  22421618.3654   -4929003.20446  -3469647.17161
  22438055.6474     853730.94146    645671.94161
 97  1  8  0 24 29.9980000  0  6G 2G 7G15G27G26G19
  20680086.5924   -2770126.81047  -2108426.20463
  20302680.865    -5442314.358 7  -4140866.55023
  23254971.5614   -4057314.90445  -3008089.80161
  20016505.8504   -1540877.21147  -1132971.14463
  22402899.0374   -5027358.73446  -3546287.84261
  22442915.326      879277.277 6    665578.15321
 97  1  8  0 24 59.9980000  0  6G 2G 7G15G27G26G19
  20669410.3424   -2826221.78847  -2152136.56463
  20282217.412    -5549840.562 7  -4224653.17623
  23240421.334    -4133781.160 5  -3067673.85521
  20012218.9674   -1563416.53647  -1150534.25863
  22384273.9434   -5125221.73246  -3622544.71061
  22447837.5534     905146.99746    685736.35961
 97  1  8  0 25 29.9980000  0  6G 2G 7G15G27G26G19
  20658765.8034   -2882161.29447  -2195725.78863
  20261852.701    -5656854.952 7  -4308040.98423
  23225973.1394   -4209707.27245  -3126837.00961
  20008020.3734   -1585484.69547  -1167730.23863
  22365753.5534   -5222571.18446  -3698401.41161
  22452828.037      931340.407 6    706146.77121
 97  1  8  0 25 59.9980000  0  6G 2G 7G15G27G26G19
  20648150.9434   -2937952.23547  -2239199.24463
  20241585.428    -5763365.547 7  -4391036.22423
  23211625.193    -4285104.365 5  -3185587.94821
  20003902.6394   -1607108.09547  -1184579.64063
  22347321.7644   -5319420.17846  -3773868.16061
  22457865.1864     957837.39146    726793.75461
 97  1  8  0 26 29.9980000  0  6G 2G 7G15G27G26G19
  20637563.2564   -2993584.07947  -2282548.72263
  20221409.842    -5869385.075 7  -4473648.81623
  23197377.834    -4359972.722 5  -3243926.89121
  19999872.0454   -1628286.62547  -1201082.38263
  22328987.8504   -5415751.38346  -3848931.42561
  22462963.5924     984610.99946    747656.29161
 97  1  8  0 26 59.9980000  0  6G 2G 7G15G27G26G19
  20627008.6004   -3049048.77447  -2325767.95363
  20201325.1704   -5974930.74447  -4555892.17363
  23183232.600    -4434303.768 5  -3301847.14321
  19995928.9594   -1649009.31847  -1217229.93863
  22310763.0534   -5511540.62846  -3923572.40261
  22468108.1934    1011644.30846    768721.18061
 97  1  8  0 27 29.9980000  0  6G 2G 7G15G27G26G19
  20616485.1154   -3104349.12547  -2368859.12863
  20181329.428    -6080015.211 7  -4637776.13824
  23169186.662    -4508096.910 5  -3359348.25221
  19992076.8814   -1669265.23147  -1233013.76663
  22292638.4754   -5606784.61446  -3997788.48061
  22473300.740     1038926.943 6    789980.33121
 97  1  8  0 27 59.9980000  0  6G 2G 7G15G27G26G19
  20605993.3974   -3159481.01947  -2411819.03963
  20161417.5374   -6184645.51247  -4719306.21764
  23155250.584    -4581351.662 5  -3416429.83421
  19988312.7254   -1689038.94147  -1248421.86263
  22274619.811    -5701476.839 6  -4071574.63221
  22478536.3734    1066454.36046    811430.25461
 97  1  8  0 28 29.9980000  0  6G 2G 7G15G27G26G19
  20595529.5454   -3214468.12347  -2454666.11463
  20141591.217    -6288847.604 7  -4800502.62824
  23141409.787    -4654084.762 5  -3473104.93821
  19984643.1394   -1708325.16347  -1263450.09263
  22256704.3974   -5795621.12646  -4144933.79861
  22483821.8504    1094201.75746    833051.58761
 97  1  8  0 28 59.9980000  0  6G 2G 7G15G27G26G19
  20585096.0144   -3269303.95847  -2497395.32163
  20121845.084    -6392595.655 7  -4881345.23124
  23127665.647    -4726279.050 5  -3529360.18721
  19981067.5144   -1727103.53447  -1278082.58663
  22238894.5294   -5889227.02946  -4217873.45161
  22489145.5294    1122199.77046    854868.20461
 97  1  8  0 29 29.9980000  0  6G 2G 7G15G27G26G19
  20574691.9594   -3323974.47647  -2539995.71263
  20102195.600    -6495861.429 7  -4961812.04524
  23114037.826    -4797924.235 5  -3585187.56521
  19977593.1154   -1745369.78447  -1292316.03663
  22221179.3034   -5982306.48746  -4290402.90161
  22494522.4674    1150471.65345    876898.23061
 97  1  8  0 29 59.9980000  0  6G 2G 7G15G27G26G19
  20564320.4904   -3378470.87047  -2582460.42563
  20082638.811    -6598633.715 7  -5041894.32224
  23100508.053    -4869025.541 5  -3640591.13321
  19974211.8974   -1763145.24747  -1306167.04463
  22203563.3654   -6074876.65646  -4362535.48961
  22499953.0144    1179005.13045    899132.08261
 97  1  8  0 30 29.9980000  0  6G 2G 7G15G27G26G19
  20553981.5614   -3432799.92047  -2624794.74863
  20063178.4364   -6700905.37047  -5121586.50964
  23087077.4284   -4939584.58945  -3695572.17161
  19970916.6544   -1780458.50447  -1319657.90363
  22186042.5684   -6166954.18446  -4434284.21761
  22505433.3344    1207808.27245    921576.07461
 97  1  8  0 30 59.9980000  0  6G 2G 7G15G27G26G19
  20543679.4204   -3486947.63047  -2666987.75863
  20043815.9044   -6802656.08147  -5200872.73764
  23073756.1154   -5009588.43945  -3750120.57261
  19967706.5454   -1797322.18747  -1332798.44263
  22168612.998    -6258532.111 6  -4505643.62321
  22510970.2644    1236906.43345    944249.93761
 97  1  8  0 31 29.9980000  0  6G 2G 7G15G27G26G19
  20533409.6864   -3540916.84147  -2709041.68263
  20024548.475    -6903891.272 7  -5279757.28224
  23060540.748    -5079039.134 5  -3804237.95021
  19964581.1784   -1813743.44347  -1345594.23563
  22151290.4514   -6349586.68146  -4576595.25161
  22516563.1784    1266296.52545    967151.28661
 97  1  8  0 31 59.9980000  0  6G 2G 7G15G27G26G19
  20523172.2324   -3594717.26747  -2750964.08263
  20005383.623    -7004619.909 7  -5358247.10624
  23047430.568    -5147941.035 5  -3857927.69021
  19961540.4594   -1829730.08747  -1358051.37063
  22134059.6704   -6440107.32146  -4647130.81061
  22522214.8814    1295974.80745    990277.20261
 97  1  8  0 32 29.9980000  0  6G 2G 7G15G27G26G19
  20512962.9984   -3648351.65647  -2792757.10863
  19986310.576    -7104841.361 7  -5436341.72624
  23034429.1394   -5216280.33645  -3911179.06261
  19958584.8894   -1845265.24047  -1370156.69663
  22116945.6234   -6530069.24846  -4717231.01561
  22527919.8114    1325964.91546   1013646.10561
 97  1  8  0 32 59.9970000  0  6G 2G 7G15G27G26G19
  20502790.5324   -3701817.23147  -2834418.59363
  19967331.0324   -7204564.52847  -5514048.06864
  23021528.329    -5284058.784 5  -3963993.39621
  19955717.3144   -1860333.89647  -1381898.52263
  22099932.8684   -6619469.15546  -4786893.27161
  22533678.8684    1356241.68046   1037238.38161
 97  1  8  0 33 29.9970000  0  6G 2G 7G15G27G26G19
  20492647.4934   -3755123.58747  -2875956.00763
  19948448.462    -7303811.252 7  -5591383.15524
  23008731.985    -5351286.004 5  -4016378.21221
  19952937.0644   -1874935.14447  -1393276.11863
  22083023.696    -6708320.329 6  -4856127.94521
  22539493.470     1386782.721 6   1061036.56621
 97  1  8  0 33 59.9970000  0  6G 2G 7G15G27G26G19
  20482534.4154   -3808269.69947  -2917368.55763
  19929654.8924   -7402574.15747  -5668341.24064
  22996047.548    -5417955.294 5  -4068328.26321
  19950249.0794   -1889059.98247  -1404282.50263
  22066216.4704   -6796629.08246  -4924939.96061
  22545353.0714    1417568.42546   1085025.41261
 97  1  8  0 34 29.9970000  0  6G 2G 7G15G27G26G19
  20472449.6424   -3861259.32247  -2958659.16863
  19910949.2594   -7500867.35147  -5744933.31764
  22983467.2284   -5484077.94845  -4119852.37461
  19947653.5404   -1902706.86647  -1414916.45463
  22049513.8684   -6884416.46646  -4993345.71261
  22551249.1184    1448567.58845   1109180.59161
 97  1  8  0 34 59.9970000  0  6G 2G 7G15G27G26G19
  20462400.6264   -3914070.62647  -2999810.84063
  19892335.689    -7598672.998 7  -5821145.48624
  22970992.774    -5549637.481 5  -4170937.67621
  19945150.1734   -1915851.38047  -1425158.94963
  22032910.1264   -6971671.85146  -5061336.92161
  22557193.8684    1479788.45646   1133508.52261
 97  1  8  0 35 29.9970000  0  6G 2G 7G15G27G26G19
  20452385.3924   -3966699.10447  -3040820.04763
  19873819.2984   -7695981.37447  -5896970.17864
  22958624.056    -5614628.427 5  -4221579.95221
  19942745.8684   -1928491.18047  -1435008.15363
  22016409.2354   -7058383.38346  -5128904.34661
  22563178.368     1511245.210 5   1158020.26721
 97  1  8  0 35 59.9970000  0  6G 2G 7G15G27G26G19
  20442402.6494   -4019151.29147  -3081691.87963
  19855398.4234   -7792787.42347  -5972403.44864
  22946364.1814   -5679058.21945  -4271784.93861
  19940436.5244   -1940629.80747  -1444466.83862
  22000013.4154   -7144561.13446  -5196055.84061
  22569209.8064    1542943.51445   1182720.23961
 97  1  8  0 36 29.9970000  0  6G 2G 7G15G27G26G19
  20432457.8844   -4071415.02247  -3122416.87363
  19837076.0324   -7889080.45047  -6047436.95664
  22934206.196    -5742912.832 5  -4321541.74921
  19938223.3764   -1952258.07047  -1453527.83563
  21983714.6814   -7230195.25446  -5262783.72461
  22575294.1964    1574918.66145   1207635.92061
 97  1  8  0 36 59.9970000  0  6G 2G 7G15G27G26G19
  20422545.9544   -4123507.23948  -3163008.21262
  19818848.4234   -7984861.11647  -6122071.23262
  22922164.5564   -5806201.55445  -4370857.60061
  19936104.274    -1963400.390 7  -1462210.17822
  21967521.8844   -7315290.43746  -5329091.65861
  22581429.1964    1607164.05745   1232762.17761
 97  1  8  0 37 29.9970000  0  6G 2G 7G15G27G26G19
  20412664.6184   -4175437.41347  -3203473.27263
  19800719.5014   -8080124.11147  -6196302.11464
  22910228.9464   -5868928.96745  -4419736.05561
  19934071.5644   -1974066.54947  -1470521.47963
  21951428.5874   -7399852.83646  -5394984.43461
  22587617.8844    1639673.91945   1258094.51661
 97  1  8  0 37 59.9970000  0  6G 2G 7G15G27G26G19
  20402813.1264   -4227209.29947  -3243814.99862
  19782690.540    -8174864.008 7  -6270125.39623
  22898397.782    -5931086.568 5  -4468170.52221
  19932135.4394   -1984252.02547  -1478458.22762
  21935435.9624   -7483887.01046  -5460465.60761
  22593855.759     1672457.485 5   1283640.11221
 97  1  8  0 38 29.9970000  0  6G 2G 7G15G27G26G19
  20392988.7824   -4278820.87947  -3284031.81662
  19764763.3844   -8269085.84947  -6343545.00062
  22886687.7744   -5992672.52545  -4516159.54861
  19930289.5014   -1993955.64947  -1486019.50561
  21919548.0014   -7567388.33246  -5525531.57861
  22600146.9314    1705497.97745   1309385.92661
 97  1  8  0 38 59.9970000  0  6G 2G 7G15G27G26G19
  20383199.9704   -4330270.44347  -3324122.37163
  19746929.5794   -8362790.95947  -6416561.94463
  22875072.767    -6053688.769 5  -4563704.64121
  19928532.5094   -2003184.70147  -1493210.97562
  21903758.7984   -7650349.45046  -5590176.58561
  22606480.4314    1738790.26545   1335327.96461
 97  1  8  0 39 29.9970000  0  6G 2G 7G15G27G26G19
  20373439.7354   -4381557.20647  -3364086.07163
  19729194.8214   -8455991.49947  -6489185.72163
  22863571.571    -6114130.918 5  -4610802.38821
  19926865.8684   -2011940.74947  -1500033.88062
  21888074.1184   -7732769.50046  -5654400.00661
  22612863.321     1772346.777 5   1361475.87621
 97  1  8  0 39 59.9970000  0  6G 2G 7G15G27G26G19
  20363714.071    -4432674.491 7  -3403917.71023
  19711550.985    -8548713.676 7  -6561436.75423
  22852174.8924   -6174002.70845  -4657455.69861
  19925286.2904   -2020235.26047  -1506497.14462
  21872496.6034   -7814642.56246  -5718197.18961
  22619302.212     1806163.101 5   1387826.24121
 97  1  8  0 40 29.9970000  0  6G 2G 7G15G27G26G19
  20354024.0404   -4483600.35547  -3443600.20461
  19693996.4854   -8640948.94147  -6633308.39561
  22840896.0484   -6233295.78545  -4703658.09061
  19923797.2284   -2028060.43547  -1512594.70161
  21857024.2514   -7895947.00846  -5781551.31361
  22625783.3374    1840240.24045   1414379.81361
 97  1  8  0 40 59.9970000  0  6G 2G 7G15G27G26G19
  20344362.6344   -4534356.18147  -3483150.17261
  19676536.0564   -8732711.61247  -6704811.74561
  22829716.8064   -6292019.47945  -4749416.77961
  19922395.665    -2035436.700 7  -1518342.44621
  21841663.5324   -7976690.23246  -5844468.11261
  22632319.517     1874572.930 5   1441132.55721
 97  1  8  0 41 29.9970000  0  6G 2G 7G15G27G26G19
  20334738.3144   -4584935.72247  -3522562.78663
  19659163.9854   -8823992.69347  -6775939.83763
  22818652.853    -6350164.243 5  -4794724.32921
  19921080.3844   -2042348.61147  -1523728.34862
  21826406.9074   -8056860.15146  -5906938.15261
  22638895.579     1909146.297 5   1468072.81221
 97  1  8  0 41 59.9970000  0  6G 2G 7G15G27G26G19
  20325144.4314   -4635348.11247  -3561845.15163
  19641889.7824   -8914781.62447  -6846684.45063
  22807703.0324   -6407737.19345  -4839586.33261
  19919854.8924   -2048789.98947  -1528747.61562
  21811254.5244   -8136471.54646  -5968973.00961
  22645518.267     1943939.605 5   1495184.47421
 97  1  8  0 42 29.9970000  0  6G 2G 7G15G27G26G19
  20315583.9314   -4685599.12547  -3601001.77063
  19624713.7204   -9005043.23947  -6917018.16763
  22796855.626    -6464724.185 5  -4883991.75721
  19918718.1424   -2054747.00247  -1533389.44963
  21796211.3064   -8215527.82646  -6030575.30261
  22652178.681     1978964.928 5   1522476.91221
 97  1  8  0 42 59.9970000  0  6G 2G 7G15G27G26G19
  20306052.0874   -4735691.90447  -3640035.09663
  19607635.7984   -9094774.13347  -6986938.32663
  22786124.423    -6521117.285 5  -4927934.40421
  19917679.6104   -2060215.71947  -1537650.80662
  21781274.6184   -8294033.71846  -6091748.72461
  22658894.321     2014235.766 5   1549960.64921
 97  1  8  0 43 29.9970000  0  6G 2G 7G15G27G26G19
  20296545.7984   -4785636.77547  -3678953.16663
  19590662.6734   -9183991.48047  -7056458.32663
  22775501.524    -6576935.892 5  -4971429.39021
  19916727.8924   -2065206.88947  -1541540.04662
  21766431.1814   -8372019.57446  -6152516.91261
  22665650.931     2049745.531 5   1577630.57621
 97  1  8  0 43 59.9970000  0  6G 2G 7G15G27G26G19
  20287071.9704   -4835423.50147  -3717748.00363
  19573783.2514   -9272690.90047  -7125574.73763
  22764990.657    -6632174.401 5  -5014472.34521
  19915871.7824   -2069712.77947  -1545051.14162
  21751688.7904   -8449477.00446  -6212873.34661
  22672460.985     2085527.856 5   1605512.88821
 97  1  8  0 44 29.9970000  0  6G 2G 7G15G27G26G19
  20277628.2674   -4885047.29447  -3756415.88662
  19556996.3764   -9360887.22647  -7194299.14962
  22754589.345    -6686833.296 5  -5057063.67521
  19915105.6964   -2073744.00147  -1548192.36862
  21737058.1734   -8526384.88146  -6272801.55561
  22679317.1574    2121586.74445   1633610.69961
 97  1  8  0 44 59.9970000  0  6G 2G 7G15G27G26G19
  20268220.3294   -4934492.37347  -3794944.50863
  19540308.6424   -9448590.35847  -7262639.22763
  22744301.470    -6740911.752 5  -5099202.69121
  19914431.3064   -2077289.39547  -1550955.01662
  21722530.8844   -8602725.36546  -6332287.64561
  22686232.345     2157913.815 5   1661917.49521
 97  1  8  0 45 29.9970000  0  6G 2G 7G15G27G26G19
  20258846.9234   -4983745.95647  -3833323.91363
  19523716.5174   -9535786.08447  -7330583.94663
  22734118.3454   -6794406.64245  -5140886.98961
  19913849.9934   -2080339.74647  -1553331.91562
  21708113.032    -8678488.477 6  -6391323.83021
  22693197.384     2194500.484 5   1690426.57621
 97  1  8  0 45 59.9970000  0  6G 2G 7G15G27G26G19
  20249508.1424   -5032821.51847  -3871564.60463
  19507220.4704   -9622470.43047  -7398130.17463
  22724044.5404   -6847322.57645  -5182120.17361
  19913362.2594   -2082904.45347  -1555330.39862
  21693807.2514   -8753674.03846  -6449909.97161
  22700207.4624    2231328.32945   1719123.58461
 97  1  8  0 46 29.9970000  0  6G 2G 7G15G27G26G19
  20240205.4314   -5081719.49747  -3909666.91764
  19490821.5174   -9708645.02947  -7465279.20763
  22714085.524    -6899655.463 5  -5222899.00421
  19912967.7044   -2084988.62247  -1556954.43162
  21679602.5644   -8828301.81446  -6508061.47561
  22707254.1104    2268376.47045   1747992.25661
 97  1  8  0 46 59.9960000  0  6G 2G 7G15G27G26G19
  20230933.7544   -5130432.87247  -3947625.38563
  19474523.1454   -9794295.98947  -7532020.20963
  22704245.4654   -6951392.86845  -5263213.85161
  19912661.2234   -2086581.62847  -1558195.73862
  21665509.8244   -8902376.39046  -6565781.93561
  22714351.4734    2305648.90445   1777035.70061
 97  1  8  0 47 29.9960000  0  6G 2G 7G15G27G26G19
  20221692.9264   -5178991.26847  -3985463.09863
  19458321.2774   -9879438.58747  -7598365.08463
  22694513.074    -7002546.386 5  -5303073.69421
  19912446.2774   -2087716.01447  -1559079.69062
  21651512.3484   -8975912.06446  -6623082.44961
  22721480.9184    2343144.86145   1806253.33061
 97  1  8  0 47 59.9960000  0  6G 2G 7G15G27G26G19
  20212481.4814   -5227402.06047  -4023185.79063
  19442214.1374   -9964084.10647  -7664322.62263
  22684885.895    -7053113.096 5  -5342476.28321
  19912316.0354   -2088400.08147  -1559612.74262
  21637626.0274   -9048904.28546  -6679959.50561
  22728661.926     2380864.805 5   1835645.46721
 97  1  8  0 48 29.9960000  0  6G 2G 7G15G27G26G19
  20203293.7704   -5275670.54647  -4060797.59563
  19426197.2314  -10048254.10247  -7729909.62763
  22675378.856    -7103103.503 5  -5381429.82321
  19912267.8244   -2088648.33147
  21623837.4964   -9121367.87746  -6736424.63961
  22735879.2934    2418793.76445   1865200.50361
 97  1  8  0 48 59.9960000  0  6G 2G 7G15G27G26G19
  20194136.1064   -5323797.98347  -4098299.48764
  19410274.2074  -10131931.40447  -7795112.71263
  22665966.8714   -7152514.74545  -5419932.07261
  19912306.9964   -2088453.06347
  21610149.4964   -9193277.87846  -6792458.40561
  22743136.9654    2456936.74745   1894922.33361
 97  1  8  0 49 29.9960000  0  6G 2G 7G15G27G26G19
  20185008.9494   -5371771.62647  -4135681.54463
  19394446.8634  -10215104.40147  -7859922.83463
  22656683.441    -7201335.892 5  -5457974.49321
  19912431.4964   -2087796.66247  -1559142.59162
  21596574.6764   -9264629.50446  -6848057.07661
  22750437.5904    2495308.28345   1924822.21361
 97  1  8  0 49 59.9960000  0  6G 2G 7G15G27G26G19
  20175913.5274   -5419571.64047  -4172928.30563
  19378713.5434  -10297766.23747  -7924334.63763
  22647505.191    -7249563.603 5  -5495554.49121
  19912649.4574   -2086647.28547  -1558246.98662
  21583100.6454   -9335429.69346  -6903226.05361
  22757782.5904    2533909.00445   1954900.66461
 97  1  8  0 50 29.9960000  0  6G 2G 7G15G27G26G19
  20166844.6914   -5467210.52147  -4210049.51664
  19363086.4414  -10379911.72447  -7988344.09763
  22638435.512    -7297208.873 5  -5532680.63321
  19912961.8484   -2085009.98447  -1556971.17963
  21569730.699    -9405691.386 6  -6957975.42121
  22765166.8094    2572715.88245   1985139.78961
 97  1  8  0 50 59.9960000  0  6G 2G 7G15G27G26G19
  20157815.2154   -5514676.85647  -4247036.27164
  19347553.9734  -10461528.31547  -8051941.42663
  22629486.613    -7344263.076 5  -5569346.23221
  19913368.3164   -2082872.97047  -1555305.99263
  21556463.4344   -9475397.40346  -7012291.80061
  22772592.0984    2611746.93745   2015553.58061
 97  1  8  0 51 29.9960000  0  6G 2G 7G15G27G26G19
  20148813.2234   -5561972.06147  -4283889.67463
  19332119.8404  -10542632.30347  -8115139.31463
  22620639.652    -7390730.266 5  -5605554.41221
  19913868.254    -2080239.446 7  -1553253.92622
  21543307.3874   -9544555.84646  -7066181.49261
  22780069.6064    2651015.30345   2046152.28061
 97  1  8  0 51 59.9960000  0  6G 2G 7G15G27G26G19
  20139847.7314   -5609093.80647  -4320607.91163
  19316785.2384  -10623206.56747  -8177924.44763
  22611914.4104   -7436602.77745  -5641299.20461
  19914466.0434   -2077107.40847  -1550813.40262
  21530255.0124   -9613145.54546  -7119628.00361
  22787592.5514    2690527.06245   2076940.65261
 97  1  8  0 52 29.9960000  0  6G 2G 7G15G27G26G19
  20130915.3404   -5656046.01447  -4357194.04263
  19301551.8404  -10703261.05047  -8240304.55063
  22603291.762    -7481886.296 5  -5676585.03721
  19915150.2624   -2073507.81447  -1548008.53862
  21517309.5354   -9681159.52446  -7172625.90861
  22795151.1294    2730277.54345   2107915.04061
 97  1  8  0 52 59.9960000  0  6G 2G 7G15G27G26G19
  20122015.9024   -5702811.03347  -4393634.31862
  19286414.7544  -10782809.89047  -8302290.65562
  22594788.5984   -7526574.14645  -5711406.71861
  19915922.106    -2069448.367 7  -1544845.35921
  21504476.473    -9748596.419 6  -7225174.13421
  22802766.473     2770292.330 5   2139095.38021
 97  1  8  0 53 29.9960000  0  6G 2G 7G15G27G26G19
  20113148.5984   -5749401.67847  -4429938.72762
  19271371.2704  -10861861.68947  -8363889.44462
  22586399.1844   -7570674.60345  -5745770.66561
  19916780.9574   -2064943.22447  -1541334.87261
  21491754.5124   -9815464.44346  -7277279.08661
  22810428.1764    2810548.49845   2170463.80961
 97  1  8  0 53 59.9960000  0  6G 2G 7G15G27G26G19
  20104317.0044   -5795813.37447  -4466103.67462
  19256425.3484  -10940408.26147  -8425094.55962
  22578116.9964   -7614180.32245  -5779671.23661
  19917720.1524   -2060001.70847  -1537484.36161
  21479136.9654   -9881758.22046  -7328936.57261
  22818126.5984    2851020.04845   2202000.09661
 97  1  8  0 54 29.9960000  0  6G 2G 7G15G27G26G19
  20095517.7704   -5842056.67347  -4502137.41062
  19241570.137   -11018475.260 7  -8485925.97221
  22569946.4884   -7657104.29645  -5813118.46761
  19918741.9264   -2054633.62847  -1533301.46161
  21466625.879    -9947497.185 6  -7380161.72621
  22825866.066     2891680.842 5   2233683.81521
 97  1  8  0 54 59.9960000  0  6G 2G 7G15G27G26G19
  20086745.8794   -5888143.46047  -4538049.19461
  19226806.1374  -11096055.40747  -8546378.03161
  22561895.3794   -7699444.00645
  19919849.988    -2048820.133 7  -1528771.50421
  21454223.6604  -10012689.14046  -7430960.65361
  22833638.6844    2932524.84745
 97  1  8  0 55 29.9960000  0  6G 2G 7G15G27G26G19
  20078004.3014   -5934080.18047  -4573844.01861
  19212143.8954  -11173119.62947  -8606428.04861
  22553945.715    -7741188.247 5
  19921045.613    -2042533.040 7  -1523872.46521
  21441926.1064  -10077312.53246  -7481316.49961
  22841445.4734    2973541.32645
 97  1  8  0 55 59.9960000  0  6G 2G 7G15G27G26G19
  20069290.7704   -5979865.82247  -4609521.15361
  19197573.8954  -11249680.38047  -8666085.79161
  22546118.5124   -7782345.08245
  19922330.941    -2035772.997 7  -1518604.94321
  21429732.285   -10141385.955 6  -7531243.87521
  22849280.2704    3014732.95045
 97  1  8  0 56 29.9960000  0  6G 2G 7G15G27G26G19
  20060609.402    -6025502.719 7  -4645082.33823
  19183095.316   -11325749.216 7  -8725360.16023
  22538400.8874   -7822923.33445
  19923707.6374   -2028537.63847  -1512966.98662
  21417641.121   -10204919.502 6  -7580750.48921
  22857154.988     3056111.007 5        -0.31131
 97  1  8  0 56 59.9960000  0  6G 2G 7G15G27G26G19
  20051953.6294   -6070973.33547  -4680513.99462
  19168720.8404  -11401298.08547  -8784229.40962
  22530790.3244   -7862903.33245        -0.27771
  19925175.363    -2020826.167 7  -1506958.08022
  21405663.3634  -10267897.05046  -7629823.90361
  22865071.871     3097710.040 4     32414.49821
 97  1  8  0 57 29.9960000  0  6G 2G 7G15G27G26G19
  20043333.4104   -6116278.52647  -4715816.73563
  19154440.6914  -11476338.90047  -8842702.75163
  22523295.785    -7902291.674 5    -30692.46721
  19926731.3094   -2012654.65547  -1500590.69762
  21393780.6454  -10330331.05546  -7678473.77361
  22873032.4344    3139537.51245     65007.29261
 97  1  8  0 57 59.9960000  0  6G 2G 7G15G27G26G19
  20034746.6454   -6161405.03047  -4750980.23563
  19140256.5744  -11550880.54647  -8900787.13663
  22515912.5824   -7941086.74245    -60922.39161
  19928372.2234   -2004030.17847  -1493870.34362
  21381999.2464  -10392226.39846  -7726703.90561
  22881040.9884    3181614.03545     97794.22761
 97  1  8  0 58 29.9960000  0  6G 2G 7G15G27G26G19
  20026192.9414   -6206361.41447  -4786011.17863
  19126167.6994  -11624914.19247  -8958475.67863
  22508647.613    -7979284.159 5    -90686.58021
  19930100.9264   -1994944.04447  -1486790.25862
  21370322.5274  -10453570.34146  -7774504.36461
  22889094.949     3223942.795 4    130777.67021
 97  1  8  0 58 59.9960000  0  6G 2G 7G15G27G26G19
  20017666.0904   -6251154.58347  -4820914.94563
  19112178.3164  -11698432.10147  -9015762.34963
  22501485.8714   -8016884.21645   -119985.31861
  19931918.8714   -1985393.46347  -1479348.25862
  21358758.8564  -10514373.93146  -7821883.79061
  22897196.2074    3266524.01844    163957.82161
 97  1  8  0 59 29.9960000  0  6G 2G 7G15G27G26G19
  20009177.7384   -6295776.16947  -4855685.00563
  19098283.8564  -11771438.93047  -9072650.77663
  22494438.043    -8053889.959 5   -148820.94021
  19933828.3484   -1975356.54347  -1471527.29762
  21347289.4654  -10574632.05846  -7868838.15261
  22905345.3634    3309338.33344    197319.60761
 97  1  8  0 59 59.9960000  0  6G 2G 7G15G27G26G19
  20000715.934    -6340226.565 7  -4890321.67223
  19084491.395   -11843932.794 7  -9129139.48023
  22487515.1064   -8090298.54545   -177191.23161
  19935830.3634   -1964831.39047  -1463325.88262
  21335926.5904  -10634338.73146  -7915362.83261
  22913534.059     3352368.121 4    230849.29921
 97  1  8  1  0 29.9960000  0  6G 2G 7G15G27G26G19
  19992289.1914   -6384525.38847  -4924840.22963
  19070792.5274  -11915916.90847  -9185230.99363
  22480702.4574   -8126118.82645   -205103.12461
  19937924.8714   -1953834.85347  -1454757.16362
  21324667.6994  -10693504.80546  -7961466.26661
  22921759.3634    3395588.74344    264527.69061
 97  1  8  1  0 59.9960000  0  6G 2G 7G15G27G26G19
  19983890.6374   -6428656.53147  -4959228.13063
  19057188.9654  -11987389.76647  -9240924.11163
  22473997.5514   -8161347.72445   -232554.21161
  19940103.1684   -1942382.66447  -1445833.38862
  21313516.863   -10752121.396 6  -8007141.52721
  22930016.973     3438988.988 4    298346.07121
 97  1  8  1  1 29.9950000  0  6G 2G 7G15G27G26G19
  19975521.2804   -6472621.69647  -4993486.69064
  19043686.5154  -12058369.28147  -9296232.81263
  22467409.054    -8195992.828 5   -259550.36521
  19942365.3984   -1930499.08547  -1436573.46162
  21302463.2264  -10810176.05946  -8052378.92261
  22938303.8744    3482545.61544    332286.27461
 97  1  8  1  1 59.9950000  0  6G 2G 7G15G27G26G19
  19967188.7414   -6516423.13447  -5027617.67163
  19030272.8124  -12128839.39047  -9351144.57063
  22460925.312    -8230041.479 5   -286081.76921
  19944708.3514   -1918186.49947  -1426979.25462
  21291530.6164  -10867657.37446  -8097169.55461
  22946625.3514    3526279.95544    366364.95361
 97  1  8  1  2 29.9950000  0  6G 2G 7G15G27G26G19
  19958886.4294   -6560053.72647  -5061615.52864
  19016961.8434  -12198797.12947  -9405657.07963
  22454560.968    -8263505.877 5   -312157.90821
  19947131.9994   -1905454.17047  -1417057.95862
  21280699.6404  -10924563.71046  -8141512.14261
  22954978.155     3570179.928 4    400572.73921
 97  1  8  1  2 59.9950000  0  7G 2G 7G15G27G26G19G 4
  19950619.0854   -6603498.36047  -5095468.48264
  19003744.9764  -12268240.60347  -9459768.86363
  22448301.976    -8296383.800 5   -337777.05321
  19949636.0384   -1892291.32447  -1406801.20462
  21269982.1084  -10980896.22446  -8185407.60961
  22963367.5464    3614252.57644    434915.03261
  23313369.1634    -155200.61244
 97  1  8  1  3 29.9950000  0  7G 2G 7G15G27G26G19G 4
  19942382.8124   -6646769.91247  -5129186.56864
  18990634.9994  -12337157.74647  -9513470.51763
  22442155.9604   -8328669.78945   -362934.95961
  19952226.7884   -1878670.50547  -1396187.58062
  21259365.2184  -11036662.06046  -8228861.50561
  22971785.9524    3658510.94744    469402.08361
  23283814.944     -310491.831 4        -0.49131
 97  1  8  1  3 59.9950000  0  7G 2G 7G15G27G26G19G 4
  19934185.8664   -6689858.55647  -5162762.12464
  18977618.6944  -12405529.28747  -9566747.02663
  22436127.9604   -8360352.55845   -387622.79961
  19954911.9134   -1864565.21647  -1385196.45562
  21248863.6554  -11091862.40446  -8271874.74861
  22980253.179     3702971.735 4    504046.84221
  23254246.8664    -465848.83843   -121057.85661
 97  1  8  1  4 29.9950000  0  7G 2G 7G15G27G26G19G 4
  19926021.3044   -6732763.98647  -5196194.92164
  18964708.1324  -12473387.70147  -9619623.70163
  22430214.046    -8391444.788 5   -411850.50021
  19957687.4914   -1849981.98847  -1373832.90062
  21238459.0694  -11146524.14646  -8314468.30561
  22988747.9524    3747633.50244    538848.22761
  23224673.788     -621275.199 4   -242169.20421
 97  1  8  1  4 59.9950000  0  7G 2G 7G15G27G26G19G 4
  19917888.4764   -6775498.15247  -5229494.25963
  18951890.8274  -12540740.78747  -9672106.60763
  22424412.0074   -8421938.16245   -435611.55361
  19960552.9294   -1834918.92347  -1362095.45462
  21228165.687   -11200644.676 6  -8356640.13521
  22997288.0544    3792509.54344    573816.54461
  23195092.671     -776727.376 4   -363300.68921
 97  1  8  1  5 29.9950000  0  7G 2G 7G15G27G26G19G 4
  19909787.0934   -6818074.47847  -5262670.60463
  18939164.3274  -12607613.08247  -9724214.87063
  22418720.2574   -8451845.12045   -458915.67061
  19963503.7334   -1819403.59647  -1350005.59062
  21217968.7494  -11254220.49446  -8398387.53161
  23005861.976     3837578.002 4    608934.82321
  23165509.2104    -932192.70344   -484442.46861
 97  1  8  1  5 59.9950000  0  7G 2G 7G15G27G26G19G 4
  19901716.6944   -6860470.10047  -5295706.14064
  18926530.8824  -12674023.30947  -9775963.08363
  22413134.460    -8481165.040 5   -481762.33821
  19966541.0304   -1803457.63947  -1337580.16462
  21207875.5854  -11307241.47546  -8439702.55961
  23014472.8434    3882835.49843    644200.40961
  23135921.187    -1087671.454 4   -605594.64721
 97  1  8  1  6 29.9950000  0  7G 2G 7G15G27G26G19G 4
  19893682.1244   -6902710.75247  -5328620.91763
  18913975.1944  -12739989.23947  -9827365.09363
  22407661.726    -8509919.741 5   -504168.58021
  19969649.8584   -1787113.74647  -1324844.67762
  21197891.3664  -11359720.08546  -8480594.98561
  23023119.679     3928252.470 3    679590.25421
  23106330.405    -1243181.475 4   -726771.25321
 97  1  8  1  6 59.9950000  0  7G 2G 7G15G27G26G19G 4
  19885676.4764   -6944783.27447  -5361404.68764
  18901511.1484  -12805478.87847  -9878395.95863
  22402304.5234   -8538088.49146   -526118.24361
  19972840.3664   -1770351.86547  -1311783.46862
  21188015.2024  -11411618.98846  -8521035.68461
  23031790.921     3973833.613 4    715108.00521
  23076731.7184   -1398703.21944   -847956.93261
 97  1  8  1  7 29.9950000  0  7G 2G 7G15G27G26G19G 4
  19877705.1084   -6986675.24847  -5394047.76663
  18889142.4294  -12870477.71447  -9929044.38663
  22397055.8514   -8565665.32745   -547606.67061
  19976112.0694   -1753155.18547  -1298383.46062
  21178248.8124  -11462939.53146  -8561025.70561
  23040499.8824    4019586.62944    750759.69961
  23047130.296    -1554254.620 4   -969165.77821
 97  1  8  1  7 59.9950000  0  7G 2G 7G15G27G26G19G 4
  19869763.1714   -7028403.52147  -5426563.30063
  18876871.3664  -12934967.93647  -9979296.48663
  22391919.444    -8592656.841 6   -568639.00221
  19979471.3514   -1735502.27247  -1284627.95462
  21168589.1404  -11513707.43546  -8600585.11161
  23049239.9444    4065520.75644    786552.50861
  23017523.554    -1709846.132 4  -1090405.87621
 97  1  8  1  8 29.9950000  0  7G 2G 7G15G27G26G19G 4
  19861850.6404   -7069972.06147  -5458954.35564
  18864702.7024  -12998927.45447 -10029135.05563
  22386900.9684   -8619054.46246   -589208.54661
  19982921.8904   -1717370.71647  -1270499.47462
  21159037.077   -11563919.067 6  -8639711.04721
  23058021.921     4111651.524 4    822498.56021
  22987911.6014   -1865472.17944  -1211672.88061
 97  1  8  1  8 59.9950000  0  7G 2G 7G15G27G26G19G 4
  19853970.7104   -7111380.23447  -5491220.45463
  18852629.780   -13062367.164 7 -10078568.57423
  22381990.2964   -8644862.31546   -609318.56061
  19986464.8354   -1698756.60547  -1255994.96962
  21149581.1874  -11613593.04246  -8678418.03661
  23066833.210     4157979.952 4    858598.68521
  22958288.866    -2021139.731 4  -1332972.26221
 97  1  8  1  9 29.9950000  0  7G 2G 7G15G27G26G19G 4
  19846124.0544   -7152627.28747  -5523361.01064
  18840655.0464  -13125295.69547 -10127603.78263
  22377184.8824   -8670085.20446   -628972.75461
  19990094.5544   -1679671.29647  -1241123.30962
  21140224.8194  -11662743.22746  -8716716.87661
  23075689.3194    4204510.47943    894856.18861
  22928659.968    -2176855.634 4  -1454309.27121
 97  1  8  1  9 59.9950000  0  7G 2G 7G15G27G26G19G 4
  19838304.4054   -7193707.15747  -5555371.28864
  18828777.3044  -13187714.38247 -10176241.70663
  22372499.5624   -8694719.17646   -648168.03061
  19993813.9294   -1660134.25947  -1225899.63962
  21130975.7964  -11711363.81846  -8754603.04161
  23084583.773     4251241.556 4    931270.01521
  22899016.890    -2332604.260 4  -1575671.80421
 97  1  8  1 10 29.9950000  0  7G 2G 7G15G27G26G19G 4
  19830520.5624   -7234610.50847  -5587244.01563
  18816992.7734  -13249645.53847 -10224499.72463
  22367923.5624   -8718767.57046   -666907.01761
  19997612.4914   -1640172.52847  -1210345.04362
  21121823.5304  -11759457.94646  -8792078.97661
  23093509.2184    4298148.24343    967820.68161
  22869378.702    -2488378.196 4  -1697054.03721
 97  1  8  1 10 59.9950000  0  7G 2G 7G15G27G26G19G 4
  19822772.0544   -7275341.46847  -5618982.42564
  18805295.4054  -13311108.85647 -10272393.20863
  22363453.0934   -8742235.21546   -685193.49361
  20001489.6404   -1619803.93247  -1194473.42362
  21112767.5234  -11807031.70646  -8829149.44461
  23102464.679     4345219.290 3   1004499.44221
  22839727.694    -2644169.052 4  -1818449.50121
 97  1  8  1 11 29.9950000  0  7G 2G 7G15G27G26G19G 4
  19815053.4684   -7315904.05147  -5650589.62464
  18793686.327   -13372102.000 7 -10319920.31123
  22359103.2414   -8765121.55246   -703026.99161
  20005439.0304   -1599044.39447  -1178297.14962
  21103815.5154  -11854069.17246  -8865802.00561
  23111448.679     4392448.512 3   1041301.42421
  22810083.929    -2799971.510 5  -1939853.95421
 97  1  8  1 11 59.9950000  0  7G 2G 7G15G27G26G19G 4
  19807366.0304   -7356302.82247  -5682069.18464
  18782168.5464  -13432629.19847 -10367084.35463
  22354861.8194   -8787429.88346   -720410.10061
  20009464.5624   -1577895.68347  -1161817.64462
  21094966.4294  -11900573.52446  -8902039.16361
  23120470.3584    4439821.71643   1078215.61761
  22780433.9914   -2955771.86145  -2061256.79861
 97  1  8  1 12 29.9950000  0  7G 2G 7G15G27G26G19G 4
  19799710.9444   -7396530.44547  -5713415.38064
  18770738.7334  -13492690.94247 -10413885.69963
  22350723.3904   -8809156.63546   -737340.03261
  20013564.6554   -1556344.18646  -1145024.27062
  21086226.8044  -11946528.88546  -8937848.53661
  23129508.2334    4487333.79243   1115238.03761
  22750788.6244   -3111564.45945  -2182653.57461
 97  1  8  1 12 59.9950000  0  7G 2G 7G15G27G26G19G 4
  19792084.4914   -7436591.72947  -5744631.96063
  18759404.6014  -13552271.90647 -10460312.40563
  22346700.593    -8830303.893 6   -753818.38521
  20017741.5624   -1534390.00546  -1127917.10562
  21077588.1714  -11991912.30646  -8973212.23261
  23138580.9524    4534993.00043   1152375.05461
  22721143.515    -3267349.636 5  -2304044.55021
 97  1  8  1 13 29.9950000  0  6G 2G 7G15G27G26G 4
  19784499.2884   -7476471.16047  -5775706.83564
  18748160.9834  -13611344.87247 -10506343.28163
  22342782.593    -8850866.961 6   -769841.54221
  20022000.3434   -1512006.81846  -1110475.67162
  21069061.452   -12036720.279 6  -9008127.54621
  22691496.960    -3423110.660 4  -2425416.75321
 97  1  8  1 13 59.9950000  0  6G 2G 7G15G27G26G 4
  19776941.3904   -7516168.96147  -5806640.17263
  18737017.6484  -13669911.25347 -10551979.40463
  22338982.554    -8870850.303 6   -785412.94421
  20026344.3124   -1489179.94246  -1092688.50162
  21060644.0544  -12080971.35846  -9042608.90061
  22661868.5854   -3578835.10945  -2546760.41861
 97  1  8  1 14 29.9950000  0  6G 2G 7G15G27G26G 4
  19769423.9834   -7555684.73847  -5837431.69564
  18725974.2494  -13727950.10447 -10597204.47863
  22335289.9444   -8890245.72345   -800526.24661
  20030776.7654   -1465887.46746  -1074538.53862
  21052328.8274  -12124652.95146  -9076646.50161
  22632244.7104   -3734515.09145  -2668069.43461
 97  1  8  1 14 59.9950000  0  6G 2G 7G15G27G26G 4
  19761936.0304   -7595035.11448  -5868094.32464
  18715028.0154  -13785464.30447 -10642020.72863
  22331712.858    -8909064.028 5   -815189.83021
  20035298.9684   -1442121.60146  -1056019.68562
  21044118.9834  -12167802.53246  -9110269.55661
  22602624.0624   -3890157.11745  -2789348.90961
 97  1  8  1 15 29.9950000  0  6G 2G 7G15G27G26G 4
  19754477.3664   -7634222.85147  -5898630.21763
  18704179.8044  -13842476.30947 -10686445.64963
  22328238.163    -8927308.226 5   -829406.04221
  20039913.7104   -1417882.72246  -1037132.25662
  21036004.9054  -12210443.27946  -9143496.11761
  22573011.007    -4045770.988 5  -2910606.41821
 97  1  8  1 15 59.9940000  0  6G 2G 7G15G27G26G 4
  19747054.3304   -7673248.79947  -5929040.04563
  18693423.5654  -13898990.84247 -10730482.93863
  22324875.369    -8944975.904 5   -843173.02721
  20044610.7994   -1393198.31046  -1017897.67362
  21027991.7134  -12252557.43346  -9176312.33461
  22543403.877    -4201367.952 5  -3031850.76521
 97  1  8  1 16 29.9940000  0  6G 2G 7G15G27G26G 4
  19739656.5574   -7712103.12947  -5959316.14663
  18682763.9084  -13955020.46347 -10774142.37163
  22321623.783    -8962071.960 5   -856494.60021
  20049388.9164   -1368089.14246   -998332.09362
  21020076.9864  -12294138.96646  -9208713.53261
  22513796.650    -4356976.371 5  -3153104.03521
 97  1  8  1 16 59.9940000  0  6G 2G 7G15G27G26G 4
  19732300.8854   -7750774.42748  -5989449.62963
  18672189.4554  -14010575.11847 -10817431.70663
  22318474.8854   -8978600.92045   -869374.28261
  20054239.6194   -1342585.35246   -978459.02662
  21012266.2994  -12335188.73246  -9240700.35661
  22484178.9084   -4512591.13745  -3274362.26861
 97  1  8  1 17 29.9940000  0  6G 2G 7G15G27G26G 4
  19724983.8074   -7789236.46448  -6019420.04463
  18661710.1044  -14065645.47847 -10860343.66263
  22315441.7294   -8994553.25245   -881804.64161
  20059165.2054   -1316708.50146   -958295.25662
  21004561.9404  -12375677.22346  -9272249.83561
  22454567.9794   -4668209.11445  -3395622.99861
 97  1  8  1 17 59.9940000  0  6G 2G 7G15G27G26G 4
  19717698.3544   -7827491.38747  -6049229.07463
  18651326.4004  -14120227.45147 -10902875.06263
  22312519.7834   -9009930.20445   -893786.67061
  20064160.5804   -1290456.22346   -937838.94361
  20996966.1044  -12415607.33646  -9303364.20461
  22424955.6114   -4823822.61845  -3516880.23561
 97  1  8  1 18 29.9940000  0  6G 2G 7G15G27G26G 4
  19710458.0414   -7865559.29248  -6078892.37163
  18641028.4404  -14174329.43447 -10945032.44163
  22309697.5724   -9024738.96645   -905325.96161
  20069232.4864   -1263813.24646   -917078.19861
  20989463.4864  -12455004.12746  -9334063.00561
  22395343.6114   -4979423.69945  -3638127.80561
 97  1  8  1 18 59.9940000  0  6G 2G 7G15G27G26G 4
  19703244.3224   -7903467.97048  -6108431.60063
  18630823.3934  -14227956.01247 -10986819.37463
  22306986.7214   -9038983.54745   -916425.61761
  20074376.3694   -1236768.95446   -896004.73261
  20982065.6664  -12493885.63446  -9364360.29261
  22365738.947    -5135015.543 5  -3759368.18221
 97  1  8  1 19 29.9940000  0  6G 2G 7G15G27G26G 4
  19696058.4004   -7941229.13648  -6137855.87863
  18620708.9404  -14281110.31947 -11028238.30763
  22304387.5414   -9052656.25545   -927079.67761
  20079604.0884   -1209297.13346   -874598.12361
  20974764.9554  -12532252.89046  -9394256.84861
  22336131.283    -5290593.906 5  -3880598.05621
 97  1  8  1 19 59.9940000  0  6G 2G 7G15G27G26G 4
  19688897.6664   -7978856.73048
  18610682.2834  -14333794.02747 -11069290.54163
  22301894.1044   -9065759.26645   -937289.81361
  20084916.7524   -1181380.75146   -852845.11661
  20967564.0184  -12570105.41346
  22306532.361    -5446135.514 5  -4001799.28721
 97  1  8  1 20 29.9940000  0  6G 2G 7G15G27G26G 4
  19681760.5884   -8016340.23148  -6196383.99963
  18600751.0104  -14386001.64747 -11109971.78463
  22299505.6904   -9078291.82945   -947055.43361
  20090311.5024   -1153019.80446   -830745.68261
  20960462.518   -12607431.154 6  -9452837.31821
  22276944.322    -5601630.817 5  -4122964.41921
 97  1  8  1 20 59.9940000  0  6G 2G 7G15G27G26G 4
  19674663.5334   -8053666.48448  -6225469.38163
  18590900.0724  -14437749.28447 -11150294.61063
  22297232.611    -9090259.456 5   -956380.84021
  20095789.9244   -1124230.87046   -808312.75161
  20953454.3854  -12644221.54546  -9481505.15861
  22247362.8464   -5757078.34845  -4244092.34061
 97  1  8  1 21 29.9940000  0  6G 2G 7G15G27G26G 4
  19667596.5024   -8090799.14648  -6254403.92563
  18581144.7524  -14489020.22647 -11190245.98463
  22295062.3614   -9101647.57745   -965254.69161
  20101353.3854   -1095009.61346   -785542.94061
  20946566.0884  -12680451.44646  -9509736.24361
  22217798.4714   -5912442.53845  -4365155.30961
 97  1  8  1 21 59.9940000  0  6G 2G 7G15G27G26G 4
  19660567.8154   -8127735.26148  -6283185.29663
  18571476.236   -14539820.246 7 -11229830.40223
  22293002.049    -9112470.302 5   -973687.96721
  20106989.9944   -1065378.68546   -762453.91861
  20939775.0494  -12716137.44446  -9537543.51061
  22188245.830    -6067738.265 5  -4486164.91021
 97  1  8  1 22 29.9940000  0  6G 2G 7G15G27G26G 4
  19653571.4554   -8164496.64348  -6311830.52563
  18561894.9944  -14590167.66647 -11269062.14363
  22291049.2754   -9122739.33645   -981689.78961
  20112701.9474   -1035365.26046   -739066.84061
  20933084.205   -12751306.111 6  -9564947.67021
  22158704.119    -6222991.850 5  -4607141.69421
 97  1  8  1 22 59.9940000  0  6G 2G 7G15G27G26G 4
  19646607.5254   -8201074.54848  -6340332.77563
  18552406.4474  -14640059.35047 -11307938.76663
  22289206.3774   -9132449.44645   -989256.10261
  20118485.9944   -1004977.11046   -715387.76461
  20926486.3854  -12785969.27146  -9591957.92061
  22129170.9324   -6378189.29445  -4728074.69761
 97  1  8  1 23 29.9940000  0  6G 2G 7G15G27G26G 4
  19639687.5884   -8237464.13048  -6368688.28463
  18542996.5024  -14689490.08047 -11346456.20163
  22287461.9634   -9141603.06445   -996388.77461
  20124338.3934    -974217.20846   -691419.02161
  20919979.3614  -12820138.29546  -9618583.13361
  22099647.533    -6533324.055 5  -4848958.85521
 97  1  8  1 23 59.9940000  0  6G 2G 7G15G27G26G 4
  19632793.4474   -8273671.08348  -6396901.48163
  18533681.5104  -14738453.35147 -11384609.39363
  22285825.619    -9150198.731 5  -1003086.68121
  20130262.1744    -943084.02046   -667159.39761
  20913575.2834  -12853814.99246  -9644824.71761
  22070140.4634   -6688389.38945  -4969788.90061
 97  1  8  1 24 29.9940000  0  6G 2G 7G15G27G26G 4
  19625936.8464   -8309691.43948  -6424969.28863
  18524454.5414  -14786951.17247 -11422399.89463
  22284296.2134   -9158240.01445  -1009352.62261
  20136260.455     -911570.487 6   -642603.40521
  20907262.2524  -12886994.39546  -9670678.79561
  22040650.4554   -6843360.96845  -5090545.91561
 97  1  8  1 24 59.9940000  0  7G 2G 7G15G27G26G 9G 4
  19619123.6044   -8345507.00448  -6452877.50463
  18515312.3304  -14834983.31847 -11459827.53463
  22282871.0804   -9165730.10245  -1015189.04261
  20142333.213     -879661.612 6   -617739.36021
  20901043.8074  -12919671.75146  -9696141.66761
  22845926.174     -152947.773 4
  22011179.1904   -6998227.85845  -5211221.34461
 97  1  8  1 25 29.9940000  0  7G 2G 7G15G27G26G 9G 4
  19612348.205    -8381130.004 8  -6480635.67123
  18506260.9634  -14882527.99947 -11496875.32163
  22281548.658    -9172665.979 5  -1020593.60221
  20148485.5414    -847334.65246   -592549.52361
  20894918.900   -12951836.372 6  -9721204.99121
  22816832.1584    -305819.64344
  21981730.7914   -7152995.88845  -5331819.74961
 97  1  8  1 25 59.9940000  0  7G 2G 7G15G27G26G 9G 4
  19605599.9084   -8416578.07248  -6508257.53263
  18497312.3154  -14929580.46847 -11533539.57163
  22280335.3544   -9179047.10045  -1025565.88661
  20154718.5884    -814578.80846   -567025.50961
  20888897.5334  -12983487.38246  -9745868.11261
  22787759.205     -458618.370 4        -0.05031
  21952292.986    -7307672.669 5  -5452347.05421
 97  1  8  1 26 29.9940000  0  7G 2G 7G15G27G26G 9G 4
  19598892.0724   -8451847.75348  -6535740.38063
  18488447.6114  -14976138.90447 -11569818.86163
  22279230.072    -9184871.801 4  -1030104.59321
  20161034.4864    -781384.79146   -541160.04361
  20882970.3074  -13014625.79146  -9770131.81061
  22758699.916     -611332.825 5   -118998.28121
  21922874.4944   -7462260.37045  -5572804.93261
 97  1  8  1 26 59.9940000  0  7G 2G 7G15G27G26G 9G 4
  19592210.8384   -8486952.37248  -6563094.62063
  18479680.1354  -15022210.91547 -11605719.11963
  22278225.3774   -9190147.85644  -1034215.77561
  20167429.080     -747775.927 6   -514971.34221
  20877140.5804  -13045262.22346  -9794004.35461
  22729651.1744    -763964.52645   -237932.06261
  21893465.6824   -7616786.65545  -5693214.98961
 97  1  8  1 27 29.9940000  0  7G 2G 7G15G27G26G 9G 4
  19585560.3614   -8521902.27348  -6590328.30863
  18471000.0964  -15067818.81747 -11641257.74063
  22277317.729    -9194886.632 4  -1037908.32721
  20173899.6584    -713772.38946   -488475.07861
  20871406.0024  -13075398.37246  -9817487.05961
  22700624.5254    -916516.43644
  21864071.479    -7771268.503 5  -5813590.41121
 97  1  8  1 27 59.9940000  0  7G 2G 7G15G27G26G 9G 4
  19578941.9404   -8556662.25448  -6617413.99761
  18462409.283   -15112979.602 7 -11676447.94623
  22276523.400    -9199076.831 5  -1041173.39521
  20180443.182     -679381.351 6   -461676.88221
  20865773.268   -13105021.276 6  -9840569.85121
  22671616.440    -1068961.806 5
  21834689.854    -7925698.132 5  -5933925.16021
 97  1  8  1 28 29.9940000  0  7G 2G 7G15G27G26G 9G 4
  19572365.4944   -8591229.29648  -6644349.34263
  18453898.9084  -15157716.76647 -11711308.06663
  22275818.7994   -9202732.77644  -1044022.17361
  20187056.4004    -644641.49246   -434606.86761
  20860230.6044  -13134142.30246  -9863261.55761
  22642624.5254   -1221310.62845        -0.48871
  21805306.260    -8080086.950 5  -6054228.09521
 97  1  8  1 28 59.9940000  0  7G 2G 7G15G27G26G 9G 4
  19565828.0414   -8625591.79548  -6671125.30863
  18445462.6274  -15202027.73347 -11745836.08663
  22275233.0104   -9205845.75545  -1046447.84061
  20193732.6434    -609559.55246   -407270.28861
  20854790.830   -13162738.904 6  -9885544.61321
  22613650.697    -1373569.565 5   -118643.75121
  21775939.7214   -8234417.45945  -6174485.62161
 97  1  8  1 29 29.9940000  0  7G 2G 7G15G27G26G 9G 4
  19559328.8854   -8659743.34648  -6697736.90863
  18437114.7834  -15245898.55647 -11780021.13663
  22274746.6974   -9208406.02245  -1048442.85061
  20200474.9864    -574123.02746   -379657.41761
  20849448.8224  -13190801.41946  -9907411.50861
  22584690.9474   -1525738.94944   -237217.27861
  21746590.7754   -8388662.12045  -6294676.24961
 97  1  8  1 29 59.9940000  0  7G 2G 7G15G27G26G 9G 4
  19552865.6824   -8693706.17948  -6724201.44763
  18428853.1974  -15289327.27747 -11813861.68763
  22274364.736    -9210423.710 5  -1050015.04421
  20207283.7134    -538348.04546   -351780.81261
  20844204.5184  -13218358.51246  -9928884.57061
  22555746.6434   -1677837.22244   -355735.35661
  21717254.2604   -8542805.72045  -6414788.13161
 97  1  8  1 30 29.9930000  0  7G 2G 7G15G27G26G 9G 4
  19546429.3414   -8727525.82448  -6750554.41563
  18420668.5364  -15332329.51547 -11847369.91163
  22274077.1224   -9211927.04545  -1051186.46561
  20214147.1074    -502253.04146   -323654.84361
  20839051.7634  -13245427.89946  -9949977.60561
  22526812.5054   -1829894.65244   -474221.61461
  21687944.208    -8696839.829 5  -6534814.68621
 97  1  8  1 30 59.9930000  0  7G 2G 7G15G27G26G 9G 4
  19540024.7164   -8761194.82448  -6776789.99363
  18412570.3254  -15374872.95147 -11880520.63463
  22273895.8804   -9212897.36245  -1051942.52561
  20221088.6384    -465787.12546   -295239.85361
  20833994.6614  -13271999.90146  -9970683.06661
  22497888.255    -1981900.230 4   -592667.47021
  21658656.7004   -8850747.73145  -6654742.92961
 97  1  8  1 31 29.9930000  0  7G 2G 7G15G27G26G 9G 4
  19533639.8724   -8794718.09048  -6802912.02563
  18404566.6464  -15416957.75347 -11913313.97763
  22273807.982    -9213343.328 5
  20228104.0754    -428935.52646   -266524.33461
  20829032.1854  -13298103.68546  -9991023.67761
  22468974.107    -2133841.817 4   -711063.44721
  21629393.6774   -9004534.89545  -6774577.05661
 97  1  8  1 31 59.9930000  0  7G 2G 7G15G27G26G 9G 4
  19527298.8174   -8828063.81048  -6828895.69963
  18396643.6614  -15458567.04247 -11945736.79263
  22273828.7634   -9213243.84145
  20235193.3644    -391675.51246   -237490.56661
  20824158.1924  -13323712.46146 -10010978.56461
  22440086.8494   -2285680.33844   -829379.10961
  21600155.083    -9158172.847 5  -6894294.93321
 97  1  8  1 32 29.9930000  0  7G 2G 7G15G27G26G 9G 4
  19520987.0524   -8861236.62948  -6854744.64763
  18388816.9894  -15499703.90347 -11977791.47763
  22273948.396    -9212610.768 5  -1051719.16121
  20242360.7394    -354014.09146   -208144.01961
  20819378.7084  -13348821.25446 -10030543.85761
  22411210.1144   -2437411.33244   -947610.99361
  21570939.7784   -9311697.15045  -7013924.25261
 97  1  8  1 32 59.9930000  0  7G 2G 7G15G27G26G 9G 4
  19514705.6534   -8894241.68847  -6880462.87463
  18381075.7714  -15540378.43747 -12009485.91163
  22274168.7784   -9211457.53445  -1050820.52461
  20249601.7244    -315966.67946   -178496.69561
  20814692.3414  -13373448.29846 -10049733.77361
  22382353.0134   -2589035.11045  -1065759.33261
  21541740.8024   -9465130.67345  -7133482.80661
 97  1  8  1 33 29.9930000  0  7G 2G 7G15G27G26G 9G 4
  19508461.4824   -8927059.58447  -6906035.26063
  18373422.1694  -15580606.37147 -12040832.34863
  22274480.286    -9209780.247 5  -1049513.52821
  20256909.6614    -277552.12046   -148563.28261
  20810096.5364  -13397578.39746 -10068536.45261
  22353521.708    -2740541.426 5  -1183816.13921
  21512566.161    -9618455.742 5  -7252956.85721
 97  1  8  1 33 59.9930000  0  7G 2G 7G15G27G26G 9G 4
  19502245.4354   -8959702.94347  -6931471.63963
  18365852.9034  -15620405.05947 -12071844.30563
  22274906.825    -9207589.264 5  -1047806.26221
  20264285.2864    -238799.03446   -118366.08361
  20805607.0674  -13421207.49246 -10086948.73661
  22324712.4974   -2891942.59645  -1301791.03161
  21483410.021    -9771676.626 5  -7372349.73121
 97  1  8  1 34 29.9930000  0  7G 2G 7G15G27G26G 9G 4
  19496072.5364   -8992160.79647  -6956763.47263
  18358357.8804  -15659764.78047 -12102514.21063
  22275421.083    -9204873.761 5  -1045690.26621
  20271728.6074    -199689.63746    -87891.24061
  20801199.5054  -13444336.55346 -10104971.38961
  22295924.130    -3043234.345 5  -1419680.65221
  21454269.950    -9924791.591 5  -7491660.05221
 97  1  8  1 34 59.9930000  0  7G 2G 7G15G27G26G 9G 4
  19489930.8334   -9024428.45747  -6981907.11063
  18350953.4114  -15698698.38347 -12132852.07763
  22276035.1464   -9201640.85845  -1043171.11461
  20279235.4584    -160232.33346    -57145.31061
  20796890.0604  -13466993.83746 -10122626.42161
  22267149.216    -3194424.222 5  -1537490.89521
  21425159.0364  -10077782.14846  -7610873.43661
 97  1  8  1 35 29.9930000  0  7G 2G 7G15G27G26G 9G 4
  19483821.2714   -9056518.00747  -7006911.94863
  18343622.0444  -15737224.27247 -12162872.24763
  22276748.9114   -9197902.54845  -1040258.12861
  20286808.1854    -120435.71746    -26134.96661
  20792665.8804  -13489199.81146 -10139929.78261
  22238401.950    -3345516.466 5  -1655225.04921
  21396065.966   -10230662.818 5  -7730001.20521
 97  1  8  1 35 59.9930000  0  7G 2G 7G15G27G26G 9G 4
  19477749.9664   -9088431.60647  -7031779.68863
  18336373.3804  -15775323.32247 -12192559.80963
  22277556.7474   -9193648.19745  -1036943.04761
  20294448.8024     -80283.47246      5152.48761
  20788518.849   -13510963.945 6 -10156888.85921
  22209670.685    -3496494.932 5  -1772870.54421
  21366998.700   -10383431.890 6  -7849041.99521
 97  1  8  1 36 29.9930000  0  7G 2G 7G15G27G26G 9G 4
  19471711.3804   -9120164.97848  -7056506.98163
  18329204.8494  -15812982.93247 -12221904.95363
  22278468.0054   -9188876.47145  -1033224.81761
  20302155.5214     -39775.76346     36716.93161
  20784463.9034  -13532295.93546 -10173511.18261
  22180959.8574   -3647349.16745  -1890419.30261
  21337951.607   -10536073.953 5  -7967983.83521
 97  1  8  1 36 59.9930000  0  7G 2G 7G15G27G26G 9G 4
  19465710.5284   -9151714.57047  -7081091.08963
  18322120.8024  -15850200.49347 -12250905.63363
  22279469.4034   -9183584.97545  -1029101.55361
  20309934.0834       1084.43946     68556.03461
  20780488.4424  -13553181.94646 -10189786.00561
  22152279.0364   -3798072.53245  -2007866.02461
  21308929.8964  -10688567.02446  -8086809.55461
 97  1  8  1 37 29.9930000  0  7G 2G 7G15G27G26G 9G 4
  19459736.0364   -9183096.58647  -7105544.60363
  18315119.9824  -15887002.46047 -12279582.50063
  22280572.8024   -9177791.16245  -1024586.88661
  20317772.2394      42283.05046    100658.83661
  20776599.966   -13573621.915 6 -10205713.26121
  22123620.903    -3948680.394 5  -2125222.77721
  21279935.9034  -10840926.12046  -8205530.90661
 97  1  8  1 37 59.9930000  0  7G 2G 7G15G27G26G 9G 4
  19453801.6534   -9214301.47947  -7129860.09763
  18308191.5444  -15923381.52047 -12307929.79963
  22281772.5364   -9171501.14445  -1019685.57261
  20325675.0364      83803.06746    133012.08461
  20772795.357   -13593614.227 6 -10221291.67921
  22094978.083    -4099189.563 5  -2242502.62021
  21250972.528   -10993131.267 6  -8324132.28021
 97  1  8  1 38 29.9930000  0  7G 2G 7G15G27G26G 9G 4
  19447902.7784   -9245291.99447  -7154008.55163
  18301355.5214  -15959318.40047 -12335932.55463
  22283068.177    -9164691.767 5  -1014379.54521
  20333640.7634     125673.89946    165638.70661
  20769084.8174  -13613112.87346 -10236485.42861
  22066364.1464   -4249569.43445  -2359681.71661
  21222044.403   -11145153.255 6  -8442590.93821
 97  1  8  1 38 59.9930000  0  7G 2G 7G15G27G26G 9G 4
  19442039.7864   -9276097.09447  -7178012.52063
  18294594.2784  -15994851.37247 -12363620.57563
  22284457.5444   -9157393.35845  -1008692.45861
  20341672.5284     167872.09146    198520.39861
  20765464.3334  -13632136.53346 -10251309.05961
  22037769.7554   -4399845.79645  -2476780.14261
  21193140.9584  -11297032.52946  -8560938.39861
 97  1  8  1 39 29.9930000  0  7G 2G 7G15G27G26G 9G 4
  19436218.1854   -9306705.41347  -7201863.15963
  18287911.6224  -16029961.89247 -12390979.41763
  22285939.3334   -9149593.59245  -1002614.72661
  20349765.482      210400.333 6    231659.27521
  20761934.482   -13650680.530 6 -10265758.94921
  22009198.857    -4549996.479 5  -2593780.65521
  21164267.2634  -11448764.91246  -8679171.40161
 97  1  8  1 39 59.9930000  0  7G 2G 7G15G27G26G 9G 4
  19430429.5524   -9337125.47647  -7225567.09563
  18281310.7784  -16064637.51247 -12417999.37363
  22287519.7244   -9141287.64545   -996142.54761
  20357920.2394     253259.76546    265056.22661
  20758496.6304  -13668746.40846 -10279836.25461
  21980647.5754   -4700016.16845  -2710679.07761
  21135423.4274  -11600353.24846  -8797292.15161
 97  1  8  1 40 29.9930000  0  7G 2G 7G15G27G26G 9G 4
  19424665.8174   -9367384.67647  -7249145.69463
  18274797.8804  -16098903.27247 -12444699.95763
  22289198.8254   -9132489.93545   -989287.19361
  20366137.9894     296449.49946    298710.56661
  20755148.6144  -13686340.44046 -10293545.88061
  21952125.9894   -4849909.74445  -2827479.25661
  21106599.255   -11751816.937 6  -8915315.78121
 97  1  8  1 40 59.9930000  0  7G 2G 7G15G27G26G 9G 4
  19418940.0914   -9397494.87948  -7272608.18863
  18268350.9504  -16132749.72447 -12471073.81063
  22290960.0834   -9123205.83545   -982052.82761
  20374418.3574     339953.29146    332609.61961
  20751887.4194  -13703472.52346 -10306895.55661
  21923621.0364   -4999688.17445  -2944189.67361
  21077805.1534  -11903146.65546  -9033235.02861
 97  1  8  1 41 29.9930000  0  7G 2G 7G15G27G26G 9G 4
  19413239.9894   -9427436.38347  -7295939.22763
  18261994.4974  -16166171.16847 -12497116.49063
  22292825.685    -9113423.649 5   -974430.34621
  20382757.7784     383789.96546    366768.07261
  20748718.0994  -13720140.90446 -10319883.90861
  21895144.6384   -5149340.43145  -3060801.78861
  21049037.192   -12054305.298 6  -9151020.95721
 97  1  8  1 41 59.9930000  0  7G 2G 7G15G27G26G 9G 4
  19407574.7244   -9457216.77247  -7319144.72763
  18255712.4354  -16199187.33347 -12522843.36963
  22294778.3334   -9103153.33245   -966427.49761
  20391165.8334     427963.99146    401189.38861
  20745630.7394  -13736354.74846 -10332518.06061
  21866689.403    -5298877.314 5  -3177324.00121
  21020308.9424  -12205281.89846  -9268665.04461
 97  1  8  1 42 29.9930000  0  7G 2G 7G15G27G26G 9G 4
  19401940.7784   -9486812.27747  -7342206.15363
  18249506.8334  -16231793.27447 -12548250.59163
  22296819.7474   -9092391.68045   -958041.80661
  20399637.4504     472485.90146    435881.78461
  20742632.6694  -13752115.24446 -10344798.97561
  21838259.2634   -5448278.44145  -3293740.43661
  20991617.7394  -12356061.16346  -9386155.34161
 97  1  8  1 42 59.9930000  0  7G 2G 7G15G27G26G 9G 4
  19396349.3644   -9516212.78647  -7365115.64063
  18243375.8254  -16263998.95247 -12573345.91663
  22298960.9034   -9081149.10845   -949281.36061
  20408175.0524     517347.27246    470838.69061
  20739717.232   -13767452.057 6 -10356749.71121
  21809852.7944   -5597551.90045  -3410057.38261
  20962959.349   -12506658.013 6  -9503503.51321
 97  1  8  1 43 29.9930000  0  7G 2G 7G15G27G26G 9G 4
  19390790.4894   -9545401.46047  -7387860.05763
  18237324.3884  -16295802.87347 -12598128.19063
  22301196.911    -9069417.555 5   -940139.86321
  20416779.0834     562563.14746    506071.82861
  20736879.0444  -13782368.99446 -10368373.30861
  21781475.7474   -5746682.95445  -3526263.37861
  20934337.0604  -12657068.71246  -9620706.63561
 97  1  8  1 43 59.9930000  0  7G 2G 7G15G27G26G 9G 4
  19385278.3574   -9574375.20547  -7410437.00163
  18231353.3254  -16327189.83947 -12622585.55563
  22303516.927    -9057198.225 5   -930618.30721
  20425448.1074     608121.24946    541571.63161
  20734118.1144  -13796862.15646 -10379666.67861
  21753125.7164   -5895656.37545  -3642346.53461
  20905745.8804  -12807308.64646  -9737776.69161
 97  1  8  1 44 29.9930000  0  7G 2G 7G15G27G26G 9G 4
  19379806.2554   -9603142.29447  -7432852.91663
  18225459.0754  -16358157.13847 -12646715.91363
  22305936.8494   -9044500.23545   -920723.76961
  20434178.7474     653998.48246    577320.10461
  20731443.3724  -13810945.37046 -10390640.61861
  21724804.833    -6044479.100 5  -3758312.28221
  20877183.3174  -12957396.04646  -9854727.87861
 97  1  8  1 44 59.9930000  0  7G 2G 7G15G27G26G 9G 4
  19374368.1384   -9631721.92447  -7455122.75163
  18219643.2474  -16388709.93347 -12670523.27763
  22308446.6074   -9031324.51345   -910456.97161
  20442966.8964     700182.92546    613307.98461
  20728839.4894  -13824612.92746 -10401290.64361
  21696512.5524   -6193161.27145  -3874168.49761
  20848654.560   -13107323.878 6  -9971554.73221
 97  1  8  1 45 29.9920000  0  6G 2G 7G27G26G 9G 4
  19368964.0244   -9660126.98148  -7477256.56863
  18213910.2034  -16418848.25347 -12694007.67663
  20451810.6564     746651.13246    649516.97461
  20726318.8364  -13837848.75946 -10411604.27761
  21668249.9064   -6341678.39845  -3989896.11461
  20820161.813   -13257066.963 6 -10088237.61721
 97  1  8  1 45 59.9920000  0  6G 2G 7G27G26G 9G 4
  19363592.2194   -9688353.00448  -7499250.86763
  18208251.6334  -16448588.82747 -12717182.13863
  20460707.6094     793401.66146    685945.96161
  20723885.7424  -13850634.64346 -10421567.31561
  21640017.6564   -6490040.47445  -4105502.89161
  20791704.4144  -13406621.19346 -10204773.34161
 97  1  8  1 46 29.9920000  0  6G 2G 7G27G26G 9G 4
  19358252.7664   -9716408.96348  -7521112.65063
  18202662.0704  -16477949.63447 -12740060.68163
  20469655.3834     840428.47946    722590.22461
  20721540.0164  -13862969.83646 -10431179.15361
  21611809.6644   -6638264.45945  -4221002.08161
  20763278.5084  -13555975.35746 -10321153.17861
 97  1  8  1 46 59.9920000  0  6G 2G 7G27G26G 9G 4
  19352947.4774   -9744275.25448  -7542826.64363
  18197149.4774  -16506932.80847 -12762644.95763
  20478657.1954     887743.57246    759459.11561
  20719282.766   -13874834.329 6 -10440424.19321
  21583632.0394   -6786332.48745  -4336379.77361
  20734899.086   -13705113.558 6 -10437364.73721
 97  1  8  1 47 29.9920000  0  6G 2G 7G27G26G 9G 4
  19347685.1334   -9771933.97048  -7564378.88263
  18191707.6494  -16535539.13747 -12784935.59463
  20487716.9064     935341.31846    796548.28561
  20717108.4224  -13886235.66246 -10449308.35161
  21555488.7344   -6934253.69845  -4451643.03661
  20706561.219   -13854050.788 6 -10553419.67521
 97  1  8  1 47 59.9920000  0  6G 2G 7G27G26G 9G 4
  19342462.8284   -9799383.26048  -7585767.94663
  18186334.8594  -16563751.48047 -12806919.22563
  20496834.1644     983251.20146    833880.66561
  20715024.6254  -13897180.91646 -10457837.12461
  21527360.1804   -7082038.05145  -4566799.66661
  20678253.578   -14002796.917 6 -10669325.72121
 97  1  8  1 48 29.9920000  0  6G 2G 7G27G26G 9G 4
  19337278.7504   -9826634.78848  -7607002.90363
  18181047.6094  -16591549.52847 -12828580.02163
  20506010.3994    1031475.33746    871457.91461
  20713027.3594  -13907692.79746 -10466028.19861
  21499267.617    -7229671.912 5  -4681839.02721
  20649983.414   -14151359.499 6 -10785088.73221
 97  1  8  1 48 59.9920000  0  6G 2G 7G27G26G 9G 4
  19332126.3054   -9853689.61348  -7628084.57563
  18175836.4614  -16618939.86247 -12849923.13863
  20515243.9614    1080012.50246    909279.06661
  20711107.2194  -13917789.53546 -10473895.78261
  21471205.4384   -7377148.88845  -4796756.14461
  20621748.758   -14299735.821 6 -10900706.60421
 97  1  8  1 49 29.9920000  0  6G 2G 7G27G26G 9G 4
  19327006.180    -9880559.309 7
  18170708.0864  -16645924.40347
  20524541.1334    1128866.97646    947347.48661
  20709258.4694  -13927492.80246 -10481456.77661
  21443172.3994   -7524471.75145  -4911553.17461
  20593544.5554  -14447923.54746 -11016177.54461
 97  1  8  1 49 59.9920000  0  6G 2G 7G27G26G 9G 4
  19321931.5944   -9907263.80748  -7669830.71463
  18165642.2034  -16672522.80747 -12891676.06063
  20533898.5554    1178025.51146    985652.81761
  20707484.6954  -13936820.91746 -10488725.44061
  21415166.4534   -7671631.79945  -5026223.32761
  20565389.297   -14595907.073 6 -11131489.33821
 97  1  8  1 50 29.9920000  0  6G 2G 7G27G26G 9G 4
  19316885.6724   -9933778.67047  -7690491.64663
  18160651.3524  -16698736.08147 -12912101.97963
  20543307.3364    1227474.72646   1024184.65861
  20705783.9844  -13945763.22846 -10495693.47161
  21387198.8994   -7818609.01845  -5140751.02461
  20537270.3444  -14743653.52046 -11246616.41761
 97  1  8  1 50 59.9920000  0  6G 2G 7G27G26G 9G 4
  19311878.8594   -9960103.35447  -7711004.38463
  18155727.9454  -16724579.34147 -12932239.57763
  20552772.5554    1277210.39946   1062939.71761
  20704155.2274  -13954315.54446 -10502357.60961
  21359263.6094   -7965410.47645  -5255141.75561
  20509201.6254  -14891158.89546 -11361555.63361
 97  1  8  1 51 29.9920000  0  6G 2G 7G27G26G 9G 4
  19306905.4924   -9986229.26448  -7731362.23663
  18150890.1564  -16750037.95147 -12952077.44763
  20562290.5394    1327230.12646   1101916.11461
  20702605.539   -13962460.982 6 -10508704.68921
  21331364.4224   -8112022.00245  -5369384.49261
  20481179.008   -15038422.332 6 -11476306.32921
 97  1  8  1 51 59.9920000  0  6G 2G 7G27G26G 9G 4
  19301970.7974  -10012174.83748  -7751579.57163
  18146111.3834  -16775130.26947 -12971629.89863
  20571858.3754    1377515.07245   1141099.17861
  20701134.0394  -13970196.75146 -10514732.58261
  21303499.0634   -8258455.15545  -5483488.22561
  20453201.469   -15185449.694 6 -11590873.08321
 97  1  8  1 52 29.9920000  0  6G 2G 7G27G26G 9G 4
  19297067.5244  -10037930.88448  -7771649.21763
  18141411.7744  -16799840.98247 -12990884.98563
  20581482.6954    1428082.23245   1180502.14661
  20699743.3674  -13977510.17746 -10520431.34561
  21275669.3134   -8404703.41645  -5597447.89561
  20425268.234   -15332242.757 6 -11705257.25421
 97  1  8  1 52 59.9920000  0  6G 2G 7G27G26G 9G 4
  19292198.3134  -10063511.96948  -7791582.53263
  18136780.0004  -16824187.26447 -13009856.10763
  20591156.3594    1478928.73045   1220122.77761
  20698428.8834  -13984417.27246 -10525813.50261
  21247871.063    -8550784.437 5  -5711277.23621
  20397374.5864  -15478821.01646 -11819474.05961
 97  1  8  1 53 29.9920000  0  6G 2G 7G27G26G 9G 4
  19287363.3834  -10088920.08148  -7811381.06563
  18132214.0944  -16848178.09647 -13028550.26463
  20600885.242     1530043.872 5   1259952.73521
  20697185.1414  -13990927.96846 -10530886.76261
  21220101.320    -8696705.774 5  -5824982.15921
  20369521.5314  -15625175.93246 -11933516.84161
 97  1  8  1 53 59.9920000  0  6G 2G 7G27G26G 9G 4
  19282561.4924  -10114156.02348  -7831045.43563
  18127718.5394  -16871814.38547 -13046968.13863
  20610663.625     1581425.618 5   1299990.44721
  20696022.1954  -13997060.97946 -10535665.72861
  21192365.1024   -8842470.32745  -5938564.91161
  20341718.914   -15771300.391 6 -12047380.01221
 97  1  8  1 54 29.9920000  0  6G 2G 7G27G26G 9G 4
  19277798.4304  -10139185.99248  -7850549.30463
  18123290.8284  -16895068.34047 -13065088.09263
  20620493.4224    1633092.07445   1340250.00161
  20694925.6724  -14002811.13146 -10540146.38461
  21164659.984    -8988061.661 5  -6052012.68621
  20313955.875   -15917187.872 6 -12161058.54121
 97  1  8  1 54 59.9920000  0  6G 2G 7G27G26G 9G 4
  19273077.0944  -10164007.30048  -7869890.58463
  18118934.4384  -16917950.38547 -13082918.24763
  20630380.492     1685039.492 5   1380728.49021
  20693906.1174  -14008174.33046 -10544325.50061
  21136989.2114   -9133475.97445  -6165322.52861
  20286237.3834  -16062837.56946 -12274551.78561
 97  1  8  1 55 29.9920000  0  6G 2G 7G27G26G 9G 4
  19268393.0784  -10188608.32248  -7889060.20863
  18114652.5004  -16940451.13847 -13100451.30663
  20640314.641     1737264.180 5   1421423.04921
  20692965.149   -14013142.111 6 -10548196.47921
  21109357.6094   -9278685.99446
  20258566.742   -16208249.086 6
 97  1  8  1 55 59.9920000  0  6G 2G 7G27G26G 9G 4
  19263749.3594  -10213013.03747  -7908076.87063
  18110441.1254  -16962587.54947 -13117700.44763
  20650305.0244    1789745.72845   1462317.75361
  20692089.9924  -14017731.02846 -10551772.26361
  21081759.7344   -9423705.24945
  20230936.352   -16353449.129 6
 97  1  8  1 56 29.9920000  0  6G 2G 7G27G26G 9G 4
  19259143.9064  -10237218.01347  -7926937.89263
  18106297.9224  -16984369.83947 -13134673.65663
  20660341.617     1842492.100 5   1503418.80821
  20691289.5164  -14021922.60246 -10555038.43161
  21054202.1954   -9568522.34145
  20203348.680   -16498420.984 6
 97  1  8  1 56 59.9920000  0  6G 2G 7G27G26G 9G 4
  19254580.3994  -10261219.40147  -7945640.27763
  18102214.0704  -17005806.18547 -13151377.29763
  20670423.2274    1895484.29945   1544711.41361
  20690569.8524  -14025721.70746 -10557998.77661
  21026687.4224   -9713114.69745
  20175811.031   -16643139.302 6
 97  1  8  1 57 29.9920000  0  6G 2G 7G27G26G 9G 4
  19250046.4064  -10285026.32347  -7964191.12563
  18098204.0784  -17026892.03047 -13167807.81963
  20680553.2744    1948707.52945   1586184.05861
  20689915.4224  -14029150.34546 -10560670.44061
  20999211.102    -9857491.494 5
  20148321.336   -16787595.342 6
 97  1  8  1 57 59.9920000  0  6G 2G 7G27G26G 9G 4
  19245548.6884  -10308658.70447  -7982605.96763
  18094258.2344  -17047642.66447 -13183977.13763
  20690727.3994    2002161.71545   1627836.64461
  20689331.164   -14032227.345 6 -10563068.11521
  20971776.563   -10001668.007 6
  20120884.281   -16931780.645 6
 97  1  8  1 58 29.9920000  0  6G 2G 7G27G26G 9G 4
  19241087.3914  -10332093.15847  -8000866.58363
  18090377.4534  -17068040.20447 -13199871.32063
  20700940.5474    2055855.14545   1669675.67861
  20688809.7034  -14034952.52046 -10565191.62261
  20944384.2274  -10145631.57146
  20093501.852   -17075687.441 6
 97  1  8  1 58 59.9920000  0  6G 2G 7G27G26G 9G 4
  19236668.1414  -10355328.49447  -8018972.03663
  18086564.4614  -17088068.81147 -13215478.02663
  20711205.8204    2109791.00845   1711703.59761
  20688359.469   -14037335.724 6 -10567048.66321
  20917030.4534  -10289382.99346
  20066168.469   -17219320.998 6
 97  1  8  1 59 29.9920000  0  6G 2G 7G27G26G 9G 4
  19232284.0164  -10378377.50247  -8036932.31462
  18082821.4774  -17107726.85847 -13230795.98863
  20721520.3524    2163989.54245   1753936.20661
  20687971.086   -14039363.899 6 -10568629.06821
  20889709.8994  -10432937.28446  -7177889.65961
  20038885.274   -17362692.361 6 -13287425.53621
 97  1  8  1 59 59.9920000  0  6G 2G 7G27G26G 9G 4
  19227932.5004  -10401234.78947  -8054743.18663
  18079149.1254  -17127017.56947 -13245827.71263
  20731882.399     2218452.233 5   1796374.66021
  20687659.3994  -14041022.07446 -10569921.14861
  20862430.7344  -10576285.29846  -7289589.40061
  20011651.8444  -17505801.58146 -13398939.21361
 97  1  8  2  0 29.9910000  0  6G 2G 7G27G26G 9G 4
  19223619.6674  -10423892.04747  -8072398.19362
  18075552.7374  -17145938.94147 -13260571.63563
  20742296.784     2273165.540 5   1839008.38721
  20687410.1514  -14042304.11846 -10570920.15161
  20835194.9874  -10719420.74846  -7401123.49661
  19984471.5504  -17648636.50346 -13510239.13461
 97  1  8  2  0 59.9910000  0  6G 2G 7G27G26G 9G 4
  19219347.8394  -10446363.88447  -8089908.71962
  18072014.3164  -17164515.01747 -13275046.49863
  20752753.222     2328125.586 5   1881834.37121
  20687239.4334  -14043207.26046 -10571623.89161
  20807997.362   -10862339.232 6  -7512488.52721
  19957344.4174  -17791200.10046 -13621327.64761
 97  1  8  2  1 29.9910000  0  6G 2G 7G27G26G 9G 4
  19215104.4334  -10468648.99947  -8107273.74562
  18068542.4804  -17182769.58147 -13289270.83164
  20763256.5114    2383312.00745   1924836.78161
  20687142.917   -14043733.237 6 -10572033.75721
  20780842.956   -11005041.324 6  -7623684.95221
  19930268.1284  -17933491.16346 -13732203.78961
 97  1  8  2  1 59.9910000  0  6G 2G 7G27G26G 9G 4
  19210900.4014  -10490729.21747  -8124479.10962
  18065131.1754  -17200703.92047 -13303245.63863
  20773799.6754    2438723.99045   1968014.94761
  20687112.7764  -14043894.14946
  20753729.6444  -11147521.57746  -7734708.51861
  19903242.7064  -18075500.50146 -13842860.40361
 97  1  8  2  2 29.9910000  0  6G 2G 7G27G26G 9G 4
  19206741.7614  -10512594.63747  -8141517.10362
  18061775.7764  -17218322.90947 -13316974.72163
  20784391.7764    2494367.32445   2011373.37061
  20687144.8164  -14043698.66846
  20726656.159   -11289777.641 6  -7845557.37721
  19876269.675   -18217232.507 6 -13953300.92121
 97  1  8  2  2 59.9910000  0  6G 2G 7G27G26G 9G 4
  19202624.5264  -10534238.95447  -8158382.81162
  18058483.6444  -17235606.88147 -13330442.74264
  20795027.8554    2550258.84845   2054925.21161
  20687256.3784  -14043145.40746 -10571575.69861
  20699629.1674  -11431804.14346  -7956227.36861
  19849354.4484  -18358684.53046 -14063523.26061
 97  1  8  2  3 29.9910000  0  6G 2G 7G27G26G 9G 4
  19198547.7224  -10555661.94347  -8175076.04862
  18055262.1674  -17252543.55447 -13343640.14764
  20805706.0194    2606390.05245   2098663.79961
  20687418.7224  -14042255.52346 -10570882.29461
  20672642.6284  -11573627.22746  -8066738.84961
  19822490.925   -18499851.553 6 -14173523.51221
 97  1  8  2  3 59.9910000  0  6G 2G 7G27G26G 9G 4
  19194513.2224  -10576869.50647  -8191601.42862
  18052106.1364  -17269123.05047 -13356559.23064
  20816432.847     2662751.237 5   2142581.57321
  20687656.8084  -14041048.14046 -10569941.47861
  20645693.6054  -11715243.70446  -8177089.33961
  19795683.8084  -18640726.02446 -14283295.81561
 97  1  8  2  4 29.9910000  0  6G 2G 7G27G26G 9G 4
  19190519.3084  -10597860.49347  -8207958.04662
  18049023.9174  -17285325.75247 -13369184.71264
  20827200.151     2719341.613 5   2186677.95721
  20687941.2144  -14039508.24546 -10568741.56761
  20618786.6514  -11856634.64946  -8287264.09261
  19768932.6514  -18781290.14046 -14392826.26361
 97  1  8  2  4 59.9910000  0  6G 2G 7G27G26G 9G 4
  19186560.9254  -10618639.12547  -8224149.18862
  18046016.5194  -17301144.48747 -13381510.98564
  20838011.1914    2776152.16645   2230945.91761
  20688301.3784  -14037632.26946 -10567279.77061
  20591925.8474  -11997789.68346  -8397255.02561
  19742251.1594  -18921521.65046 -14502097.54761
 97  1  8  2  5 29.9910000  0  6G 2G 7G27G26G 9G 4
  19182646.6284  -10639206.47947  -8240175.70662
  18043072.8944  -17316621.36347 -13393570.88564
  20848856.995     2833155.512 5   2275364.07221
  20688718.5894  -14035432.02946 -10565565.29761
  20565108.831   -12138723.662 6  -8507073.69121
  19715628.9414  -19061421.14446 -14611110.13361
 97  1  8  2  5 59.9910000  0  6G 2G 7G27G26G 9G 4
  19178775.6124  -10659567.13547  -8256041.15162
  18040185.7454  -17331768.51947 -13405373.84864
  20859743.8394    2890359.84045   2319938.88761
  20689205.5664  -14032895.19346 -10563588.55261
  20538337.1444  -12279421.05346  -8616708.01161
  19689071.1124  -19200987.14746 -14719862.84661
 97  1  8  2  6 29.9910000  0  6G 2G 7G27G26G 9G 4
  19174935.3394  -10679732.66147  -8271754.55462
  18037367.1514  -17346608.97047 -13416937.82864
  20870666.6754    2947778.28045   2364680.50161
  20689748.800   -14030018.597 6 -10561347.04821
  20511605.3474  -12419883.38846  -8726159.17461
  19662573.2614  -19340217.27946 -14828353.84761
 97  1  8  2  6 59.9910000  0  6G 2G 7G27G26G 9G 4
  19171137.4804  -10699706.23147  -8287318.38362
  18034592.9564  -17361163.35347 -13428278.89164
  20881639.362     3005424.551 5   2409599.63821
  20690363.573   -14026805.940 6 -10558843.66821
  20484919.7694  -12560114.01046  -8835429.77061
  19636147.6284  -19479106.00246 -14936578.81661
 97  1  8  2  7 29.9910000  0  6G 2G 7G27G26G 9G 4
  19167366.0734  -10719496.90847  -8302739.68962
  18031881.6754  -17375434.96047 -13439399.61664
  20892658.526     3063319.889 5   2454712.87321
  20691037.9874  -14023261.76346 -10556081.99861
  20458281.9564  -12700120.50146  -8944525.72961
  19609777.6204  -19617662.74146 -15044545.10061
 97  1  8  2  7 59.9910000  0  6G 2G 7G27G26G 9G 4
  19163632.5344  -10739129.00847  -8318037.43462
  18029218.7764  -17389410.49547 -13450289.63564
  20903723.7064    3121471.49045   2500025.80361
  20691770.6364  -14019390.24646 -10553065.24161
  20431682.4644  -12839885.17246  -9053433.26361
  19583470.9564  -19755913.25746 -15152272.77061
 97  1  8  2  8 29.9910000  0  6G 2G 7G27G26G 9G 4
  19159935.4874  -10758575.65447  -8333190.67062
  18026617.8474  -17403071.99147 -13460934.95063
  20914840.7694    3179895.98645   2545551.37561
  20692576.2614  -14015174.06546 -10549779.90361
  20405135.0894  -12979383.53946  -9162133.28361
  19557222.1054  -19893848.11146 -15259754.47861
 97  1  8  2  8 59.9910000  0  6G 2G 7G27G26G 9G 4
  19156272.9724  -10777822.38647  -8348188.12762
  18024080.5734  -17416411.21947 -13471329.14663
  20926005.659     3238570.557 5   2591271.80221
  20693437.9174  -14010627.41746 -10546237.06361
  20378641.0504  -13118623.73946  -9270632.12461
  19531032.0814  -20031479.94646 -15367000.07461
 97  1  8  2  9 29.9910000  0  6G 2G 7G27G26G 9G 4
  19152650.4014  -10796849.37447  -8363014.35862
  18021605.4724  -17429424.90947 -13481469.68063
  20937213.519     3297453.167 5   2637154.35221
  20694365.8704  -14005760.70946 -10542444.81161
  20352194.7454  -13257596.00046  -9378922.19561
  19504898.8164  -20168818.71446 -15474017.30961
 97  1  8  2  9 59.9910000  0  6G 2G 7G27G26G 9G 4
  19149074.9414  -10815639.50147  -8377656.02162
  18019189.0664  -17442130.11147 -13491369.82563
  20948450.0584    3356505.56245   2683169.19761
  20695350.5114  -14000595.59346 -10538420.06361
  20325799.7224  -13396295.93646  -9487000.05061
  19478818.3624  -20305860.90446 -15580803.42761
 97  1  8  2 10 29.9910000  0  6G 2G 7G27G26G 9G 4
  19145548.3164  -10834170.90547  -8392096.07962
  18016828.1834  -17454537.45247 -13501037.88363
  20959712.2694    3415708.10445   2729301.01861
  20696385.2694  -13995146.57946 -10534174.07461
  20299457.5734  -13534733.17446  -9594873.22261
  19452803.8394  -20442573.49746 -15687332.71661
 97  1  8  2 10 59.9910000  0  6G 2G 7G27G26G 9G 4
  19142070.4254  -10852442.59647  -8406333.75762
  18014523.3004  -17466645.29647 -13510472.55763
  20971006.362     3475044.084 5   2775536.83521
  20697476.8554  -13989423.16646 -10529714.27061
  20273158.2924  -13672915.02346  -9702547.37661
  19426852.792   -20578942.328 6 -15793594.12021
 97  1  8  2 11 29.9910000  0  6G 2G 7G27G26G 9G 4
  19138641.0974  -10870462.28047  -8420375.07562
  18012278.9644  -17478439.60847 -13519662.93164
  20982322.566     3534525.276 5   2821885.79221
  20698621.5974  -13983400.84946 -10525021.57661
  20246916.5034  -13810826.06246  -9810010.50761
  19400970.339   -20714957.969 6 -15899580.30622
 97  1  8  2 11 59.9910000  0  6G 2G 7G27G26G 9G 4
  19135259.7844  -10888241.63847  -8434229.12162
  18010095.1364  -17489902.71047 -13528595.21964
  20993682.566     3594201.558 5   2868386.75821
  20699825.2924  -13977068.17446 -10520087.02461
  20220725.9334  -13948465.62046  -9917262.10961
  19375159.3234  -20850592.91246 -16005269.85361
 97  1  8  2 12 29.9910000  0  6G 2G 7G27G26G 9G 4
  19131915.4094  -10905821.00647  -8447927.34362
  18007973.8864  -17501039.36147 -13537273.12963
  21005076.6284    3654072.58445   2915039.50461
  20701089.1204  -13970420.15746 -10514906.74561
  20194581.5034  -14085847.73146 -10024313.09861
  19349418.964   -20985861.336 6 -16110673.78721
 97  1  8  2 12 59.9910000  0  7G 2G 7G24G27G26G 9G 4
  19128599.7924  -10923229.95747  -8461492.76862
  18005917.5114  -17511857.09847 -13545702.54264
  21787269.4644         -0.94554
  21016508.417     3714138.218 5   2961843.88221
  20702417.7844  -13963463.91246 -10509486.30461
  20168485.2764  -14222988.00846 -10131175.64261
  19323741.722   -21120794.543 6 -16215816.51622
 97  1  8  2 13 29.9910000  0  7G 2G 7G24G27G26G 9G 4
  19125319.3234  -10940465.80247  -8474923.30062
  18003920.9334  -17522356.14447 -13553883.61064
  21756775.0034    -160252.44644        -0.34471
  21027975.8314    3774417.05345   3008814.38861
  20703800.105   -13956190.516 5 -10503818.73221
  20142441.2374  -14359861.64146 -10237830.41461
  19298131.558   -21255374.414 7 -16320683.91521
 97  1  8  2 13 59.9910000  0  7G 2G 7G24G27G26G 9G 4
  19122074.8234  -10957525.50347  -8488216.57762
  18001978.4804  -17532551.64647 -13561828.16364
  21726284.480     -320496.596 4   -124865.84521
  21039485.3864    3834898.49345   3055942.77061
  20705239.9174  -13948627.85146 -10497925.76061
  20116442.9254  -14496469.65646 -10344278.20261
  19272590.737   -21389600.309 7 -16425275.49722
 97  1  8  2 14 29.9910000  0  7G 2G 7G24G27G26G 9G 4
  19118865.6284  -10974386.83747  -8501355.28462
  18000100.3704  -17542436.07447 -13569530.31464
  21695792.831     -480740.512 5   -249731.15621
  21051026.4094    3895555.13944   3103207.66361
  20706733.9644  -13940773.17746 -10491805.24461
  20090499.3554  -14632794.96846 -10450505.70061
  19247115.8784  -21523474.70347 -16529593.18862
 97  1  8  2 14 59.9910000  0  7G 2G 7G24G27G26G 9G 4
  19115699.9014  -10991020.59347  -8514316.65562
  17998277.1124  -17552006.52147 -13576987.80463
  21665301.167     -640989.054 5   -374600.09221
  21062602.730     3956377.342 5   3150601.57321
  20708281.7064  -13932637.10946 -10485465.44761
  20064615.7304  -14768826.55446 -10556504.32861
  19221706.5504  -21656982.86746 -16633625.51661
 97  1  8  2 15 29.9900000  0  7G 2G 7G24G27G26G 9G 4
  19112581.4434  -11007417.93847  -8527093.81462
  17996514.8894  -17561267.68447 -13584204.29263
  21634793.6234    -801260.68745   -499487.03161
  21074204.8504    4017354.11545   3198115.91961
  20709880.389   -13924228.619 6 -10478913.39621
  20038789.3504  -14904549.77946 -10662262.67861
  19196373.2874  -21790123.31447 -16737371.29461
 97  1  8  2 15 59.9900000  0  7G 2G 7G24G27G26G 9G 4
  19109508.1154  -11023558.86147  -8539671.16462
  17994817.0294  -17570207.82147 -13591170.62764
  21604289.975     -961571.255 5   -624404.27821
  21085837.225     4078501.084 5   3245762.94021
  20711532.779   -13915533.517 5 -10472137.97521
  20013019.9044  -15039958.91546 -10767776.28161
  19171105.3814  -21922895.53947 -16840830.16362
 97  1  8  2 16 29.9900000  0  7G 2G 7G24G27G26G 9G 4
  19106485.2324  -11039450.01447  -8552053.88662
  17993169.8424  -17578850.90747 -13597905.50064
  21573768.4514   -1121924.52344   -749354.81061
  21097508.373     4139810.057 5   3293536.13021
  20713241.8894  -13906558.11646 -10465144.16361
  19987315.287   -15175053.370 6 -10873044.66821
  19145912.2174  -22055301.32047 -16944003.47962
 97  1  8  2 16 59.9900000  0  7G 2G 7G24G27G26G 9G 4
  19103511.4904  -11055092.61547  -8564242.93562
  17991577.3574  -17587208.02547 -13604417.53664
  21543252.9594   -1282314.76944   -874334.14861
  21109209.865     4201314.363 5   3341461.54421
  20715005.232   -13897298.978 5 -10457929.26221
  19961666.1704  -15309833.38946 -10978068.06361
  19120786.9364  -22187336.60347 -17046888.09962
 97  1  8  2 17 29.9900000  0  7G 2G 7G24G27G26G 9G 4
  19100578.4514  -11070488.60047  -8576239.82262
  17990042.4674  -17595288.48247 -13610714.00164
  21512728.1544   -1442718.29944   -999323.86661
  21120954.1234    4263025.51545   3389548.15761
  20716823.1314  -13887752.89846 -10450490.75761
  19936076.6544  -15444302.93446 -11082849.51761
  19095732.975   -22318992.661 7 -17149477.21722
 97  1  8  2 17 59.9900000  0  7G 2G 7G24G27G26G 9G 4
  19097688.6474  -11085652.12247  -8588055.55762
  17988555.1864  -17603108.39247 -13616807.43964
  21482204.3344   -1603118.56245  -1124311.02461
  21132729.154     4324919.121 5   3437776.93721
  20718693.1474  -13877940.24345 -10442844.54961
  19910543.7174  -15578489.07046 -11187410.13761
  19070754.2484  -22450256.00247 -17251760.33162
 97  1  8  2 18 29.9900000  0  7G 2G 7G24G27G26G 9G 4
  19094847.0534  -11100608.52047  -8599709.90162
  17987111.8034  -17610680.48747 -13622707.76763
  21451683.193    -1763506.044 5  -1249288.25521
  21144539.053     4386974.284 5   3486131.58221
  20720601.529   -13867881.019 5 -10435006.20521
  19885054.5684  -15712423.25846 -11291774.43161
  19045849.0764  -22581138.69047 -17353746.82461
 97  1  8  2 18 59.9900000  0  7G 2G 7G24G27G26G 9G 4
  19092040.3894  -11115360.17547  -8611204.70962
  17985720.7874  -17617988.32547 -13628402.19063
  21421171.420    -1923851.814 4  -1374232.96521
  21156379.0064    4449199.98945   3534619.14361
  20722567.5764  -13857552.37946 -10426957.92661
  19859620.0924  -15846090.33946 -11395930.60061
  19021019.0454  -22711619.18447 -17455419.93461
 97  1  8  2 19 29.9900000  0  7G 2G 7G24G27G26G 9G 4
  19089272.3974  -11129915.74947  -8622546.72762
  17984381.2174  -17625029.38547 -13633888.72664
  21390672.2094   -2084138.09545  -1499131.33461
  21168250.9674    4511564.10245   3583214.54361
  20724589.311   -13846952.486 5 -10418698.27721
  19834236.1784  -15979482.28746 -11499872.37761
  18996265.4824  -22841697.64747 -17556779.76462
 97  1  8  2 19 59.9900000  0  7G 2G 7G24G27G26G 9G 4
  19086536.3034  -11144293.14547  -8633749.90262
  17983091.1784  -17631805.51447 -13639168.82764
  21360182.1394   -2244374.56345  -1623990.89361
  21180140.740     4574050.438 5   3631905.17221
  20726653.982   -13836090.885 5 -10410234.72421
  19808906.9364  -16112594.05846 -11603595.82861
  18971581.8894  -22971402.05147 -17657848.11462
 97  1  8  2 20 29.9900000  0  7G 2G 7G24G27G26G 9G 4
  19083833.2094  -11158483.69647  -8644807.47762
  17981852.5144  -17638311.58647 -13644238.49164
  21329699.5924   -2404563.56645  -1748813.47361
  21192056.4434    4636672.86545   3680701.84961
  20728772.4364  -13824957.10245 -10401559.04661
  19783636.3114  -16245392.99846 -11707075.51861
  18946968.9514  -23100750.75447 -17758639.29462
 97  1  8  2 20 59.9900000  0  7G 2G 7G24G27G26G 9G 4
  19081176.1864  -11172459.32247  -8655697.58562
  17980668.5764  -17644535.66847 -13649088.42064
  21299222.0764   -2564706.31744  -1873600.01261
  21203995.764     4699427.026 4   3729601.19821
  20730940.092   -13813559.162 5 -10392677.55521
  19758430.8184  -16377849.85346 -11810288.65061
  18922423.631   -23229743.577 7 -17859153.15322
 97  1  8  2 21 29.9900000  0  7G 2G 7G24G27G26G 9G 4
  19078559.4514  -11186197.45147  -8666402.62462
  17979538.5534  -17650468.37447 -13653711.30663
  21268759.0684   -2724811.67745  -1998357.41361
  21215962.693     4762309.705 4   3778600.66121
  20733156.600   -13801922.344 5 -10383609.90421
  19733287.4754  -16509975.22046 -11913243.48261
  18897942.654   -23358380.570 7 -17959389.74821
 97  1  8  2 21 59.9900000  0  7G 2G 7G24G27G26G 9G 4
  19075991.9284  -11199692.69947  -8676918.41162
  17978464.2484  -17656124.85047 -13658118.94663
  21238293.0764   -2884902.01345  -2123103.10461
  21227958.1544    4825336.95444   3827712.78661
  20735410.5764  -13790065.60745 -10374370.91361
  19708207.2874  -16641768.67446 -12015939.67661
  18873534.881   -23486643.819 7 -18059335.11321
 97  1  8  2 22 29.9900000  0  7G 2G 7G24G27G26G 9G 4
  19073471.6154  -11212938.34147  -8687239.70062
  17977440.2094  -17661508.98947 -13662314.38564
  21207831.545    -3044974.939 5  -2247835.25821
  21239978.9284    4888519.35544   3876945.82461
  20737708.873   -13777992.826 5 -10364963.54521
  19683191.0144  -16773232.64646 -12118379.13461
  18849205.670   -23614500.112 7 -18158963.37622
 97  1  8  2 22 59.9900000  0  7G 2G 7G24G27G26G 9G 4
  19070994.0534  -11225951.44847  -8697379.79162
  17976464.5374  -17666636.66447 -13666309.97463
  21177374.107    -3205037.665 5  -2372559.46121
  21252034.982     4951851.265 4   3926295.34921
  20740046.1544  -13765713.26645 -10355395.05961
  19658233.1544  -16904393.11046 -12220582.08861
  18824957.9754  -23741924.44247 -18258255.04462
 97  1  8  2 23 29.9900000  0  7G 2G 7G24G27G26G 9G 4
  19068560.5684  -11238741.29547  -8707345.91262
  17975539.6234  -17671507.14047 -13670105.15864
  21146914.1314   -3365066.55845  -2497257.29061
  21264113.764     5015352.696 4   3975776.95421
  20742422.975   -13753201.268 5 -10345645.49121
  19633330.6394  -17035244.66946 -12322544.34261
  18800798.4674  -23868887.39547 -18357187.20262
 97  1  8  2 23 59.9900000  0  7G 2G 7G24G27G26G 9G 4
  19066163.8034  -11251327.97647  -8717153.72262
  17974660.6004  -17676127.05847 -13673705.09564
  21116470.3654   -3525055.56845  -2621924.04861
  21276230.4824    5079008.27944   4025378.67461
  20744853.7094  -13740456.02445 -10335714.13061
  19608494.3034  -17165776.59846 -12424257.53561
  18776723.4364  -23995390.09547 -18455760.72862
 97  1  8  2 24 29.9900000  0  7G 2G 7G24G27G26G 9G 4
  19063813.7174  -11263696.90947  -8726791.86062
  17973832.0844  -17680460.68747 -13677081.94864
  21086046.240    -3684964.598 5  -2746528.47921
  21288372.740     5142818.531 4   4075100.95221
  20747323.912   -13727457.020 5 -10325585.05221
  19583716.2724  -17295971.39646 -12525708.02761
  18752740.2794  -24121429.81347 -18553973.47762
 97  1  8  2 24 59.9900000  0  7G 2G 7G24G27G26G 9G 4
  19061497.7874  -11275856.57547  -8736266.93062
  17973061.3574  -17684514.95547 -13680241.12064
  21055630.3504   -3844799.87845  -2871075.45261
  21300537.9594    5206752.44443   4124919.56161
  20749848.951   -13714213.828 5 -10315265.68321
  19559002.1474  -17425840.50646 -12626904.73161
  18728838.9434  -24247038.22747 -18651850.15262
 97  1  8  2 25 29.9900000  0  7G 2G 7G24G27G26G 9G 4
  19059225.600   -11287797.185 7  -8745571.32122
  17972348.0064  -17688281.20247 -13683175.85964
  21025227.7484   -4004554.60445  -2995559.64261
  21312727.365     5270792.054 3   4174820.51721
  20752412.076   -13700723.867 5 -10304754.04021
  19534354.7954  -17555374.24446 -12727840.12561
  18705013.5144  -24372231.98647 -18749403.71962
 97  1  8  2 25 59.9900000  0  7G 2G 7G24G27G26G 9G 4
  19056999.029   -11299499.801 7  -8754690.25122
  17971684.5374  -17691760.05547 -13685886.64964
  20994842.404    -4164246.489 5  -3119994.89421
  21324931.4364    5334933.93043   4224801.20061
  20755024.2794  -13686998.20945 -10294058.75261
  19509771.2874  -17684573.81046 -12828515.09861
  18681267.8504  -24497018.54847 -18846639.98662
 97  1  8  2 26 29.9900000  0  7G 2G 7G24G27G26G 9G 4
  19054817.8734  -11310966.75347  -8763625.56162
  17971069.0294  -17694978.92847 -13688394.86064
  20964458.3264   -4323900.41245  -3244400.52761
  21337154.7094    5399171.15543   4274856.13761
  20757679.4284  -13673050.86445 -10283190.69561
  19485241.6074  -17813461.98146 -12928947.44961
  18657594.9434  -24621416.55947 -18943573.49162
 97  1  8  2 26 59.9900000  0  7G 2G 7G24G27G26G 9G 4
  19052676.3264  -11322192.21147  -8772372.69162
  17970509.6704  -17697949.56947 -13690709.63964
  20934084.1934   -4483534.37545  -3368790.60961
  21349395.2254    5463508.13743   4324988.83061
  20760376.803   -13658880.742 5 -10272149.05421
  19460776.6544  -17942036.75546 -13029135.58261
  18634000.1474  -24745409.24447 -19040191.15462
 97  1  8  2 27 29.9900000  0  7G 2G 7G24G27G26G 9G 4
  19050592.6004  -11333182.42847  -8780936.50862
  17969981.0764  -17700699.91547 -13692852.76964
  20903706.0534   -4643167.81845  -3493180.31361
  21361661.6074    5527944.75743   4375199.12061
  20763111.4284  -13644510.27545 -10260951.30661
  19436363.7484  -18070306.17246 -13129085.77761
  18610483.3504  -24868993.45547 -19136490.52862
 97  1  8  2 27 59.9900000  0  7G 2G 7G24G27G26G 9G 4
  19048548.6394  -11343916.44147  -8789300.68462
  17969498.4124  -17703226.45947 -13694821.49964
  20873332.303    -4802776.569 5  -3617550.74821
  21373939.623     5592519.229 3   4425516.88821
  20765888.2404  -13629933.84545 -10249593.06361
  19412021.9364  -18198238.75746 -13228773.50361
  18587050.4044  -24992135.38547 -19232445.26262
 97  1  8  2 28 29.9900000  0  7G 2G 7G24G27G26G 9G 4
  19046550.8504  -11354404.73047  -8797473.39062
  17969061.2794  -17705537.78247 -13696622.53464
  20842963.951    -4962338.542 5  -3741884.72721
  21386260.6704    5657227.57043   4475938.93561
  20768700.5684  -13615152.39145 -10238075.04761
  19387739.5064  -18325824.08846 -13328190.64361
  18563703.162   -25114828.463 7 -19328050.24722
 97  1  8  2 28 59.9900000  0  7G 2G 7G24G27G26G 9G 4
  19044603.6784  -11364644.64147  -8805452.55862
  17968662.8344  -17707626.62747 -13698250.21064
  20812618.381    -5121831.957 5  -3866165.26621
  21398602.9204    5722065.10543   4526461.68561
  20771547.037   -13600171.702 5 -10226401.82021
  19363530.7094  -18453050.73946 -13427328.28661
  18540442.2324  -25237064.97547 -19423299.46362
 97  1  8  2 29 29.9900000  0  7G 2G 7G24G27G26G 9G 4
  19042703.2094  -11374637.53147  -8813239.24562
  17968311.2724  -17709487.24647 -13699700.04464
  20782284.9674   -5281231.28845  -3990372.51861
  21410964.0374    5787028.01643   4577082.06661
  20774434.936   -13585002.998 6 -10214582.06221
  19339392.6784  -18579909.78146 -13526179.49361
  18517266.3184  -25358855.55947 -19518201.20362
 97  1  8  2 29 59.9900000  0  7G 2G 7G24G27G26G 9G 4
  19040842.1544  -11384394.00847  -8820841.71262
  17968002.0684  -17711102.43347 -13700958.62364
  20751977.576    -5440518.763 5  -4114492.57621
  21423347.7874    5852099.27743   4627786.96261
  20777356.420   -13569652.802 6 -10202620.88721
  19315321.3734  -18706400.64346 -13624743.79861
  18494175.475   -25480203.330 7 -19612757.89222
 97  1  8  2 30 29.9890000  0  7G 2G 7G24G27G26G 9G 4
  19039030.3764  -11393920.49247  -8828264.96162
  17967745.8294  -17712454.91647 -13702012.50764
  20721687.720    -5599682.487 5  -4238516.20521
  21435745.6654    5917260.07243   4678561.53261
  20780310.8144  -13554112.90046 -10190511.87861
  19291319.4934  -18832525.66946 -13723023.03561
  18471165.962   -25601116.680 7 -19706976.06522
 97  1  8  2 30 59.9890000  0  7G 2G 7G24G27G26G 9G 4
  19037262.1574  -11403222.28447  -8835513.12862
  17967537.7904  -17713542.07947 -13702859.64764
  20691419.821    -5758741.263 5  -4362458.07921
  21448163.829     5982514.815 3   4729409.39321
  20783305.5404  -13538385.21445 -10178256.54761
  19267387.8534  -18958298.13546 -13821027.55561
  18448235.4074  -25721600.51147 -19800859.55462
 97  1  8  2 31 29.9890000  0  7G 2G 7G24G27G26G 9G 4
  19035530.1894  -11412321.91847  -8842603.77362
  17967374.7744  -17714395.25347 -13703524.44964
  20661168.1104   -5917718.98345  -4486336.80061
  21460587.5244    6047847.08342   4780317.60961
  20786334.9154  -13522474.17845 -10165858.33161
  19243518.2744  -19083721.38646 -13918759.96361
  18425393.3684  -25841657.00147 -19894410.04962
 97  1  8  2 31 59.9890000  0  7G 2G 7G24G27G26G 9G 4
  19033837.8604  -11421217.65147  -8849535.52562
  17967257.3994  -17715032.55147 -13704021.05063
  20630928.5484   -6076628.30045  -4610162.21761
  21473041.314     6113264.102 3   4831291.87221
  20789399.181   -13506367.171 5 -10153307.44421
  19219719.3534  -19208794.66946 -14016219.65661
  18402629.6264  -25961270.42447 -19987615.30662
 97  1  8  2 32 29.9890000  0  7G 2G 7G24G27G26G 9G 4
  19032189.4464  -11429889.85947  -8856293.11161
  17967174.8994  -17715451.00847 -13704347.11963
  20600698.7204   -6235470.87145  -4733935.61661
  21485512.751     6178792.351 3   4882352.81521
  20792504.1184  -13490045.59045 -10140589.33661
  19195987.1344  -19333497.67446 -14113390.83061
  18379957.2514  -26080424.76447 -20080462.82362
 97  1  8  2 32 59.9890000  0  7G 2G 7G24G27G26G 9G 4
  19030580.5794  -11438323.40647  -8862864.72462
  17967138.7904  -17715657.77247
  20570482.4234   -6394250.90445  -4857660.29961
  21498003.564     6244431.925 3
  20795648.7594  -13473518.17245 -10127710.83261
  19172327.3454  -19457831.37946 -14210274.23161
  18357371.798   -26199104.607 7 -20172940.60122
 97  1  8  2 33 29.9890000  0  6G 2G 7G24G26G 9G 4
  19029025.587   -11446508.061 7  -8869242.39621
  17967139.7284  -17715650.43447
  20540289.251    -6552952.109 5  -4981323.55821
  20798831.9074  -13456788.74645 -10114674.90861
  19148742.9704  -19581787.79746 -14306863.65361
  18334877.5794  -26317302.03247 -20265042.47462
 97  1  8  2 33 59.9890000  0  7G 2G 7G24G 5G26G 9G 4
  19027516.7674  -11454442.19247  -8875424.85062
  17967183.353   -17715407.425 7
  20510107.673    -6711556.968 5  -5104911.72621
  21558437.3534    -131767.75644
  20802054.1964  -13439871.91845 -10101492.99261
  19125221.5564  -19705378.17746 -14403167.84361
  18312479.673   -26435018.499 7 -20356769.56322
 97  1  8  2 34 29.9890000  0  7G 2G 7G24G 5G26G 9G 4
  19026050.407   -11462132.674 7  -8881417.45522
  17967276.6894  -17714921.44447 -13703934.46463
  20479945.274    -6870049.210 5  -5228412.13621
  21533363.478     -263557.513 4
  20805306.8534  -13422786.98945 -10088180.07761
  19101772.7594  -19828606.94646 -14499190.25461
  18290169.0174  -26552262.87747 -20448128.81162
 97  1  8  2 34 59.9890000  0  7G 2G 7G24G 5G26G 9G 4
  19024633.7594  -11469586.23447  -8887225.44061
  17967411.6894  -17714194.62147 -13703368.11163
  20449811.689    -7028410.285 5  -5351810.38221
  21508278.376     -395364.026 4        -0.48631
  20808586.7044  -13405536.66645 -10074738.28161
  19078392.4934  -19951467.77946 -14594925.96261
  18267950.321   -26669018.621 7 -20539107.28622
 97  1  8  2 35 29.9890000  0  7G 2G 7G24G 5G26G 9G 4
  19023259.5244  -11476812.65647  -8892856.43261
  17967594.3924  -17713233.15947 -13702618.91363
  20419701.954    -7186632.937 5  -5475100.73821
  21483193.774     -527179.581 3   -102713.90721
  20811900.462   -13388112.661 5 -10061161.12321
  19055086.5244  -20073945.16047 -14690362.88461
  18245822.5794  -26785293.65947 -20629711.18762
 97  1  8  2 35 59.9890000  0  7G 2G 7G24G 5G26G 9G 4
  19021926.2904  -11483804.77747  -8898304.84661
  17967825.1734  -17712033.38247 -13701684.02463
  20389614.384    -7344725.116 5  -5598289.42121
  21458109.298     -659001.981 4   -205432.59021
  20815253.267   -13370503.533 5 -10047439.72021
  19031855.7354  -20196031.73447 -14785495.27162
  18223788.0644  -26901089.09147 -20719941.37062
 97  1  8  2 36 29.9890000  0  7G 2G 7G24G 5G26G 9G 4
  19020641.4154  -11490555.82847  -8903565.42261
  17968099.7044  -17710602.52247 -13700569.07063
  20359554.6734   -7502688.79345  -5721377.97761
  21433027.3064    -790818.32044   -308146.62961
  20818638.1654  -13352708.58245 -10033573.52461
  19008700.9074  -20317718.06747 -14880315.79461
  18201843.6574  -27016406.85747 -20809799.35662
 97  1  8  2 36 59.9890000  0  7G 2G 7G24G 5G26G 9G 4
  19019404.0404  -11497065.59347  -8908637.98961
  17968409.3064  -17708956.41747 -13699286.39863
  20329519.2744   -7660544.22245  -5844382.19361
  21407940.626     -922635.207 3   -410861.08021
  20822061.634   -13334732.590 5 -10019566.28121
  18985617.3994  -20439008.55347 -14974827.85761
  18179987.0404  -27131261.62047 -20899296.55862
 97  1  8  2 37 29.9890000  0  7G 2G 7G24G 5G26G 9G 4
  19018215.4784  -11503316.28947  -8913508.67461
  17968764.3064  -17707090.62247 -13697832.52563
  20299499.9784   -7818286.00345  -5967297.84761
  21382858.1574   -1054450.00944   -513573.87361
  20825512.2674  -13316576.34244 -10005418.58761
  18962610.0404  -20559902.69347 -15069031.09062
  18158221.493   -27245658.610 7 -20988437.04822
 97  1  8  2 37 59.9890000  0  7G 2G 7G24G 5G26G 9G 4
  19017070.0014  -11509318.92447  -8918186.06661
  17969165.4854  -17704996.74647 -13696200.93663
  20269509.626    -7975912.163 5  -6090123.39121
  21357769.5564   -1186283.56644   -616301.34161
  20828996.259   -13298271.414 5  -9991155.01621
  18939678.2984  -20680414.47447 -15162936.37262
  18136541.4074  -27359585.17747 -21077210.98762
 97  1  8  2 38 29.9890000  0  7G 2G 7G24G 5G26G 9G 4
  19015976.0564  -11515076.33247  -8922672.36761
  17969607.4854  -17702667.81747 -13694386.19063
  20239534.9624   -8133403.60845  -6212843.97061
  21332682.353    -1318136.548 4   -719043.90721
  20832507.2124  -13279832.29945  -9976786.89561
  18916821.6494  -20800539.65247 -15256540.40962
  18114951.3844  -27473026.57347 -21165606.85962
 97  1  8  2 38 59.9890000  0  7G 2G 7G24G 5G26G 9G 4
  19014926.3214  -11520604.93247  -8926980.38161
  17970086.5324  -17700136.96147 -13692414.09363
  20209587.423    -8290784.157 5  -6335478.13521
  21307581.337    -1450034.269 4   -821821.31321
  20836034.0404  -13261283.63045  -9962333.39761
  18894030.7904  -20920293.51047 -15349855.09762
  18093457.9234  -27585985.74747 -21253626.97262
 97  1  8  2 39 29.9890000  0  7G 2G 7G24G 5G26G 9G 4
  19013913.8764  -11525913.00346  -8931116.54761
  17970607.4624  -17697402.95347 -13690283.69263
  20179659.1734   -8448055.02945  -6458026.83261
  21282471.2594   -1581977.72444   -924634.39061
  20839583.017   -13242638.018 5  -9947804.37921
  18871315.2904  -21039680.60647 -15442884.00262
  18072054.6104  -27698448.84747 -21341260.53462
 97  1  8  2 39 59.9890000  0  7G 2G 7G24G 5G26G 9G 4
  19012946.2744  -11530994.50846  -8935076.17961
  17971171.6184  -17694463.67347 -13687993.33963
  20149755.149    -8605209.704 5  -6580484.99221
  21257361.9154   -1713961.77644  -1027479.08561
  20843152.0954  -13223891.88645  -9933197.00061
  18848664.5094  -21158685.43247 -15535615.03662
  18050752.4464  -27810407.07347 -21428500.68962
 97  1  8  2 40 29.9890000  0  7G 2G 7G24G 5G26G 9G 4
  19012028.8994  -11535823.08446  -8938838.71561
  17971764.5794  -17691335.85647 -13685556.08263
  20119869.321    -8762246.860 5  -6702851.54921
  21232238.2434   -1845958.75444  -1130333.83761
  20846745.853   -13205017.319 5  -9918489.56621
  18826099.5794  -21277287.79547 -15628032.46561
  18029540.1814  -27921867.16847 -21515352.69862
 97  1  8  2 40 59.9890000  0  7G 2G 7G24G 5G26G 9G 4
  19011155.9154  -11540396.14346  -8942402.14861
  17972393.6734  -17688031.50347 -13682981.25963
  20090014.5644   -8919156.77545  -6825118.98261
  21207118.9074   -1977970.80044  -1233200.35761
  20850362.032   -13185994.764 5  -9903666.75121
  18803610.5954  -21395465.57947 -15720119.05161
  18008422.595   -28032832.999 7 -21601819.56322
 97  1  8  2 41 29.9890000  0  7G 2G 7G24G 5G26G 9G 4
  19010335.618   -11544717.146 6  -8945769.19221
  17973058.4544  -17684527.74047 -13680251.06163
  20060180.196    -9075917.510 5  -6947270.17121
  21181994.2044   -2110004.33444  -1336083.59561
  20854014.3454  -13166815.33744  -9888721.74361
  18781202.6494  -21513197.31147 -15811858.06761
  17987404.5794  -28143302.19947 -21687899.43562
 97  1  8  2 41 59.9890000  0  7G 2G 7G24G 5G26G 9G 4
  19009562.720   -11548786.642 6  -8948940.25821
  17973760.6734  -17680838.99647 -13677376.71663
  20030377.626    -9232531.273 5  -7069306.82921
  21156861.790    -2242075.102 5  -1438995.87221
  20857691.6734  -13147477.87644  -9873653.59661
  18758886.6264  -21630481.93447 -15903248.68461
  17966474.7824  -28253279.74047 -21773596.21862
 97  1  8  2 42 29.9890000  0  7G 2G 7G24G 5G26G 9G 4
  19008834.181   -11552614.146 6  -8951922.74821
  17974498.6734  -17676966.79847 -13674359.42263
  20000601.673    -9389005.194 5  -7191234.53121
  21131721.2904   -2374186.40744  -1541939.72861
  20861398.2904  -13127992.85143  -9858470.51461
  18736652.8064  -21747329.97347 -15994299.10762
  17945640.7674  -28362761.00747 -21858906.28462
 97  1  8  2 42 59.9890000  0  7G 2G 7G24G 5G26G 9G 4
  19008149.314   -11556205.023 6  -8954720.85721
  17975276.8994  -17672892.70547 -13671184.80663
  19970856.5874   -9545331.74546  -7313047.40461
  21106572.735    -2506348.497 4  -1644923.13921
  20865132.720   -13108372.191 4  -9843181.73521
  18714497.5564  -21863752.62347 -16085018.06362
  17924905.4154  -28471722.99447 -21943811.72062
 97  1  8  2 43 29.9890000  0  7G 2G 7G24G 5G26G 9G 4
  19007511.4394  -11559557.27246  -8957333.00361
  17976089.0564  -17668609.04047 -13667846.88263
  19941130.454    -9701526.274 5  -7434757.41021
  21081416.610    -2638546.733 4  -1747934.70921
  20868886.4394  -13088638.10844  -9827804.53561
  18692417.9934  -21979780.91347 -16175429.70962
  17904272.2984  -28580159.41847 -22028307.61662
 97  1  8  2 43 59.9890000  0  7G 2G 7G24G 5G26G 9G 4
  19006921.220   -11562651.607 6  -8959744.19221
  17976942.4154  -17664118.93747 -13664348.10463
  19911438.603    -9857587.514 6  -7556363.53721
  21056258.3374   -2770762.81745  -1850960.22461
  20872665.524   -13068792.277 4  -9812340.28621
  18670410.5484  -22095428.52647 -16265544.73461
  17883736.6574  -28688068.73547 -22112392.78762
 97  1  8  2 44 29.9890000  0  7G 2G 7G24G 5G26G 9G 4
  19006381.7824  -11565490.14146  -8961956.05061
  17977839.8214  -17659415.38047 -13660682.99463
  19881764.3534  -10013497.40846  -7677851.75261
  21031094.1654   -2902976.02644  -1953983.45261
  20876466.5564  -13048827.19744  -9796783.09861
  18648479.7744  -22210685.74947 -16355355.55361
  17863302.5714  -28795451.68447 -22196067.80162
 97  1  8  2 44 59.9890000  0  7G 2G 7G24G 5G26G 9G 4
  19005888.7904  -11568081.12146  -8963975.00361
  17978772.8684  -17654504.09547 -13656856.01363
  19852127.7674  -10169244.35946  -7799213.00161
  21005941.5874   -3035181.09645  -2057000.39761
  20880288.9234  -13028742.46044  -9781132.65961
  18626621.8764  -22325545.90647 -16444856.97462
  17842965.689   -28902314.540 7 -22279337.53422
 97  1  8  2 45 29.9890000  0  7G 2G 7G24G 5G26G 9G 4
  19005445.392   -11570419.165 6  -8965796.88821
  17979746.7124  -17649386.10647 -13652867.98063
  19822524.9074  -10324816.88546  -7920438.32561
  20980782.939    -3167373.642 5  -2160007.58521
  20884128.0714  -13008533.35745  -9765385.34561
  18604841.2904  -22439992.02347 -16534035.77562
  17822729.1654  -29008672.98247 -22362214.23362
 97  1  8  2 45 59.9880000  0  7G 2G 7G24G 5G26G 9G 4
  19005044.6604  -11572521.80746  -8967435.32761
  17980753.8014  -17644090.50847 -13648741.54163
  19792954.481   -10480213.814 6  -8041526.82421
  20955624.2544   -3299576.29845  -2263022.59761
  20888000.379   -12988219.581 5  -9749556.39621
  18583142.3714  -22554023.52147 -16622891.49162
  17802582.434   -29114547.973 7 -22444714.21522
 97  1  8  2 46 29.9880000  0  7G 2G 7G24G 5G26G 9G 4
  19004685.957   -11574414.005 6  -8968909.78021
  17981793.3634  -17638638.48647 -13644493.20363
  19763412.082   -10635450.335 6  -8162490.32221
  20930463.606    -3431805.569 5  -2366058.37321
  20891884.371   -12967820.536 5  -9733661.05821
  18561521.6454  -22667654.18647 -16711434.86162
  17782522.9424  -29219947.42547 -22526843.63963
 97  1  8  2 46 59.9880000  0  7G 2G 7G24G 5G26G 9G 4
  19004368.6454  -11576082.28546  -8970209.75161
  17982861.4654  -17633024.01347 -13640118.29763
  19733905.9654  -10790509.03246  -8283315.27361
  20905296.9424   -3564062.33445  -2469115.59761
  20895776.301   -12947351.177 5  -9717710.88721
  18539972.4814  -22780876.21347 -16799659.81762
  17762561.9814  -29324853.88447 -22608588.92063
 97  1  8  2 47 29.9880000  0  7G 2G 7G24G 5G26G 9G 4
  19004093.652   -11577505.831 6  -8971319.03321
  17983959.9734  -17627249.46847 -13635618.64563
  19704431.4104  -10945392.42146  -8404003.63361
  20880120.4654   -3696347.93945  -2572195.30761
  20899687.9814  -12926805.89244  -9701701.53661
  18518508.8634  -22893688.24247 -16887565.29662
  17742692.0044  -29429258.79047 -22689943.38363
 97  1  8  2 47 59.9880000  0  7G 2G 7G24G 5G26G 9G 4
  19003873.8404  -11578680.51646  -8972234.39361
  17985089.1924  -17621314.33847 -13630993.86863
  19674992.5514  -11100098.77646  -8524554.01961
  20854948.9104   -3828654.80545  -2675291.54861
  20903605.293   -12906183.161 3  -9685631.90221
  18497115.1524  -23006079.35747 -16975142.78361
  17722928.6064  -29533129.01247 -22770881.19563
 97  1  8  2 48 29.9880000  0  7G 2G 7G24G 5G26G 9G 4
  19003699.6924  -11579587.76346  -8972941.35961
  17986253.5354  -17615201.61647 -13626230.71263
  19645587.9654  -11254613.22546  -8644954.89461
  20829764.5044   -3960963.64645  -2778389.32061
  20907548.074   -12885467.389 3
  18475819.3014  -23118023.30547 -17062371.83562
  17703266.7854  -29636437.23847 -22851381.10262
 97  1  8  2 48 59.9880000  0  7G 2G 7G24G 5G26G 9G 4
  19003585.4734  -11580212.93846  -8973428.51961
  17987449.4264  -17608897.50247 -13621318.41263
  19616223.6924  -11408941.73846  -8765210.88761
  20804592.5124   -4093274.20645  -2881488.43961
  20911510.9024  -12864652.77043        -0.10471
  18454602.0904  -23229502.94047 -17149239.08362
  17683718.0904  -29739185.57247 -22931444.72762
 97  1  8  2 49 29.9880000  0  7G 2G 7G24G 5G26G 9G 4
  19003515.957   -11580558.196 6
  17988688.4264  -17602401.56647 -13616256.64663
  19586884.0274  -11563110.19046  -8885342.14461
  20779411.4424   -4225581.24745  -2984584.81061
  20915492.785   -12843744.657 2     16291.93721
  18433477.2854  -23340515.49647 -17235742.36862
  17664270.7464  -29841380.76247 -23011077.32463
 97  1  8  2 49 59.9880000  0  7G 2G 7G24G 5G26G 9G 4
  19003501.754   -11580623.232 6
  17989964.3954  -17595701.58147 -13611035.87763
  19557581.496   -11717098.095 6  -9005332.73321
  20754242.6924   -4357862.12245  -3087660.78561
  20919485.231   -12822741.846 2     32657.72821
  18412447.0984  -23451037.43047 -17321863.35162
  17644927.9424  -29943014.00047 -23090272.04163
 97  1  8  2 50 29.9880000  0  7G 2G 7G24G 5G26G 9G 4
  19003541.793   -11580426.871 6
  17991272.2934  -17588816.99847 -13605671.27863
  19528313.1214  -11870923.80746  -9125196.93261
  20729066.9024   -4490138.51144  -3190733.27161
  20923495.1454  -12801660.63042     49084.57261
  18391506.1994  -23561089.53247 -17407618.23962
  17625687.0824  -30044125.18147 -23169059.96962
 97  1  8  2 50 59.9880000  0  7G 2G 7G24G 5G26G 9G 4
  19003623.6994  -11579976.47546  -8973244.36361
  17992619.4024  -17581744.79347 -13600160.46863
  19499069.5434  -12024575.72146  -9244925.70961
  20703898.4814   -4622415.38145  -3293806.09461
  20927525.051   -12780483.458 2     65586.29021
  18370652.0204  -23670675.68547 -17493010.04462
  17606546.3094  -30144710.03847 -23247437.76863
 97  1  8  2 51 29.9880000  0  7G 2G 7G24G 5G26G 9G 4
  19003754.8794  -11579293.97246  -8972712.56061
  17993995.6924  -17574505.32747 -13594519.33763
  19469864.0204  -12178050.93046  -9364516.79861
  20678724.238    -4754703.842 5  -3396887.97521
  20931578.184   -12759213.318 3     82160.37921
  18349882.8484  -23779815.70147 -17578054.20762
  17587508.2074  -30244766.97447 -23325404.19763
 97  1  8  2 51 59.9880000  0  7G 2G 7G24G 5G26G 9G 4
  19003932.207   -11578374.031 6  -8971995.75021
  17995405.7314  -17567098.31147 -13588747.63863
  19440699.1924  -12331310.36946  -9483939.74461
  20653549.707    -4887004.222 5  -3499979.12321
  20935642.2464  -12737837.24544     98817.06561
  18329199.4734  -23888506.88747 -17662748.64262
  17568572.1524  -30344273.31647 -23402941.59863
 97  1  8  2 52 29.9880000  0  7G 2G 7G24G 5G26G 9G 4
  19004151.1454  -11577229.84846  -8971104.20761
  17996846.3634  -17559527.90247 -13582848.61863
  19411576.2704  -12484353.37346  -9603194.04061
  20628368.8014   -5019333.27145  -3603092.65461
  20939733.035   -12716360.737 4    115552.02221
  18308598.8324  -23996766.01447 -17747106.39862
  17549740.5274  -30443232.26547 -23480052.45063
 97  1  8  2 52 59.9880000  0  7G 2G 7G24G 5G26G 9G 4
  19004413.0514  -11575856.24046  -8970033.89361
  17998317.2544  -17551790.33647 -13576819.35163
  19382497.3484  -12637164.18646  -9722267.41361
  20603184.6844   -5151671.57945  -3706213.39261
  20943833.7314  -12694799.20544    132353.16561
  18288083.0434  -24104583.20647 -17831119.79062
  17531014.6134  -30541628.20147 -23556724.59262
 97  1  8  2 53 29.9880000  0  7G 2G 7G24G 5G26G 9G 4
  19004719.3404  -11574243.46246  -8968777.20861
  17999819.4424  -17543899.35647 -13570670.53563
  19353459.1214  -12789754.79446  -9841169.19461
  20577998.606    -5284023.631 5  -3809344.82521
  20947944.418   -12673187.521 4    149193.44421
  18267648.6294  -24211956.99747 -17914787.67462
  17512396.0124  -30639471.11847 -23632965.81163
 97  1  8  2 53 59.9880000  0  7G 2G 7G24G 5G26G 9G 4
  19005073.723   -11572375.685 6  -8967321.83721
  18001351.4494  -17535849.52147 -13564397.94663
  19324465.4494  -12942112.93846  -9959889.83861
  20552815.0204   -5416382.28245  -3912481.42561
  20952065.9884  -12651530.86544    166068.75361
  18247302.0984  -24318871.73947 -17998097.86262
  17493881.8404  -30736764.94647 -23708779.17162
 97  1  8  2 54 29.9880000  0  7G 2G 7G24G 5G26G 9G 4
  19005475.9574  -11570258.24746  -8965671.90861
  18002909.9344  -17527658.33947 -13558015.20563
  19295516.4264  -13094261.70846 -10078447.33561
  20527621.9734   -5548760.31145  -4015633.13361
  20956193.1134  -12629848.14843    182964.37861
  18227041.6134  -24425338.17947 -18081058.71862
  17475468.6924  -30833540.54847 -23784188.71863
 97  1  8  2 54 59.9880000  0  7G 2G 7G24G 5G26G 9G 4
  19005935.6374  -11567859.16346  -8963802.50861
  18004496.6844  -17519318.61947 -13551516.72163
  19266604.9964  -13246196.25146 -10196837.89161
  20502424.527    -5681152.740 5  -4118796.05621
  20960327.746   -12608129.053 2    199888.32721
  18206872.2704  -24531341.83147 -18163658.96962
  17457152.2704  -30929779.12947 -23859179.80763
 97  1  8  2 55 29.9880000  0  7G 2G 7G24G 5G26G 9G 4
  19006442.574   -11565182.658 6  -8961716.95021
  18006112.6294  -17510832.72147 -13544904.34263
  19237735.715   -13397910.150 6 -10315056.52421
  20477227.7464   -5813577.17945  -4221983.94061
  20964473.0744  -12586361.05242    216850.39161
  18186785.4734  -24636889.87547 -18245904.19762
  17438945.1064  -31025475.96347 -23933748.75762
 97  1  8  2 55 59.9880000  0  7G 2G 7G24G 5G26G 9G 4
  19006999.3174  -11562243.17046  -8959426.45761
  18007755.3324  -17502207.68547 -13538183.53563
  19208907.1764  -13549401.11946 -10433101.42961
  20452022.488    -5946038.546 5  -4325200.59121
  20968621.2154  -12564539.35642    233854.24261
  18166784.4024  -24742000.70647 -18327808.74462
  17420833.4264  -31120638.47947 -24007901.35163
 97  1  8  2 56 29.9880000  0  7G 2G 7G24G 5G26G 9G 4
  19007612.035   -11559037.382 6  -8956928.46621
  18009426.5274  -17493422.47947 -13531337.92463
  19180119.9814  -13700660.85746 -10550966.17161
  20426811.6214   -6078522.77145  -4428435.04761
  20972787.0984  -12542651.70642    250909.51761
  18146865.7854  -24846666.55247 -18409366.54862
  17402833.4024  -31215237.86647 -24081615.15362
 97  1  8  2 56 59.9880000  0  7G 2G 7G24G 5G26G 9G 4
  19008265.8484  -11555577.67446  -8954232.60561
  18011127.8794  -17484478.31347 -13524368.44863
  19151381.0744  -13851696.06746 -10668655.93861
  20401595.2234   -6211010.09245  -4531671.92361
  20976964.3484  -12520695.94943    268017.90861
  18127040.3094  -24950871.73747 -18490565.38862
  17384941.6994  -31309245.07147 -24154867.50662
 97  1  8  2 57 29.9880000  0  7G 2G 7G24G 5G26G 9G 4
  19008974.0274  -11551876.82446  -8951348.84161
  18012860.8094  -17475370.17947 -13517271.20763
  19122682.442   -14002511.249 6 -10786174.23421
  20376388.9264   -6343482.78745  -4634897.40061
  20981150.129   -12498682.227 2
  18107295.0674  -25054610.08847 -18571400.46662
  17367168.3634  -31402663.37747 -24227660.98162
 97  1  8  2 57 59.9880000  0  7G 2G 7G24G 5G26G 9G 4
  19009725.5904  -11547931.30446  -8948274.43561
  18014627.1684  -17466094.94547 -13510043.75562
  19094024.442   -14153120.500 6 -10903532.06021
  20351183.0434   -6475930.45945  -4738103.36461
  20985346.840   -12476617.943 1
  18087642.5904  -25157882.61347 -18651872.56362
  17349501.4104  -31495501.78947 -24300002.59563
 97  1  8  2 58 29.9880000  0  6G 2G 7G24G 5G 9G 4
  19010522.637   -11543747.741 6  -8945014.54721
  18016422.2314  -17456659.98747 -13502691.84562
  19065400.9024  -14303535.65246 -11020738.66661
  20325984.2314   -6608350.58845  -4841287.88061
  18068083.5274  -25260674.28547 -18731969.96562
  17331944.0514  -31587755.17647 -24371888.34263
 97  1  8  2 58 59.9880000  0  6G 2G 7G24G 5G 9G 4
  19011364.020   -11539315.863 6  -8941561.15621
  18018246.6924  -17447071.01047 -13495219.91562
  19036813.2774  -14453749.50546 -11137788.40061
  20300794.3794   -6740750.76845  -4944456.85061
  18048617.1374  -25362979.61047 -18811688.40162
  17314494.8714  -31679453.31247 -24443341.42362
 97  1  8  2 59 29.9880000  0  6G 2G 7G24G 5G 9G 4
  19012259.449   -11534610.491 6  -8937894.65321
  18020102.3014  -17437319.87147 -13487621.62362
  19008275.9884  -14603714.86646 -11254644.50861
  20275593.8244   -6873144.85645  -5047621.05661
  18029242.6924  -25464791.65447 -18891022.45662
  17297147.9024  -31770605.58047 -24514369.15562
 97  1  8  2 59 59.9880000  0  6G 2G 7G24G 5G 9G 4
  19013208.535   -11529629.935 6  -8934013.72121
  18021983.6134  -17427427.26747 -13479913.10963
  18979788.0204  -14753422.77646 -11371300.00061
  20250402.356    -7005554.167 5  -5150797.13521
  18009963.6764  -25566108.01447 -18969970.27562
  17279906.1924  -31861212.52347 -24584971.96163
 97  1  8  3  0 29.9880000  0  6G 2G 7G24G 5G 9G 4
  19014207.645   -11524370.646 6  -8929915.61121
  18023892.082   -17417395.272 7 -13472095.97022
  18951351.707   -14902863.951 6 -11487747.66021
  20225197.8244   -7137979.11445  -5253985.39761
  17990781.996   -25666914.194 7 -19048520.54922
  17262770.0124  -31951267.11847 -24655144.36462
 97  1  8  3  0 59.9870000  0  6G 2G 7G24G 5G 9G 4
  19015260.1014  -11518842.22446  -8925607.75261
  18025827.7494  -17407234.32147 -13464178.35462
  18922963.9684  -15052037.70646 -11603986.93661
  20199999.2344   -7270429.01345  -5357193.10061
  17971692.1634  -25767231.95647 -19126690.22462
  17245735.1484  -32040780.19947 -24724894.80062
 97  1  8  3  1 29.9870000  0  6G 2G 7G24G 5G 9G 4
  19016360.530   -11513066.039 6  -8921106.85421
  18027782.4604  -17396958.68347 -13456171.36462
  18894622.8194  -15200967.62146 -11720036.21661
  20174786.4914   -7402911.25945  -5460426.00861
  17952690.3664  -25867080.20447 -19204494.05562
  17228807.8434  -32129739.28947 -24794213.56262
 97  1  8  3  1 59.9870000  0  6G 2G 7G24G 5G 9G 4
  19017505.874   -11507045.701 6  -8916415.70321
  18029763.6714  -17386551.89847 -13448062.18562
  18866324.0544  -15349672.54946 -11835910.15361
  20149578.234    -7535391.681 5  -5563657.52121
  17933778.1404  -25966451.64447 -19281926.35562
  17211988.5854  -32218129.73247 -24863089.22662
 97  1  8  3  2 29.9870000  0  6G 2G 7G24G 5G 9G 4
  19018690.3824  -11500803.37846  -8911551.58561
  18031770.4914  -17376007.11947 -13439845.47362
  18838070.671   -15498154.022 6 -11951609.98921
  20124369.6324   -7667868.82445  -5666886.44761
  17914956.6484  -26065358.11647 -19358996.33762
  17195274.8984  -32305958.03547 -24931526.86262
 97  1  8  3  2 59.9870000  0  6G 2G 7G24G 5G 9G 4
  19019924.444   -11494332.764 6  -8906509.57621
  18033802.8984  -17365319.36947 -13431517.36462
  18809862.085   -15646390.528 6 -12067118.94221
  20099158.4994   -7800337.40545  -5770108.70761
  17896226.9374  -26163786.63947 -19435693.88562
  17178670.9914  -32393217.39847 -24999521.15862
 97  1  8  3  3 29.9870000  0  6G 2G 7G24G 5G 9G 4
  19021204.460   -11487623.750 6  -8901281.80621
  18035863.7964  -17354485.26347 -13423075.20362
  18781704.1714  -15794364.72146 -12182423.50261
  20073956.015    -7932786.316 5  -5873315.66321
  17877595.2804  -26261715.45747 -19512002.05262
  17162174.4444  -32479897.46747 -25067064.06263
 97  1  8  3  3 59.9870000  0  6G 2G 7G24G 5G 9G 4
  19022526.0074  -11480648.13646  -8895846.29061
  18037956.7804  -17343499.97847 -13414515.23762
  18753598.3664  -15942058.91846 -12297509.86861
  20048755.6484   -8065209.84145  -5976502.82961
  17859056.4374  -26359118.74347 -19587900.72362
  17145792.9134  -32565989.62447 -25134148.85163
 97  1  8  3  4 29.9870000  0  6G 2G 7G24G 5G 9G 4
  19023906.319   -11473412.521 6  -8890208.17521
  18040068.2344  -17332393.22447 -13405860.63262
  18725543.6634  -16089467.63346 -12412373.79961
  20023560.3514   -8197624.05545  -6079682.73961
  17840621.1554  -26456004.08747 -19663395.79862
  17129520.3434  -32651507.67947 -25200786.27763
 97  1  8  3  4 59.9870000  0  6G 2G 7G24G 5G 9G 4
  19025329.507   -11465918.572 6  -8884368.76021
  18042200.3434  -17321191.84847 -13397132.29562
  18697550.4054  -16236604.05446 -12527025.54061
  19998359.2104   -8330033.26545  -6182858.73861
  17822281.9524  -26552380.49747 -19738494.29762
  17113350.9444  -32736466.34247 -25266987.82763
 97  1  8  3  5 29.9870000  0  6G 2G 7G24G 5G 9G 4
  19026815.3664  -11458135.06046  -8878303.72261
  18044354.2804  -17309874.34547 -13388313.45962
  18669605.6324  -16383441.80046 -12641444.55061
  19973175.1874   -8462402.03045  -6286003.21861
  17804041.8824  -26648220.11147 -19813174.52062
  17097299.7184  -32820825.61047 -25332722.31063
 97  1  8  3  5 59.9870000  0  6G 2G 7G24G 5G 9G 4
  19028345.6094  -11450085.12446  -8872031.05661
  18046526.9764  -17298447.58747 -13379409.49862
  18641714.038   -16530004.716 6 -12755649.39021
  19947987.0074   -8594751.36345  -6389132.56461
  17785905.8044  -26743549.83647 -19887457.42662
  17081354.5464  -32904602.37847 -25398002.88863
 97  1  8  3  6 29.9870000  0  6G 2G 7G24G 5G 9G 4
  19029924.8354  -11441777.56946  -8865557.65961
  18048722.9914  -17286907.35847 -13370417.12062
  18613876.7104  -16676298.28446 -12869644.37361
  19922805.155    -8727081.352 5  -6492246.82821
  17767853.4374  -26838389.85547 -19961358.74662
  17065527.3354  -32987795.83047 -25462828.95463
 97  1  8  3  6 59.9870000  0  6G 2G 7G24G 5G 9G 4
  19031559.8744  -11433201.25446  -8858874.83961
  18050942.2654  -17275247.37747 -13361331.41962
  18586089.3044  -16822323.88846 -12983430.53861
  19897626.5774   -8859396.35345  -6595349.43761
  17749901.5074  -26932732.58947 -20034872.57062
  17049808.9914  -33070385.90347 -25527184.84463
 97  1  8  3  7 29.9870000  0  6G 2G 7G24G 5G 9G 4
  19033243.780   -11424347.286 6  -8851975.66121
  18053185.4294  -17263453.47347 -13352141.36462
  18558354.6164  -16968079.20246 -13097006.08161
  19872449.6944   -8991698.15845  -6698441.75061
  17732046.3124  -27026576.33547 -20107997.58162
  17034208.8194  -33152355.70147 -25591057.39663
 97  1  8  3  7 59.9870000  0  6G 2G 7G24G 5G 9G 4
  19034981.9914  -11415208.28746  -8844854.38361
  18055460.1714  -17251512.98147 -13342837.08462
  18530666.468   -17113563.385 6 -13210370.35221
  19847276.5774   -9123991.23845  -6801527.24661
  17714280.5774  -27119930.07547 -20180740.73962
  17018730.7574  -33233710.04647 -25654450.38863
 97  1  8  3  8 29.9870000  0  6G 2G 7G24G 5G 9G 4
  19036778.9914  -11405788.85946  -8837514.59261
  18057758.4214  -17239439.68247 -13333429.32062
  18503035.593   -17258770.943 6 -13323519.07221
  19822104.6094   -9256275.45845  -6904605.85961
  17696608.9604  -27212790.58147 -20253099.57762
  17003362.6554  -33314462.12747 -25717374.07763
 97  1  8  3  8 59.9870000  0  6G 2G 7G24G 5G 9G 4
  19038616.8824  -11396106.53146  -8829969.94161
  18060077.9604  -17227232.32247 -13323917.09362
  18475457.4524  -17403695.33246 -13436447.15061
  19796932.507    -9388559.633 5  -7007684.43221
  17679032.5234  -27305147.48247 -20325065.99762
  16988109.2264  -33394628.72747 -25779841.54963
 97  1  8  3  9 29.9870000  0  6G 2G 7G24G 5G 9G 4
  19040508.4994  -11386174.19646  -8822230.47661
  18062431.4994  -17214880.77847 -13314292.51862
  18447937.5074  -17548323.11546 -13549144.10861
  19771760.5304   -9520845.40645  -7110764.25061
  17661550.5154  -27397015.04347 -20396651.12062
  16972964.366   -33474219.089 7 -25841859.99723
 97  1  8  3  9 59.9870000  0  6G 2G 7G24G 5G 9G 4
  19042442.101   -11375996.768 6  -8814300.03421
  18064808.2734  -17202378.69447 -13304550.63362
  18420474.5624  -17692636.80846 -13661596.32161
  19746584.8514   -9653122.71045  -7213837.45461
  17644163.9684  -27488382.59747 -20467846.62262
  16957928.8984  -33553232.69047 -25903429.03363
 97  1  8  3 10 29.9870000  0  6G 2G 7G24G 5G 9G 4
  19044422.3354  -11365604.91946  -8806202.51261
  18067211.7344  -17189754.97347 -13294713.97362
  18393069.2414  -17836659.38446 -13773821.68461
  19721415.6714   -9785411.12245  -7316919.33061
  17626872.2184  -27579253.43547 -20538655.07862
  16942999.4844  -33631682.17047 -25964558.48663
 97  1  8  3 10 59.9870000  0  6G 2G 7G24G 5G 9G 4
  19046444.679   -11354979.518 6  -8797923.00721
  18069639.0384  -17177000.33747 -13284775.29762
  18365716.8354  -17980383.27546 -13885814.31661
  19696235.702    -9917708.994 5  -7420008.58121
  17609677.3594  -27669615.57247 -20609067.12762
  16928181.9374  -33709540.88947 -26025227.61063
 97  1  8  3 11 29.9870000  0  6G 2G 7G24G 5G 9G 4
  19048508.6164  -11344113.49646  -8789455.99061
  18072088.3194  -17164131.85247 -13274747.91562
  18338423.1324  -18123814.88246 -13997579.19961
  19671062.9294  -10050009.93245  -7523100.20361
  17592581.2344  -27759467.67147 -20679081.75162
  16913479.4214  -33786799.99547 -26085429.49763
 97  1  8  3 11 59.9870000  0  6G 2G 7G24G 5G 9G 4
  19050624.6484  -11333001.44346  -8780797.26561
  18074555.1164  -17151170.27947 -13264647.99062
  18311182.491   -18266968.657 6 -14109127.57221
  19645887.0304  -10182313.69545  -7626194.03561
  17575584.1014  -27848787.94147 -20748681.96162
  16898888.6164  -33863466.69147 -26145169.76863
 97  1  8  3 12 29.9870000  0  6G 2G 7G24G 5G 9G 4
  19052789.0154  -11321628.52546  -8771935.26161
  18077038.8354  -17138128.92847 -13254485.90562
  18283994.0774  -18409842.84646 -14220458.10961
  19620708.109   -10314609.098 5  -7729281.36021
  17558687.8744  -27937564.64447 -20817858.62262
  16884416.9134  -33939531.95647 -26204441.39663
 97  1  8  3 12 59.9870000  0  6G 2G 7G24G 5G 9G 4
  19055007.2804  -11309980.21446  -8762858.68361
  18079534.6714  -17124996.15047 -13244252.57662
  18256864.5464  -18552402.40446 -14331543.47361
  19595540.5074  -10446872.71345  -7832343.91161
  17541901.4054  -28025785.15947 -20886601.88562
  16870058.8354  -34014984.44147 -26263235.52763
 97  1  8  3 13 29.9870000  0  6G 2G 7G24G 5G 9G 4
  19057275.4604  -11298053.24546  -8753564.94961
  18082051.5624  -17111774.29747 -13233949.83662
  18229802.7264  -18694633.55946 -14442372.92961
  19570379.8514  -10579085.85245  -7935367.11761
  17525223.6164  -28113439.44547 -20954903.92162
  16855815.069   -34089824.476 7 -26321552.41723
 97  1  8  3 13 59.9870000  0  6G 2G 7G24G 5G 9G 4
  19059598.4914  -11285848.08346  -8744054.44161
  18084580.0774  -17098468.87647 -13223581.98462
  18202800.991   -18836526.860 6 -14552939.13321
  19545231.2494  -10711247.98845  -8038350.59261
  17508644.9374  -28200537.89047 -21022772.84662
  16841690.7964  -34164060.99247 -26379399.04263
 97  1  8  3 14 29.9870000  0  6G 2G 7G24G 5G 9G 4
  19061970.7414  -11273375.32646  -8734335.41761
  18087134.1094  -17085066.92847 -13213138.90762
  18175863.9994  -18978070.83946 -14663233.14561
  19520093.6244  -10843343.06445  -8141281.80361
  17492177.5464  -28287092.10447 -21090217.68762
  16827680.7654  -34237685.79847 -26436769.00563
 97  1  8  3 14 59.9870000  0  6G 2G 7G24G 5G 9G 4
  19064394.3194  -11260635.30146  -8724408.13561
  18089705.4684  -17071558.32647 -13202612.73262
  18148997.8194  -19119261.67246 -14773251.97161
  19494968.5544  -10975379.25845  -8244167.15761
  17475808.2264  -28373107.91547 -21157243.00262
  16813782.3664  -34310712.14547 -26493672.65063
 97  1  8  3 15 29.9870000  0  6G 2G 7G24G 5G 9G 4
  19066865.1554  -11247643.15746  -8714284.40261
  18092292.5854  -17057959.47147 -13192016.22662
  18122191.5934  -19260129.63846 -14883019.21761
  19469849.0074  -11107371.45345  -8347018.21161
  17459535.6324  -28458611.23847 -21223868.96962
  16799997.046   -34383160.134 7 -26550125.61523
 97  1  8  3 15 59.9870000  0  6G 2G 7G24G 5G 9G 4
  19069388.6874  -11234403.73446  -8703967.99061
  18094897.0384  -17044263.73747 -13181344.24162
  18095442.9294  -19400682.39146 -14992540.84961
  19444743.8984  -11239328.74745  -8449842.07261
  17443360.3044  -28543615.00147 -21290105.66962
  16786320.2654  -34455028.24647 -26606126.72963
 97  1  8  3 16 29.9860000  0  6G 2G 7G24G 5G 9G 4
  19071955.4244  -11220924.77146  -8693464.91761
  18097522.0024  -17030475.30447 -13170600.00562
  18068756.6584  -19540924.79746 -15101820.64062
  19419632.9164  -11371269.71345  -8552653.20361
  17427283.2214  -28628114.10447 -21355949.13062
  16772753.5184  -34526320.94447 -26661679.45963
 97  1  8  3 16 59.9860000  0  6G 2G 7G24G 5G 9G 4
  19074571.447   -11207172.201 6
  18100165.1194  -17016577.57947
  18042130.1904  -19680846.78646 -15210850.75562
  19394525.2214  -11503210.17646  -8655463.96561
  17411299.8154  -28712085.19547 -21421381.15262
  16759300.5964  -34597028.54747 -26716776.28063
 97  1  8  3 17 29.9860000  0  6G 2G 7G24G 5G 9G 4
  19077239.236   -11193156.238 6
  18102829.8614  -17002577.31447
  18015565.1584  -19820440.71246 -15319625.22962
  19369418.0804  -11635153.97746  -8758277.30661
  17395425.6824  -28795528.88447 -21486402.20962
  16745955.8774  -34667136.18147 -26771405.58663
 97  1  8  3 17 59.9860000  0  6G 2G 7G24G 5G 9G 4
  19079956.549   -11178870.701 6  -8660695.53821
  18105514.3464  -16988473.13847 -13137871.05862
  17989067.4474  -19959696.59946 -15428136.30862
  19344307.9404  -11767105.19945  -8861096.43161
  17379647.3854  -28878434.91447 -21551004.31762
  16732730.8854  -34736636.47547 -26825561.65263
 97  1  8  3 18 29.9860000  0  6G 2G 7G24G 5G 9G 4
  19082727.416   -11164309.149 6  -8649348.90021
  18108216.2054  -16974270.44747 -13126804.03462
  17962632.4714  -20098611.62946 -15536381.77562
  19319199.6514  -11899068.25246  -8963924.77761
  17363971.9404  -28960794.73047 -21615180.79962
  16719623.9084  -34805528.67547 -26879243.87863
 97  1  8  3 18 59.9860000  0  6G 2G 7G24G 5G 9G 4
  19085551.361   -11149471.539 6  -8637787.14921
  18110943.4474  -16959959.35947 -13115652.53462
  17936263.5884  -20237177.58446 -15644355.23262
  19294088.7364  -12031014.57346  -9066740.07361
  17348406.7054  -29042608.77947 -21678932.01262
  16706631.5104  -34873794.98947 -26932438.39763
 97  1  8  3 19 29.9860000  0  6G 2G 7G24G 5G 9G 4
  19088424.049   -11134370.495 6  -8626020.11921
  18113679.4014  -16945555.25647 -13104428.56762
  17909963.4164  -20375398.79246 -15752060.06762
  19268989.8464  -12162916.88146  -9169521.09561
  17332937.7444  -29123891.36347 -21742269.09362
  16693760.5804  -34941435.49647 -26985145.27963
 97  1  8  3 19 59.9860000  0  6G 2G 7G24G 5G 9G 4
  19091347.5964  -11118997.38746  -8614041.09661
  18116440.9404  -16931055.55347 -13093130.10362
  17883725.5574  -20513281.87646 -15859501.41962
  19243898.916   -12294765.653 6  -9272260.39621
  17317575.0414  -29204638.78747 -21805189.16762
  16681004.1194  -35008458.24947 -27037370.78863
 97  1  8  3 20 29.9860000  0  6G 2G 7G24G 5G 9G 4
  19094326.088   -11103368.741 6  -8601862.95721
  18119216.2914  -16916470.46447 -13081765.10162
  17857548.2524  -20650830.48146 -15966682.14062
  19218816.6274  -12426561.88346  -9374958.74561
  17302310.7524  -29284856.69847 -21867696.64162
  16668364.9864  -35074880.42047 -27089128.31063
 97  1  8  3 20 59.9860000  0  6G 2G 7G24G 5G 9G 4
  19097341.377   -11087504.021 5  -8589500.86521
  18122007.4944  -16901803.39247 -13070336.22962
  17831436.9324  -20788050.00546 -16073606.42862
  19193749.9554  -12558299.80946  -9477611.67061
  17287143.7764  -29364552.96747 -21929797.63162
  16655834.7834  -35140722.63547 -27140433.92363
 97  1  8  3 21 29.9860000  0  6G 2G 7G24G 5G 9G 4
  19100409.9164  -11071378.42845  -8576935.48161
  18124817.7834  -16887034.25147 -13058827.79762
  17805389.7994  -20924928.53446 -16180265.00462
  19168689.4014  -12689981.13146  -9580220.48861
  17272079.4554  -29443709.00747 -21991477.66762
  16643419.0964  -35205969.23447 -27191275.42463
 97  1  8  3 21 59.9860000  0  6G 2G 7G24G 5G 9G 4
  19103530.041   -11054982.020 5  -8564159.10421
  18127653.6354  -16872133.91447 -13047217.14662
  17779410.5334  -21061450.52046 -16286645.76562
  19143645.119   -12821613.658 6  -9682791.26621
  17257122.9244  -29522305.60547 -22052721.77262
  16631119.0184  -35270607.48547 -27241642.88663
 97  1  8  3 22 29.9860000  0  6G 2G 7G24G 5G 9G 4
  19106699.6904  -11038331.09646  -8551184.37661
  18130510.2994  -16857115.35547 -13035514.37762
  17753497.5184  -21197614.29546 -16392747.39662
  19118602.7294  -12953201.00246  -9785326.86261
  17242274.0184  -29600335.36947 -22113524.19362
  16618935.7444  -35334640.58747 -27291538.80363
 97  1  8  3 22 59.9860000  0  6G 2G 7G24G 5G 9G 4
  19109914.3934  -11021438.38346  -8538021.25861
  18133388.6194  -16841994.31647 -13023731.74762
  17727651.1274  -21333438.96446 -16498584.78462
  19093563.705   -13084773.707 6  -9887851.02921
  17227529.6904  -29677817.08247 -22173899.55662
  16606866.3224  -35398075.37147 -27340968.50363
 97  1  8  3 23 29.9860000  0  6G 2G 7G24G 5G 9G 4
  19113172.854   -11004317.136 6  -8524680.03921
  18136279.6514  -16826804.07347 -13011895.19762
  17701868.7444  -21468934.04746 -16604165.35062
  19068526.1664  -13216347.74446  -9990376.25461
  17212884.7994  -29754766.09847 -22233859.83563
  16594907.1824  -35460921.20447 -27389939.27463
 97  1  8  3 23 59.9860000  0  6G 2G 7G24G 5G 9G 4
  19116474.0574  -10986964.11045  -8511158.22661
  18139181.1974  -16811557.47447 -13000014.73462
  17676151.9474  -21604072.96646 -16709468.40162
  19043494.4554  -13347900.15546 -10092884.62161
  17198348.8224  -29831165.86847 -22293392.13462
  16583058.9474  -35523179.66647 -27438452.35363
 97  1  8  3 24 29.9860000  0  6G 2G 7G24G 5G 9G 4
  19119827.971   -10969357.958 5  -8497439.17721
  18142092.4014  -16796258.78847 -12988093.68262
  17650509.0414  -21738829.70446 -16814473.62962
  19018468.354   -13479412.687 6 -10195361.90121
  17183920.5264  -29906993.71547 -22352478.77362
  16571324.9714  -35584834.48947 -27486495.06463
 97  1  8  3 24 59.9860000  0  6G 2G 7G24G 5G 9G 4
  19123225.143   -10951500.223 5  -8483524.07821
  18145010.4554  -16780913.39547 -12976136.23762
  17624938.9944  -21873202.71046 -16919179.85562
  18993446.1114  -13610889.78546 -10297811.58661
  17169598.2294  -29982265.47047 -22411132.08962
  16559706.5804  -35645891.28147 -27534071.77163
 97  1  8  3 25 29.9860000  0  6G 2G 7G24G 5G 9G 4
  19126671.1744  -10933381.86645  -8469405.90861
  18147942.6974  -16765517.86647 -12964139.72462
  17599443.7134  -22007177.05446 -17023575.43462
  18968442.416   -13742304.105 6 -10400212.34821
  17155377.4014  -30056972.20347 -22469345.13762
  16548202.8934  -35706346.81347 -27581179.98063
 97  1  8  3 25 59.9860000  0  6G 2G 7G24G 5G 9G 4
  19130167.768   -10914998.087 5  -8455080.93021
  18150883.3934  -16750060.53747 -12952095.06062
  17574024.6044  -22140749.70346 -17127658.00562
  18943441.5724  -13873667.52546 -10502573.44061
  17141269.7524  -30131109.76647 -22527114.66862
  16536813.7604  -35766197.33247 -27627816.73263
 97  1  8  3 26 29.9860000  0  6G 2G 7G24G 5G 9G 4
  19133713.3154  -10896351.53045  -8440551.16661
  18153835.7524  -16734534.98746 -12939997.23562
  17548681.7294  -22273931.16146 -17231435.75662
  18918456.9474  -14004979.71046 -10604894.63761
  17127270.5574  -30204689.45847 -22584449.49763
  16525538.0264  -35825445.24947 -27673983.92663
 97  1  8  3 26 59.9860000  0  6G 2G 7G24G 5G 9G 4
  19137316.604   -10877443.164 5  -8425817.39521
  18156808.1584  -16718924.88246 -12927833.51562
  17523410.5184  -22406728.26146 -17334914.00062
  18893481.2134  -14136232.34846 -10707169.40061
  17113371.0654  -30277724.21747 -22641359.70562
  16514379.2214  -35884093.03747 -27719683.49363
 97  1  8  3 27 29.9860000  0  6G 2G 7G24G 5G 9G 4
  19140967.5884  -10858270.45545  -8410877.65561
  18159794.0414  -16703230.92847 -12915604.46461
  17498217.9864  -22539145.78346 -17438096.47762
  18868513.6824  -14267431.86046 -10809402.79161
  17099572.8224  -30350219.33547 -22697849.41563
  16503330.9404  -35942141.80447 -27764916.28863
 97  1  8  3 27 59.9860000  0  6G 2G 7G24G 5G 9G 4
  19144663.9164  -10838819.85445  -8395721.36061
  18162798.0964  -16687442.82446 -12903302.04862
  17473091.0804  -22671171.67546 -17540973.77162
  18843556.9714  -14398576.45146 -10911593.37461
  17085887.533   -30422158.033 7 -22753905.54622
  16492400.7054  -35999574.74147 -27809669.21863
 97  1  8  3 28 29.9860000  0  6G 2G 7G24G 5G 9G 4
  19148422.4164  -10819078.87845  -8380338.80961
  18165823.7444  -16671545.71346 -12890914.69262
  17448043.002   -22802801.019 7 -17643542.07222
  18818614.6274  -14529636.51946 -11013718.08961
  17072301.4864  -30493532.49247 -22809522.01063
  16481594.0184  -36056373.17847 -27853927.72763
 97  1  8  3 28 59.9860000  0  6G 2G 7G24G 5G 9G 4
  19152227.4944  -10799083.47445  -8364758.00661
  18168863.3154  -16655582.22647 -12878475.61962
  17423061.6194  -22934071.88047
  18793683.3464  -14660659.17446
  17058825.5654  -30564375.36147 -22864724.25463
  16470901.4554  -36112558.30147 -27897708.33463
 97  1  8  3 29 29.9860000  0  6G 2G 7G24G 5G 9G 4
  19156077.252   -10778837.257 5  -8348981.78021
  18171910.9794  -16639562.00446 -12865992.33562
  17398150.6664  -23064981.24347 -17847838.30362
  18768762.9084  -14791635.04146 -11217872.77361
  17045446.0884  -30634667.83047 -22919497.60663
  16460329.0574  -36168123.68147 -27941006.01763
 97  1  8  3 29 59.9860000  0  6G 2G 7G24G 5G 9G 4
  19159978.330   -10758345.930 5  -8333014.53921
  18174968.5414  -16623482.41546 -12853462.78761
  17373312.088   -23195518.945 7 -17949555.97022
  18743843.541   -14922548.704 6 -11319883.41521
  17032177.1274  -30704403.05247 -22973836.74963
  16449874.2134  -36223063.74347 -27983816.44563
 97  1  8  3 30 29.9860000  0  6G 2G 7G24G 5G 9G 4
  19163927.0494  -10737618.60445  -8316863.39861
  18178042.7294  -16607344.46446 -12840887.76662
  17348539.4084  -23325682.35847 -18050981.99962
  18718949.6664  -15053399.11046 -11421844.77961
  17019015.0184  -30773576.20247 -23027737.91263
  16439536.9944  -36277381.37747 -28026141.86463
 97  1  8  3 30 59.9860000  0  6G 2G 7G24G 5G 9G 4
  19167910.0964  -10716660.36045  -8300532.32961
  18181122.3854  -16591144.80946 -12828264.66461
  17323846.299   -23455455.647 7 -18152104.01922
  18694059.2294  -15184189.77446 -11523759.56661
  17005957.1824  -30842172.00347 -23081189.18962
  16429318.5654  -36331089.77147 -28067992.54763
 97  1  8  3 31 29.9860000  0  6G 2G 7G24G 5G 9G 4
  19171945.5334  -10695455.23045  -8284008.87161
  18184222.0264  -16574863.65546 -12815578.05361
  17299231.416   -23584808.383 7 -18252898.34222
  18669186.9864  -15314900.41946 -11625612.01761
  16993019.5264  -30910179.24447 -23134181.84562
  16419212.3384  -36384188.50647 -28109368.17763
 97  1  8  3 31 59.9850000  0  6G 2G 7G24G 5G 9G 4
  19176033.4434  -10673983.87545  -8267277.98661
  18187333.6464  -16558504.07146 -12802830.33762
  17274696.7244  -23713727.08347 -18353354.46362
  18644326.1614  -15445536.82246 -11727406.61361
  16980189.8964  -30977601.56747 -23186718.72663
  16409224.9664  -36436676.30347 -28150267.75263
 97  1  8  3 32 29.9850000  0  6G 2G 7G24G 5G 9G 4
  19180165.138   -10652245.771 5  -8250339.24621
  18190462.2324  -16542074.90446 -12790028.39461
  17250242.8254  -23842242.58747 -18453496.38662
  18619476.4894  -15576131.30746 -11829168.54961
  16967467.9354  -31044449.53947 -23238808.06463
  16399351.4274  -36488571.20447 -28190705.33563
 97  1  8  3 32 59.9850000  0  6G 2G 7G24G 5G 9G 4
  19184354.9894  -10630238.46945  -8233190.71461
  18193600.4894  -16525584.08446 -12777178.40361
  17225864.4034  -23970362.11447 -18553329.78662
  18594631.3024  -15706686.36846 -11930899.77161
  16954851.1384  -31110742.64447 -23290465.03663
  16389586.7084  -36539875.58547 -28230682.75363
 97  1  8  3 33 29.9850000  0  6G 2G 7G24G 5G 9G 4
  19188602.1384  -10607954.26445  -8215826.43361
  18196748.9274  -16509044.05446 -12764290.07761
  17201555.8804  -24098090.21947 -18652858.17162
  18569792.4504  -15837207.54246 -12032604.56861
  16942340.0604  -31176503.43347 -23341707.20963
  16379934.1924  -36590588.57647 -28270199.36863
 97  1  8  3 33 59.9850000  0  6G 2G 7G24G 5G 9G 4
  19192889.4434  -10585394.95245  -8198247.76761
  18199905.2714  -16492446.66046 -12751357.04561
  17177326.3414  -24225428.67047 -18752082.93862
  18544962.1934  -15967692.75146 -12134281.35961
  16929931.2324  -31241720.29947 -23392525.54963
  16370398.8884  -36640700.52147 -28309247.63563
 97  1  8  3 34 29.9850000  0  6G 2G 7G24G 5G 9G 4
  19197232.247   -10562564.645 5  -8180457.92921
  18203079.2944  -16475762.17646 -12738356.15462
  17153172.4424  -24352360.06747 -18850990.51462
  18520144.0994  -16098127.58446 -12235918.86761
  16917626.7244  -31306380.30147 -23442909.98263
  16360979.3574  -36690201.58247 -28347819.87963
 97  1  8  3 34 59.9850000  0  6G 2G 7G24G 5G 9G 4
  19201628.2324  -10539470.53645  -8162462.55361
  18206274.0604  -16458987.35946 -12725284.87261
  17129097.528   -24478865.414 7 -18949566.09322
  18495334.4034  -16228498.40746 -12337506.53061
  16905423.4424  -31370494.65147 -23492869.22163
  16351676.2864  -36739104.05947 -28385925.68663
 97  1  8  3 35 29.9850000  0  6G 2G 7G24G 5G 9G 4
  19206071.3024  -10516117.99145  -8144265.80261
  18209477.4434  -16442129.59946 -12712148.97161
  17105106.2084  -24604936.75647 -19047803.50262
  18470540.6614  -16358797.13646 -12439037.99961
  16893327.9974  -31434050.46947 -23542393.23763
  16342483.9274  -36787411.29247 -28423567.69063
 97  1  8  3 35 59.9850000  0  6G 2G 7G24G 5G 9G 4
  19210571.8254  -10492487.30045  -8125852.30661
  18212710.3414  -16425157.93546 -12698924.30661
  17081202.5364  -24730551.43047 -19145685.04962
  18445766.6534  -16488987.67346 -12540485.16661
  16881349.2324  -31496994.20147 -23591440.30563
  16333414.3414  -36835082.32147 -28460713.92063
 97  1  8  3 36 29.9850000  0  6G 2G 7G24G 5G 9G 4
  19215117.8644  -10468584.59745  -8107226.84761
  18215961.3804  -16408073.48946 -12685611.75062
  17057385.0214  -24855705.34747 -19243207.56962
  18421013.7324  -16619067.93346 -12641846.41061
  16869488.3964  -31559325.58147 -23640010.22363
  16324461.6924  -36882120.55347 -28497367.08763
 97  1  8  3 36 59.9850000  0  6G 2G 7G24G 5G 9G 4
  19219711.0444  -10444470.70145  -8088436.82361
  18219221.4894  -16390949.45046 -12672268.34861
  17033650.5754  -24980445.36947 -19340407.57262
  18396270.6694  -16749075.44446 -12743150.94361
  16857736.1074  -31621092.51147 -23688140.29863
  16315623.1224  -36928564.44547 -28533557.12363
 97  1  8  3 37 29.9850000  0  6G 2G 7G24G 5G 9G 4
  19224336.177   -10420133.657 5  -8069472.93421
  18222491.5524  -16373766.57946 -12658879.10461
  17009994.5444  -25104750.78647 -19437268.92862
  18371549.2324  -16878988.88746 -12844382.20261
  16846095.7244  -31682257.86547 -23735801.62063
  16306904.4664  -36974373.65147 -28569252.60663
 97  1  8  3 37 59.9850000  0  6G 2G 7G24G 5G 9G 4
  19229021.278   -10395540.994 5  -8050309.81821
  18225778.0994  -16356480.17946 -12645409.17561
  16986431.442   -25228577.686 7 -19533757.39422
  18346852.786   -17008773.827 6 -12945513.31021
  16834578.7244  -31742785.60547 -23782966.09262
  16298315.2244  -37019515.92347 -28604428.38463
 97  1  8  3 38 29.9850000  0  6G 2G 7G24G 5G 9G 4
  19233739.474   -10370727.947 5  -8030975.02621
  18229076.3724  -16339141.78146 -12631898.75061
  16962952.6464  -25351963.15747 -19629901.92762
  18322175.9434  -17138462.57646 -13046569.48661
  16823171.5284  -31802730.10747 -23829676.10263
  16289840.7324  -37064046.41947 -28639127.46863
 97  1  8  3 38 59.9850000  0  6G 2G 7G24G 5G 9G 4
  19238506.7634  -10345682.77945  -8011459.34161
  18232386.0604  -16321767.55746 -12618360.39961
  16939554.6614  -25474924.60247 -19725716.03462
  18297512.7244  -17268047.14346 -13147544.46561
  16811873.0364  -31862096.44147 -23875935.59063
  16281480.2944  -37107980.94747 -28673362.15963
 97  1  8  3 39 29.9850000  0  6G 2G 7G24G 5G 9G 4
  19243324.443   -10320374.979 5  -7991738.96921
  18235699.5444  -16304356.82746 -12604793.60461
  16916231.2864  -25597478.25547 -19821212.36962
  18272874.5364  -17397535.44546 -13248444.44661
  16800685.5674  -31920888.30547 -23921747.44063
  16273228.9744  -37151340.61247 -28707148.91063
 97  1  8  3 39 59.9850000  0  6G 2G 7G24G 5G 9G 4
  19248192.3184  -10294776.27345  -7971791.97061
  18239017.7634  -16286916.20946 -12591203.51161
  16892992.8174  -25719611.10447 -19916380.81262
  18248249.6464  -17526928.32046 -13349270.06061
  16789608.2864  -31979099.65047 -23967106.93863
  16265089.0834  -37194114.25747 -28740479.01463
 97  1  8  3 40 29.9850000  0  6G 2G 7G24G 5G 9G 4
  19253123.8494  -10268874.12845  -7951608.51761
  18242341.0754  -16269441.36246 -12577586.75761
  16869834.5834  -25841312.94847 -20011213.39662
  18223648.4114  -17656216.75146 -13450014.28261
  16778639.8414  -32036737.64747 -24012019.66963
  16257064.4584  -37236291.23847 -28773344.19063
 97  1  8  3 40 59.9850000  0  6G 2G 7G24G 5G 9G 4
  19258108.1384  -10242683.88345  -7931200.54361
  18245673.3574  -16251936.47246 -12563946.58361
  16846757.4584  -25962578.24447 -20105705.82263
  18199061.1774  -17785423.51046 -13550694.87661
  16767776.7004  -32093825.19547 -24056503.47963
  16249150.0214  -37277882.64147 -28805753.06363
 97  1  8  3 41 29.9850000  0  6G 2G 7G24G 5G 9G 4
  19263138.450   -10216228.505 5  -7910586.02221
  18249010.1854  -16234398.55646 -12550280.69261
  16823766.6074  -26083389.57247 -20199844.51163
  18174486.9824  -17914571.64546 -13651329.78661
  16757016.5524  -32150369.75547 -24100564.17963
  16241349.3964  -37318878.15847 -28837697.61963
 97  1  8  3 41 59.9850000  0  6G 2G 7G24G 5G 9G 4
  19268215.1144  -10189531.70745  -7889783.33261
  18252356.4354  -16216815.10446 -12536579.30761
  16800866.9894  -26203733.33247 -20293618.85363
  18149919.8884  -18043656.66446 -13751915.51761
  16746361.5134  -32206373.45647 -24144203.43063
  16233661.6384  -37359269.95747 -28869171.74263
 97  1  8  3 42 29.9850000  0  6G 2G 7G24G 5G 9G 4
  19273350.638   -10162579.078 5  -7868781.33021
  18255717.6614  -16199153.37746 -12522816.92661
  16778054.0914  -26323607.31647 -20387027.14063
  18125375.9434  -18172648.57446 -13852428.69161
  16735810.1074  -32261824.17047 -24187411.79763
  16226086.8574  -37399065.38447 -28900181.15963
 97  1  8  3 42 59.9850000  0  6G 2G 7G24G 5G 9G 4
  19278526.1694  -10135382.18845  -7847588.96561
  18259092.4664  -16181424.66246 -12509002.36461
  16755327.7784  -26443023.53647 -20480078.73463
  18100846.4894  -18301558.53946 -13952878.02061
  16725367.4974  -32316709.28947 -24230179.42263
  16218627.5284  -37438264.20147 -28930725.68563
 97  1  8  3 43 29.9850000  0  6G 2G 7G24G 5G 9G 4
  19283746.8024  -10107942.53145  -7826207.43961
  18262474.2784  -16163632.50846 -12495138.35861
  16732691.6924  -26561991.21447 -20572780.80463
  18076327.0994  -18430383.44246 -14053261.05061
  16715029.4034  -32371016.84047 -24272497.00663
  16211286.1464  -37476855.64147 -28960796.93363
 97  1  8  3 43 59.9850000  0  6G 2G 7G24G 5G 9G 4
  19289022.286   -10080227.101 5  -7804611.03921
  18265875.6304  -16145768.87946 -12481218.65461
  16710140.3964  -26680498.97047 -20665124.49763
  18051836.1774  -18559096.24446 -14153556.74761
  16704809.6464  -32424718.37747 -24314342.36763
  16204059.8494  -37514826.69747 -28990384.77063
 97  1  8  3 44 29.9850000  0  6G 2G 7G24G 5G 9G 4
  19294348.6934  -10052237.55145  -7782801.02461
  18269289.5684  -16127838.38146 -12467246.85261
  16687678.3964  -26798544.90747 -20757108.33363
  18027366.4744  -18687692.21146 -14253761.40161
  16694710.6924  -32477799.16547 -24355704.02663
  16196955.4274  -37552163.48347 -29019478.36163
 97  1  8  3 44 59.9850000  0  6G 2G 7G24G 5G 9G 4
  19299720.466   -10024002.305 5  -7760799.56021
  18272709.7864  -16109857.08246 -12453235.46161
  16665300.9744  -26916133.79047 -20848736.02363
  18002911.6614  -18816192.26746 -14353891.31461
  16684728.4274  -32530263.91347 -24396585.66063
  16189969.2244  -37588864.57947 -29048076.62263
 97  1  8  3 45 29.9850000  0  6G 2G 7G24G 5G 9G 4
  19305142.7784   -9995517.93345  -7738603.96761
  18276141.5834  -16091822.05346 -12439182.19261
  16643007.4974  -27033272.65047 -20940013.04663
  17978479.4504  -18944591.26646 -14453942.49161
  16674861.2244  -32582112.14447 -24436986.88463
  16183104.6694  -37624944.45647 -29076190.80763
 97  1  8  3 45 59.9850000  0  6G 2G 7G24G 5G 9G 4
  19310598.489    -9966797.882 4  -7716224.73921
  18279582.9504  -16073735.33746 -12425088.66561
  16620803.0604  -27149976.40647 -21030951.02563
  17954064.1694  -19072886.58946 -14553912.87761
  16665109.5604  -32633346.69447 -24476909.91763
  16176354.0524  -37660423.38547 -29103836.72563
 97  1  8  3 46 29.9850000  0  6G 2G 7G24G 5G 9G 4
  19316115.7864   -9937844.23145  -7693663.48161
  18283037.4974  -16055581.19046 -12410942.58361
  16598680.5054  -27266235.21947 -21121542.29463
  17929671.6854  -19201066.54946 -14653793.36161
  16655474.1694  -32683981.45147 -24516365.57863
  16169717.4894  -37695299.11247 -29131012.61063
 97  1  8  3 46 59.9850000  0  6G 2G 7G24G 5G 9G 4
  19321670.052    -9908649.842 4  -7670914.63921
  18286503.7714  -16037368.36846 -12396750.77661
  16576645.3254  -27382024.14447 -21211767.42063
  17905301.6854  -19329133.33346 -14753585.66661
  16645954.9424  -32734028.89647 -24555363.59963
  16163190.4114  -37729590.49247 -29157733.16663
 97  1  8  3 47 29.9840000  0  6G 2G 7G24G 5G 9G 4
  19327272.0474   -9879223.97245  -7647985.43061
  18289977.8204  -16019120.95946 -12382532.02361
  16554703.7814  -27497335.55547 -21301620.45663
  17880955.9614  -19457082.91646 -14853286.62961
  16636535.1644  -32783518.43247 -24593926.87963
  16156772.7504  -37763319.26447 -29184015.31863
 97  1  8  3 47 59.9840000  0  6G 2G 7G24G 5G 9G 4
  19332915.7194   -9849574.38745  -7624881.87161
  18293456.1254  -16000841.45946 -12368288.27261
  16532851.7114  -27612159.00747 -21391093.26863
  17856629.1724  -19584927.85446 -14952906.07161
  16627215.305   -32832479.237 7 -24632078.16723
  16150460.6414  -37796492.33847 -29209864.47163
 97  1  8  3 48 29.9840000  0  6G 2G 7G24G 5G 9G 4
  19338602.6564   -9819686.19445  -7601592.39061
  18296940.3674  -15982525.09546 -12354015.77961
  16511100.2584  -27726463.74347 -21480161.88263
  17832319.3754  -19712671.14146 -15052446.28961
  16618000.4064  -32880910.27947 -24669816.65263
  16144255.0634  -37829103.63747 -29235275.86563
 97  1  8  3 48 59.9840000  0  6G 2G 7G24G 5G 9G 4
  19344329.195    -9789563.172 5  -7578119.94721
  18300432.8754  -15964170.11146 -12339713.20761
  16489447.4924  -27840251.93747 -21568827.99863
  17808030.6334  -19840308.99746 -15151904.35561
  16608890.8674  -32928792.38147 -24707127.38963
  16138154.3914  -37861148.49847 -29260245.88263
 97  1  8  3 49 29.9840000  0  6G 2G 7G24G 5G 9G 4
  19350113.727    -9759182.555 4  -7554446.77321
  18303938.6564  -15945750.64946 -12325360.38561
  16467887.5314  -27953545.87847 -21657108.97763
  17783764.6494  -19967823.06246 -15251265.96461
  16599886.1334  -32976105.28247 -24743994.59563
  16132170.1174  -37892612.47547 -29284763.26063
 97  1  8  3 49 59.9840000  0  6G 2G 7G24G 5G 9G 4
  19355948.2894   -9728529.90645  -7530561.63061
  18307457.9144  -15927260.54946 -12310952.52361
  16446421.6954  -28066357.01847 -21745013.75063
  17759521.7114  -20095210.87346 -15350529.19162
  16590995.4064  -33022820.52847 -24780396.09763
  16126297.8364  -37923476.57947 -29308813.21763
 97  1  8  3 50 29.9840000  0  6G 2G 7G24G 5G 9G 4
  19361832.195    -9697613.589 4  -7506471.00521
  18310981.4924  -15908728.69346 -12296512.11561
  16425039.024   -28178716.530 7 -21832566.60323
  17735303.8604  -20222482.89846 -15449702.18261
  16582222.4144  -33068932.26547 -24816327.32063
  16120535.1024  -37953751.03347 -29332403.69663
 97  1  8  3 50 59.9840000  0  6G 2G 7G24G 5G 9G 4
  19367766.406    -9666422.275 4  -7482166.12121
  18314516.8674  -15890150.93646 -12282035.95861
  16403742.7814  -28290629.79047 -21919771.72963
  17711114.1334  -20349617.19946 -15548767.86361
  16573564.5554  -33114434.61447 -24851783.70863
  16114888.3054  -37983420.65947 -29355522.87763
 97  1  8  3 51 29.9840000  0  6G 2G 7G24G 5G 9G 4
  19373760.133    -9634943.160 4  -7457636.95721
  18318058.235   -15871539.182 6 -12267533.30721
  16382530.8364  -28402094.05947 -22006626.98463
  17686945.1024  -20476617.93746 -15647729.46961
  16565017.2344  -33159335.20047 -24886771.18763
  16109360.1804  -38012486.11447 -29378171.28363
 97  1  8  3 51 59.9840000  0  6G 2G 7G24G 5G 9G 4
  19379800.125    -9603206.735 4  -7432907.32621
  18321605.6804  -15852907.16446 -12253014.85261
  16361407.6954  -28513103.73347 -22093128.02563
  17662796.2114  -20603506.21046 -15746603.44461
  16556583.6254  -33203661.69947 -24921311.32363
  16103941.5474  -38040955.86847 -29400355.50163
 97  1  8  3 52 29.9840000  0  6G 2G 7G24G 5G 9G 4
  19385876.289    -9571225.575 4  -7407986.94421
  18325158.0244  -15834224.51146 -12238456.95961
  16340372.0164  -28623644.41347 -22179263.60563
  17638675.5864  -20730274.29346 -15845383.76362
  16548255.9064  -33247428.66047 -24955415.45563
  16098634.7424  -38068831.78047 -29422076.98863
 97  1  8  3 52 59.9840000  0  6G 2G 7G24G 5G 9G 4
  19392011.7664   -9539002.25144  -7382877.90361
  18328732.320   -15815460.237 6 -12223835.46421
  16319430.6414  -28733688.78647 -22265012.45763
  17614576.7744  -20856913.56346 -15944063.71062
  16540030.6094  -33290639.40847 -24989086.17863
  16093448.2424  -38096096.15447 -29443321.95863
 97  1  8  3 53 29.9840000  0  6G 2G 7G24G 5G 9G 4
  19398186.1414   -9506553.02644  -7357592.80261
  18332318.6174  -15796610.17146 -12209147.11661
  16298587.4774  -28843225.00747 -22350365.34463
  17590501.9064  -20983422.23346 -16042641.88762
  16531915.2974  -33333290.70947 -25022320.96263
  16088373.5084  -38122759.59247 -29464098.65963
 97  1  8  3 53 59.9840000  0  6G 2G 7G24G 5G 9G 4
  19404401.0314   -9473895.06544  -7332145.08261
  18335922.0634  -15777666.51946 -12194385.83561
  16277840.4694  -28952242.58847 -22435314.10263
  17566453.5554  -21109795.01746 -16141114.18262
  16523909.3134  -33375375.20747 -25055114.08863
  16083411.5314  -38148830.89847 -29484413.95663
 97  1  8  3 54 29.9840000  0  6G 2G 7G24G 5G 9G 4
  19410661.016    -9441031.177 5  -7306536.90421
  18339542.0474  -15758656.26446 -12179572.66461
  16257195.8284  -29060742.77047 -22519859.68563
  17542428.2194  -21236032.85146 -16239481.31662
  16516008.7344  -33416872.71047 -25087449.81463
  16078563.3994  -38174321.17447 -29504276.50563
 97  1  8  3 54 59.9840000  0  6G 2G 7G24G 5G 9G 4
  19416956.602    -9407937.256 4  -7280749.46321
  18343167.7194  -15739612.55146 -12164733.41061
  16236647.3914  -29168726.44547 -22604002.80163
  17518433.9924  -21362129.93546 -16337738.77762
  16508230.4454  -33457770.95147 -25119318.58163
  16073818.6494  -38199245.26447 -29523697.86963
 97  1  8  3 55 29.9840000  0  6G 2G 7G24G 5G 9G 4
  19423302.3834   -9374594.71245  -7254768.30161
  18346791.2894  -15720549.06046 -12149878.75861
  16216195.8754  -29276196.80147 -22687745.92363
  17494468.9304  -21488070.19646 -16435874.04062
  16500564.1414  -33498050.78747 -25150705.47663
  16069179.9304  -38223614.76247 -29542687.08663
 97  1  8  3 55 59.9840000  0  6G 2G 7G24G 5G 9G 4
  19429689.5944   -9341000.41244  -7228590.95361
  18350424.1884  -15701481.21446 -12135020.70261
  16195841.3444  -29383167.97447 -22771100.07563
  17470530.3204  -21613863.76546 -16533895.00362
  16493011.8134  -33537715.39247 -25181612.96763
  16064651.4304  -38247429.26747 -29561243.84363
 97  1  8  3 56 29.9840000  0  6G 2G 7G24G 5G 9G 4
  19436136.641    -9307144.424 4  -7202209.68421
  18354048.2424  -15682419.28846 -12120167.26261
  16175574.6494  -29489655.87547 -22854077.65263
  17446627.9924  -21739507.63847 -16631799.31762
  16485580.6094  -33576787.46247 -25212058.74563
  16060223.6024  -38270684.97947 -29579365.17163
 97  1  8  3 56 59.9840000  0  6G 2G 7G24G 5G 9G 4
  19442636.422    -9273010.032 5  -7175611.49121
  18357681.2744  -15663333.33846 -12105295.10561
  16155406.6334  -29595652.26147 -22936672.22663
  17422745.0864  -21864980.35846 -16729570.25862
  16478257.5394  -33615279.93247 -25242052.88463
  16055905.8994  -38293367.84247 -29597040.12663
 97  1  8  3 57 29.9840000  0  6G 2G 7G24G 5G 9G 4
  19449171.031    -9238638.186 5  -7148828.24821
  18361317.3754  -15644231.99046 -12090410.94661
  16135325.6174  -29701173.70047 -23018896.70163
  17398894.3284  -21990309.17346 -16827229.07062
  16471035.5784  -33653218.72247 -25271615.58463
  16051699.0784  -38315488.33447 -29614276.86563
 97  1  8  3 57 59.9840000  0  6G 2G 7G24G 5G 9G 4
  19455747.3204   -9204037.15844  -7121866.41961
  18364955.0084  -15625104.21946 -12075506.19161
  16115336.6024  -29806217.88847 -23100749.31763
  17375073.9774  -22115503.40747 -16924783.01962
  16463917.5474  -33690615.34347 -25300755.80862
  16047597.7114  -38337041.96747 -29631071.90463
 97  1  8  3 58 29.9840000  0  6G 2G 7G24G 5G 9G 4
  19462388.9384   -9169213.81045  -7094731.35261
  18368601.0314  -15605944.21246 -12060576.31661
  16095438.9774  -29910776.41647 -23182223.47863
  17351275.3054  -22240559.40547 -17022229.25462
  16456908.5004  -33727469.30447 -25329473.18662
  16043600.7744  -38358043.60847 -29647436.80763
 97  1  8  3 58 59.9840000  0  6G 2G 7G24G 5G 9G 4
  19469050.7034   -9134166.23644  -7067421.58061
  18372255.4064  -15586735.48946 -12045608.49261
  16075640.3204  -30014828.13847 -23263302.73663
  17327501.9924  -22365481.03347 -17119570.77762
  16450002.8754  -33763753.83747 -25357746.85962
  16039709.8444  -38378483.70847 -29663364.16463
 97  1  8  3 59 29.9840000  0  6G 2G 7G24G 5G 9G 4
  19475760.1644   -9098895.96144  -7039938.26361
  18375920.6884  -15567477.22946 -12030602.06661
  16055934.9064  -30118369.70647 -23343984.47163
  17303756.7424  -22490275.73647 -17216813.40462
  16443204.9454  -33799457.93547 -25385568.23062
  16035931.5084  -38398357.36247 -29678850.12363
 97  1  8  3 59 59.9840000  0  6G 2G 7G24G 5G 9G 4
  19482517.3994   -9063378.72344  -7012262.52061
  18379598.3994  -15548156.31046 -12015546.80961
  16036333.0554  -30221380.17547 -23424252.36663
  17280037.3054  -22614922.11447 -17313940.45362
  16436527.2274  -33834563.38247 -25412923.13263
  16032259.8914  -38417643.55547 -29693878.32563
 97  1  8  4  0 29.9840000  0  6G 2G 7G24G 5G 9G 4
  19489329.211    -9027625.613 5  -6984402.96621
  18383282.883   -15528795.267 6 -12000460.29021
  16016831.0004  -30323864.71147 -23504110.42763
  17256342.992   -22739427.794 7 -17410957.85822
  16429958.883   -33869093.129 7 -25439829.43322
  16028699.289   -38436348.067 7 -29708453.26123
 97  1  8  4  0 59.9840000  0  6G 2G 7G24G 5G 9G 4
  19496180.399    -8991621.925 5  -6956348.19021
  18386976.3364  -15509388.22746 -11985337.93161
  15997426.7584  -30425820.69147 -23583556.64363
  17232682.0704  -22863777.95747 -17507854.08862
  16423492.9454  -33903060.05447 -25466297.17962
  16025256.0084  -38454447.63747 -29722556.82463
 97  1  8  4  1 29.9840000  0  6G 2G 7G24G 5G 9G 4
  19503071.5314   -8955371.17044  -6928100.86061
  18390675.961   -15489943.297 6 -11970186.04921
  15978128.1884  -30527247.84847 -23662590.78363
  17209050.2814  -22987963.23547 -17604621.83662
  16417131.4454  -33936479.76547 -25492338.51862
  16021923.7274  -38471960.85047 -29736203.48363
 97  1  8  4  1 59.9840000  0  6G 2G 7G24G 5G 9G 4
  19510018.297    -8918878.217 4  -6899664.82621
  18394382.2354  -15470463.85046 -11955007.27961
  15958926.3134  -30628145.30147 -23741212.16863
  17185453.3134  -23111979.41247 -17701257.81162
  16410878.3284  -33969358.31647 -25517958.18462
  16018697.8364  -38488903.31347 -29749405.40063
 97  1  8  4  2 29.9840000  0  6G 2G 7G24G 5G 9G 4
  19517004.945    -8882147.590 4  -6871043.57721
  18398096.6564  -15450945.57946 -11939798.24761
  15939827.6174  -30728516.79147 -23819423.71063
  17161886.5084  -23235814.81147 -17797752.93162
  16404720.6804  -34001696.31947 -25543156.64262
  16015583.2814  -38505282.17747 -29762168.15263
 97  1  8  4  2 59.9830000  0  6G 2G 7G24G 5G 9G 4
  19524043.019    -8845208.463 4  -6842259.87421
  18401814.1834  -15431404.19445 -11924571.20061
  15920825.7764  -30828383.73147 -23897242.09563
  17138350.3004  -23359485.03847 -17894119.33362
  16398674.9174  -34033481.36247 -25567924.21362
  16012565.2454  -38521136.94747 -29774522.50863
 97  1  8  4  3 29.9830000  0  6G 2G 7G24G 5G 9G 4
  19531109.331    -8808059.012 4  -6813312.26121
  18405543.7144  -15411826.05346 -11909315.52461
  15901916.8004  -30927735.86647 -23974659.33163
  17114850.9254  -23482982.58547 -17990351.20162
  16392740.0974  -34064671.71847 -25592228.38862
  16009646.3864  -38536471.26047 -29786471.32163
 97  1  8  4  3 59.9830000  0  6G 2G 7G24G 5G 9G 4
  19538216.3474   -8770700.84144  -6784201.99261
  18409273.4724  -15392212.15645 -11894031.99061
  15883110.6124  -31026570.91147 -24051673.63963
  17091388.1364  -23606290.28547 -18086435.12962
  16386918.7844  -34095249.41847 -25616055.17462
  16006831.2144  -38551269.29847 -29798002.25563
 97  1  8  4  4 29.9830000  0  5G 7G24G 5G 9G 4
  18413010.8474  -15372575.26045 -11878730.53761
  15864397.0034  -31124903.78847 -24128296.65263
  17067955.9954  -23729413.11747 -18182374.99762
  16381216.9484  -34125214.39447 -25639404.50362
  16004118.7694  -38565531.74547 -29809115.83763
 97  1  8  4  4 59.9830000  0  5G 7G24G 5G 9G 4
  18416751.5814  -15352911.45845 -11863408.10561
  15845783.8164  -31222728.68847 -24204523.83763
  17044561.5814  -23852358.91547 -18278176.91762
  16375629.9014  -34154571.54047 -25662280.21262
  16001506.7844  -38579254.26547 -29819808.72163
 97  1  8  4  5 29.9830000  0  5G 7G24G 5G 9G 4
  18420505.3084  -15333206.55946 -11848053.65461
  15827266.9954  -31320022.93747 -24280337.52963
  17021200.6364  -23975120.72747 -18373835.48062
  16370158.2304  -34183334.15347 -25684692.65162
  15999003.1674  -38592411.43147 -29830061.04863
 97  1  8  4  5 59.9830000  0  5G 7G24G 5G 9G 4
  18424258.2064  -15313472.75746 -11832676.68161
  15808851.3554  -31416798.10947 -24355746.74063
  16997869.4014  -24097734.56247 -18469378.73062
  16364793.9254  -34211538.16947 -25706669.80562
  15996604.2614  -38605006.73747 -29839875.57263
 97  1  8  4  6 29.9830000  0  5G 7G24G 5G 9G 4
  18428018.1514  -15293709.17146 -11817276.49561
  15790533.1444  -31513059.73747 -24430755.79363
  16974562.7694  -24220211.02047 -18564814.93162
  16359527.4414  -34239202.11647 -25728226.14262
  15994311.7694  -38617048.82247 -29849259.01663
 97  1  8  4  6 59.9830000  0  5G 7G24G 5G 9G 4
  18431789.9174  -15273893.81146 -11801835.96261
  15772322.0424  -31608767.75447 -24505333.45763
  16951283.3004  -24342535.96647 -18660133.07162
  16354367.1444  -34266315.72347 -25749353.63262
  15992126.2224  -38628534.32947 -29858208.76063
 97  1  8  4  7 29.9830000  0  6G30G 7G24G 5G 9G 4
  19719388.1284         -0.64853
  18435569.8004  -15254034.44046 -11786361.15461
  15754211.5034  -31703935.65747 -24579490.25963
  16928034.9254  -24464716.75547 -18755338.87662
  16349311.3234  -34292887.24247 -25770058.71662
  15990046.7694  -38639481.79147 -29866739.25163
 97  1  8  4  7 59.9830000  0  6G30G 7G24G 5G 9G 4
  19691464.159     -146765.803 3
  18439352.7924  -15234141.93146 -11770860.51761
  15736202.5194  -31798583.19247 -24653241.56463
  16904811.8944  -24586738.06347 -18850420.42162
  16344353.1364  -34318930.81847 -25790352.43162
  15988061.6204  -38649902.95747 -29874859.63563
 97  1  8  4  8 29.9830000  0  6G30G 7G24G 5G 9G 4
  19663523.3554    -293547.89242        -0.27171
  18443146.9014  -15214201.51346 -11755322.54761
  15718294.8704  -31892690.30147 -24726571.77663
  16881633.3084  -24708554.08847 -18945342.00062
  16339502.2224  -34344429.50347 -25810221.54962
  15986179.1674  -38659793.95447 -29882566.90863
 97  1  8  4  8 59.9830000  0  6G30G 7G24G 5G 9G 4
  19635603.9804    -440318.38543   -114366.89861
  18446949.5584  -15194211.82146 -11739746.17761
  15700491.3394  -31986243.12447 -24799470.07263
  16858492.5264  -24830159.81647 -19040099.70462
  16334756.9014  -34369374.96447 -25829659.58162
  15984399.1514  -38669152.55947 -29889859.32663
 97  1  8  4  9 29.9830000  0  6G30G 7G24G 5G 9G 4
  19607671.917     -587093.598 3   -228737.14121
  18450757.9334  -15174208.59146 -11724159.25261
  15682784.276   -32079288.405 7 -24871972.87123
  16835389.6514  -24951564.48147 -19134700.74862
  16330112.2614  -34393789.98347 -25848684.28062
  15982715.5114  -38677995.59147 -29896750.00463
 97  1  8  4  9 59.9830000  0  6G30G 7G24G 5G 9G 4
  19579745.9414    -733870.70443   -343108.91161
  18454564.8164  -15154199.34346 -11708567.64061
  15665178.7374  -32171810.46847 -24944067.97563
  16812325.6054  -25072758.09147 -19229137.32262
  16325569.0974  -34417662.87847 -25867286.54962
  15981128.8784  -38686324.32047 -29903239.92063
 97  1  8  4 10 29.9830000  0  6G30G 7G24G 5G 9G 4
  19551812.292     -880638.102 3   -457473.08221
  18458377.3314  -15134172.64646 -11692962.42561
  15647676.6284  -32263789.07247 -25015739.60563
  16789301.1914  -25193746.45247 -19323413.97162
  16321135.4874  -34440957.58047 -25885438.27462
  15979643.7374  -38694140.25847 -29909330.26463
 97  1  8  4 10 59.9830000  0  6G30G 7G24G 5G 9G 4
  19523877.941    -1027414.410 3   -571844.23521
  18462190.8704  -15114131.47445 -11677345.93961
  15630273.7144  -32355239.11947 -25086999.37163
  16766315.8864  -25314545.85847 -19417543.37162
  16316812.9564  -34463676.77747 -25903141.55762
  15978253.6364  -38701438.54147 -29915017.23463
 97  1  8  4 11 29.9830000  0  6G30G 7G24G 5G 9G 4
  19495945.7924   -1174220.60944   -686238.66461
  18466007.9564  -15094067.10645 -11661711.38161
  15612969.4414  -32446169.65847 -25157854.32563
  16743368.5034  -25435153.93947 -19511523.69962
  16312598.0894  -34485825.42047 -25920400.24862
  15976963.9644  -38708217.07047 -29920299.21263
 97  1  8  4 11 59.9830000  0  6G30G 7G24G 5G 9G 4
  19468003.612    -1321060.805 4   -800659.57121
  18469833.1674  -15073966.64445 -11646048.69761
  15595764.7304  -32536579.32847 -25228303.40763
  16720448.9484  -25555581.06247 -19605363.01662
  16308489.6124  -34507413.20647 -25937221.90362
  15975772.9334  -38714476.82447 -29925176.93863
 97  1  8  4 12 29.9830000  0  6G30G 7G24G 5G 9G 4
  19440055.675    -1467918.908 3   -915094.46321
  18473667.675   -15053818.311 5 -11630348.71221
  15578656.8474  -32626474.83247 -25298351.84963
  16697570.8704  -25675818.47347 -19699054.50362
  16304485.9804  -34528453.77746 -25953617.16262
  15974683.3084  -38720196.19447 -29929633.58963
 97  1  8  4 12 59.9830000  0  6G30G 7G24G 5G 9G 4
  19412107.6514   -1614789.28544  -1029538.92561
  18477509.2694  -15033630.90845 -11614618.27961
  15561647.3864  -32715859.59847 -25368002.29963
  16674726.2764  -25795858.60047 -19792592.27362
  16300580.6674  -34548971.06147 -25969604.66462
  15973699.2844  -38725367.98247 -29933663.55263
 97  1  8  4 13 29.9830000  0  6G30G 7G24G 5G 9G 4
  19384160.886    -1761665.332 4  -1143987.79621
  18481355.3784  -15013413.24345 -11598864.26661
  15544740.5034  -32804713.80247 -25437239.33663
  16651922.5584  -25915692.31247 -19885969.19162
  16296775.1914  -34568968.73847 -25985187.28162
  15972819.3314  -38730009.10847 -29937280.01364
 97  1  8  4 13 59.9830000  0  6G30G 7G24G 5G 9G 4
  19356205.292    -1908543.423 4  -1258438.25421
  18485208.1124  -14993174.88145 -11583094.11961
  15527937.1364  -32893020.75547 -25506049.93863
  16629159.2534  -26035308.13447 -19979176.31762
  16293070.5114  -34588439.36847 -26000359.20162
  15972035.1124  -38734125.04247 -29940487.23764
 97  1  8  4 14 29.9830000  0  6G30G 7G24G 5G 9G 4
  19328255.7614   -2055437.49745  -1372901.17261
  18489057.9874  -14972942.64845 -11567328.75661
  15511236.2064  -32980775.39647 -25574430.16763
  16606441.3314  -26154706.28847 -20072213.84762
  16289463.9874  -34607380.38247 -26015118.43762
  15971348.9644  -38737732.37747 -29943298.15163
 97  1  8  4 14 59.9830000  0  6G30G 7G24G 5G 9G 4
  19300302.386    -2202334.044 4  -1487366.03721
  18492911.3164  -14952705.40945 -11551559.50161
  15494647.9874  -33067950.36047 -25642358.70563
  16583762.6754  -26273874.66347 -20165072.31663
  16285965.3084  -34625769.28647 -26029447.46662
  15970760.3164  -38740833.85647 -29945714.89063
 97  1  8  4 15 29.9830000  0  6G30G 7G24G 5G 9G 4
  19272344.2924   -2349240.08644  -1601838.30761
  18496760.3474  -14932460.35445 -11535784.14761
  15478167.6284  -33154560.53347 -25709847.13663
  16561128.2614  -26392832.37147 -20257766.63262
  16282569.3394  -34643612.50746 -26043351.27862
  15970258.2454  -38743456.66747 -29947758.63763
 97  1  8  4 15 59.9830000  0  6G30G 7G24G 5G 9G 4
  19244394.2374   -2496147.46744  -1716311.62161
  18500616.4874  -14912201.51645 -11519998.04361
  15461787.9484  -33240623.80747 -25776909.41963
  16538527.8554  -26511587.73447 -20350303.28063
  16279277.5504  -34660907.06847 -26056827.57262
  15969852.7144  -38745601.35447 -29949429.82163
 97  1  8  4 16 29.9830000  0  6G30G 7G24G 5G 9G 4
  19216442.253    -2643031.974 4  -1830767.08521
  18504479.8084  -14891905.85345 -11504183.25161
  15445518.4414  -33326137.27547 -25843543.27863
  16515966.1284  -26630135.09647 -20442677.84963
  16276094.2374  -34677651.23647 -26069874.98162
  15969531.4644  -38747254.62647 -29950718.07863
 97  1  8  4 16 59.9830000  0  6G30G 7G24G 5G 9G 4
  19188499.605    -2789873.481 4  -1945189.00421
  18508353.6514  -14871542.45745 -11488315.68461
  15429347.9174  -33411104.61947 -25909751.58563
  16493447.6514  -26748478.86247 -20534893.77463
  16273014.1054  -34693842.85147 -26082491.83662
  15969315.6514  -38748400.68847 -29951611.11563
 97  1  8  4 17 29.9830000  0  6G30G 7G24G 5G 9G 4
  19160556.355    -2936695.641 3  -2059595.89321
  18512234.3234  -14851132.15545 -11472411.57361
  15413275.8864  -33495561.47447 -25975562.11363
  16470965.3864  -26866635.24247 -20626963.68763
  16270032.6754  -34709493.25646 -26094686.96263
  15969195.0734  -38749050.67447 -29952117.59763
 97  1  8  4 17 59.9830000  0  6G30G 7G24G 5G 9G 4
  19132620.9954   -3083506.62843  -2173994.08761
  18516127.7374  -14830689.28245 -11456482.07561
  15397304.5034  -33579497.96147 -26040967.15963
  16448520.0974  -26984580.10447 -20718868.77563
  16267157.8084  -34724594.88647 -26106454.47362
  15969168.7304  -38749185.19547
 97  1  8  4 18 29.9820000  0  7G30G 7G24G 5G 9G 4G10
  19104685.568    -3230305.577 3  -2288382.80721
  18520023.5534  -14810221.59845 -11440533.23761
  15381429.9904  -33662914.42647 -26105966.99163
  16426119.4284  -27102305.60847 -20810602.93963
  16264391.7094  -34739150.18747 -26117796.27262
  15969239.7014  -38748800.35347
  19538070.3894         -0.97753
 97  1  8  4 18 59.9820000  0  7G30G 7G24G 5G 9G 4G10
  19076751.467    -3377119.979 3  -2402783.65321
  18523917.8344  -14789743.67645 -11424576.42861
  15365654.9124  -33745817.41247 -26170566.71163
  16403755.4284  -27219816.96147 -20902170.23063
  16261724.3034  -34753159.22447 -26128712.41462
  15969411.6544  -38747910.52047 -29951229.16963
  19511269.592     -140853.126 3
 97  1  8  4 19 29.9820000  0  7G30G 7G24G 5G 9G 4G10
  19048812.615    -3523936.646 3  -2517186.22221
  18527821.170   -14769261.041 5 -11408615.94421
  15349983.9044  -33828177.58547 -26234743.45463
  16381440.2564  -27337079.36247 -20993543.53363
  16259160.4364  -34766623.13646 -26139203.77662
  15969675.0454  -38746523.45247 -29950148.33563
  19484449.1234    -281766.33443        -0.27571
 97  1  8  4 19 59.9820000  0  7G30G 7G24G 5G 9G 4G10
  19020870.967    -3670755.718 4  -2631590.69521
  18531720.756   -14748770.904 5 -11392649.61821
  15334414.0374  -33909987.24647 -26298491.23963
  16359173.0684  -27454093.48447 -21084723.37163
  16256700.4044  -34779571.29847 -26149293.27162
  15970032.8734  -38744651.37547 -29948689.57263
  19457615.787     -422746.390 3   -109854.86321
 97  1  8  4 20 29.9820000  0  7G30G 7G24G 5G 9G 4G10
  18992934.6934   -3817566.80944  -2745988.95761
  18535622.7954  -14728257.25045 -11376664.95661
  15318949.7404  -33991254.60547 -26361816.44363
  16336950.0454  -27570877.31247 -21175723.75463
  16254327.8584  -34792028.19146 -26158999.95162
  15970478.9434  -38742298.51347 -29946856.16963
  19430786.3114    -563795.08743   -219762.90561
 97  1  8  4 20 59.9820000  0  7G30G 7G24G 5G 9G 4G10
  18965003.4984   -3964355.87045  -2860370.03761
  18539531.2724  -14707705.59145 -11360650.69361
  15303593.6474  -34071950.13547 -26424696.06363
  16314774.1704  -27687420.19647 -21266536.39163
  16252051.1234  -34803987.73947 -26168319.09062
  15971021.1474  -38739457.13647 -29944642.10863
  19403922.3344                         -0.26552
 97  1  8  4 21 29.9820000  0  7G30G 7G24G 5G 9G 4G10
  18937073.4904   -4111118.86945  -2974730.80961
  18543448.2644  -14687105.55145 -11344598.73261
  15288344.4284  -34152075.42147 -26487131.34263
  16292641.7874  -27803728.46747 -21357166.20363
  16249871.7724  -34815448.75646 -26177249.75562
  15971653.0224  -38736124.33247 -29942045.11663
  19377067.3344    -141166.89343        -0.36471
 97  1  8  4 21 59.9820000  0  7G30G 7G24G 5G 9G 4G10
  18909146.709    -4257860.019 5  -3089074.59321
  18547381.826   -14666449.318 5 -11328502.98721
  15273203.5924  -34231636.57947 -26549127.03463
  16270552.8264  -27919804.41347 -21447615.01363
  16247785.8504  -34826398.37647 -26185781.93763
  15972386.3654  -38732287.65847 -29939055.49463
  19350186.2334    -282394.83343   -110048.10461
 97  1  8  4 22 29.9820000  0  7G30G 7G24G 5G 9G 4G10
  18881226.943    -4404596.609 5  -3203414.79721
  18551316.904   -14645768.371 5 -11312387.99721
  15258170.1624  -34310646.26647 -26610693.01563
  16248504.4984  -28035671.98847 -21537901.42663
  16245804.3814  -34836831.53547 -26193911.68663
  15973205.1704  -38727972.77047 -29935693.24363
  19323303.3424    -423689.23743   -220147.61061
 97  1  8  4 22 59.9820000  0  7G30G 7G24G 5G 9G 4G10
  18853304.9364   -4551321.42045  -3317745.83161
  18555252.2334  -14625072.84745 -11296261.62861
  15243240.9754  -34389093.48647 -26671820.71462
  16226499.2954  -28151308.88147 -21628008.09363
  16243917.9514  -34846722.11347 -26201618.63662
  15974116.6864  -38723184.43447 -29931962.06463
  19296405.2874    -565040.95743   -330291.76761
 97  1  8  4 23 29.9820000  0  7G30G 7G24G 5G 9G 4G10
  18825387.4434   -4698030.81745  -3432064.83061
  18559195.7174  -14604358.40345 -11280120.51161
  15228419.3264  -34466994.94147 -26732523.13962
  16204538.7564  -28266699.84547 -21717923.14163
  16242141.4124  -34856076.31047 -26208907.64362
  15975117.2564  -38717923.15847 -29927862.37263
  19269488.100     -706451.697 2   -440481.94421
 97  1  8  4 23 59.9820000  0  7G30G 7G24G 5G 9G 4G10
  18797474.4904   -4844709.43645  -3546359.87261
  18563137.8344  -14583642.12245 -11263977.96561
  15213696.3114  -34544357.70847 -26792805.80162
  16182631.6704  -28381841.68247 -21807644.05163
  16240459.4674  -34864906.56847 -26215788.36263
  15976209.2954  -38712195.74247 -29923399.45263
  19242580.600     -847903.720 4   -550704.29521
 97  1  8  4 24 29.9820000  0  7G30G 7G24G 5G 9G 4G10
  18769577.709    -4991326.169 5  -3660606.66621
  18567084.3654  -14562920.99145 -11247831.64461
  15199078.3734  -34621183.70547 -26852670.20462
  16160766.7484  -28496725.80647 -21897164.13963
  16238880.6934  -34873214.00047 -26222261.70262
  15977384.4284  -38706009.87947 -29918579.29563
  19215660.5764    -989386.98144   -660950.97061
 97  1  8  4 24 59.9820000  0  7G30G 7G24G 5G 9G 4G10
  18741684.6544   -5137873.55245  -3774799.43961
  18571032.389   -14542185.794 5 -11231674.37121
  15184558.5924  -34697478.47247 -26912120.65762
  16138955.4754  -28611348.97347 -21986480.88863
  16237394.6234  -34881013.24047 -26228339.03763
  15978648.6234  -38699369.96347 -29913405.33363
  19188721.865    -1130902.965 3   -771223.14721
 97  1  8  4 25 29.9820000  0  7G30G 7G24G 5G 9G 4G10
  18713815.8184   -5284356.08945  -3888941.68861
  18574975.9904  -14521436.12945 -11215505.82961
  15170142.6154  -34773244.98447 -26971159.49062
  16117190.3264  -28725729.60547 -22075608.66163
  16236005.3184  -34888317.02947 -26234030.31663
  15979995.3034  -38692291.68047 -29907889.79063
  19161793.5454   -1272454.26144   -881522.83461
 97  1  8  4 25 59.9820000  0  7G30G 7G24G 5G 9G 4G10
  18685955.1154   -5430745.10044  -4003011.03461
  18578932.4434  -14500661.82345 -11199318.07161
  15155828.2334  -34848453.49947 -27029763.52462
  16095474.1704  -28839855.87047 -22164538.22062
  16234717.201   -34895090.208 7 -26239308.14222
  15981427.1314  -38684758.95247 -29902020.13562
  19134850.4904   -1414023.55644   -991836.58761
 97  1  8  4 26 29.9820000  0  7G30G 7G24G 5G 9G 4G10
  18658108.662    -5577070.269 4  -4117030.63121
  18582887.139   -14479858.000 5 -11183107.32921
  15141622.7874  -34923105.30747 -27087933.75662
  16073803.5534  -28953730.01847 -22253271.31962
  16233529.3264  -34901331.60147 -26244171.57361
  15982946.5764  -38676782.43447 -29895804.66962
  19107901.1784   -1555625.52943  -1102175.76661
 97  1  8  4 26 59.9820000  0  7G30G 7G24G 5G 9G 4G10
  18630275.5374   -5723369.81244  -4231030.24361
  18586850.5454  -14459033.83245 -11166880.72961
  15127522.3184  -34997202.80247 -27145672.05262
  16052179.1394  -29067363.79647 -22341817.12562
  16232437.4204  -34907054.91547 -26248631.30961
  15984547.3894  -38668368.54247 -29889248.39362
  19080948.725    -1697271.272 4  -1212549.05721
 97  1  8  4 27 29.9820000  0  7G30G 7G24G 5G 9G 4G10
  18602434.3034   -5869649.89444  -4345014.70261
  18590814.287   -14438196.334 5 -11150643.73521
  15113526.6704  -35070754.37647 -27202984.95862
  16030605.0144  -29180744.69947 -22430165.87162
  16231445.5064  -34912262.15147 -26252688.89362
  15986235.0924  -38659510.51347 -29882346.03062
  19053983.928    -1838961.863 4  -1322957.32621
 97  1  8  4 27 59.9820000  0  7G30G 7G24G 5G 9G 4G10
  18574605.787    -6015902.472 5  -4458977.71221
  18594790.1864  -14417323.47245 -11134379.19061
  15099633.6704  -35143764.25147 -27259875.75562
  16009080.3894  -29293850.72547 -22518300.44463
  16230556.4754  -34916953.15347 -26256344.23762
  15988007.7334  -38650190.52147 -29875083.69563
  19027021.2794   -1980675.67544  -1433383.64161
 97  1  8  4 28 29.9820000  0  7G30G 7G24G 5G 9G 4G10
  18546770.217    -6162157.068 5  -4572942.32621
  18598765.2014  -14396421.35145 -11118091.83961
  15085838.6704  -35216248.77247 -27316357.20162
  15987608.5224  -29406692.36547 -22606228.99963
  16229753.7564  -34921169.12247 -26259629.41962
  15989866.0614  -38640427.30847 -29867475.99563
  19000046.7174   -2122417.79344  -1543832.07561
 97  1  8  4 28 59.9820000  0  7G30G 7G24G 5G 9G 4G10
  18518948.139    -6308379.927 5  -4686882.21721
  18602753.7644  -14375481.99845 -11101775.47761
  15072149.8424  -35288194.87047 -27372419.09762
  15966186.6784  -29519257.95147 -22693942.44163
  16229043.4364  -34924910.98847 -26262545.16762
  15991811.7874  -38630197.07047 -29859504.38363
  18973068.8814   -2264176.42644  -1654293.35261
 97  1  8  4 29 29.9820000  0  7G30G 7G24G 5G 9G 4G10
  18491131.1154   -6454560.79245  -4800789.38161
  18606744.5614  -14354499.66445 -11085425.62361
  15058559.4514  -35359606.36447 -27428064.40562
  15944819.0614  -29631548.58647 -22781441.64263
  16228420.3114  -34928184.48647 -26265095.95762
  15993846.4364  -38619499.08447 -29851168.29363
  18946093.0844   -2405943.25444  -1764761.03461
 97  1  8  4 29 59.9820000  0  7G30G 7G24G 5G 9G 4G10
  18463317.248    -6600707.057 5  -4914669.59821
  18610742.428   -14333477.570 5 -11069044.78721
  15045073.6084  -35430480.38847 -27483290.91162
  15923499.0224  -29743579.59047 -22868738.52863
  16227885.0374  -34930996.98647 -26267287.52062
  15995970.9204  -38608346.01547 -29842477.59563
  18919113.9514   -2547723.30444  -1875239.00561
 97  1  8  4 30 29.9820000  0  7G30G 7G24G 5G 9G 4G10
  18435518.9984   -6746809.43845  -5028515.60061
  18614748.9124  -14312430.38645 -11052644.40361
  15031693.8424  -35500794.96347 -27538081.48262
  15902229.6544  -29855353.28947 -22955834.92063
  16227441.7334  -34933329.63247 -26269105.17562
  15998178.4594  -38596731.73647 -29833427.51063
  18892128.826    -2689521.954 4  -1985731.44821
 97  1  8  4 30 59.9820000  0  7G30G 7G24G 5G 9G 4G10
  18407725.865    -6892861.521 5  -5142322.41121
  18618760.0684  -14291369.74845 -11036233.53861
  15018415.6864  -35570566.91947 -27592449.23762
  15881007.4364  -29966878.76247 -23042737.88963
  16227086.1154  -34935181.62546 -26270548.29462
  16000475.4044  -38584666.14747 -29824025.75463
  18865145.623    -2831350.626 5  -2096247.30121
 97  1  8  4 31 29.9820000  0  7G30G 7G24G 5G 9G 4G10
  18379946.2094   -7038844.45345  -5256075.35161
  18622766.2334  -14270286.12045 -11019804.75361
  15005244.6394  -35639780.05647 -27646381.54262
  15859835.7094  -30078139.65347 -23129434.69663
  16226828.8264  -34936535.96347 -26271603.63162
  16002855.5144  -38572152.45647 -29814274.82863
  18838150.373    -2973188.820 4  -2206770.58621
 97  1  8  4 31 59.9820000  0  7G30G 7G24G 5G 9G 4G10
  18352178.1154   -7184756.15245  -5369772.77561
  18626780.654   -14249202.826 5 -11003376.24621
  14992180.7874  -35708430.97047 -27699875.75062
  15838713.1154  -30189136.99047 -23215926.12163
  16226668.7794  -34937400.05647 -26272276.96262
  16005318.1934  -38559206.81947 -29804187.32163
  18811155.092    -3115049.521 4  -2317311.39121
 97  1  8  4 32 29.9820000  0  7G30G 7G24G 5G 9G 4G10
  18324427.498    -7330600.158 5  -5483417.43521
  18630797.795   -14228116.626 5 -10986945.46521
  14979225.3894  -35776511.47547 -27752925.47662
  15817641.5924  -30299859.57147 -23302203.45863
  16226595.1084  -34937786.32247
  16007863.4674  -38545838.21147 -29793770.22963
  18784153.8184   -3256929.43244  -2427867.16061
 97  1  8  4 32 59.9820000  0  7G30G 7G24G 5G 9G 4G10
  18296689.9754   -7476365.01345  -5597000.44161
  18634812.967   -14207012.905 5 -10970501.03321
  14966382.8114  -35844002.57747 -27805515.93062
  15796629.8114  -30410285.47047 -23388249.61163
  16226605.7094  -34937705.86447
  16010487.4834  -38532051.78247 -29783027.55863
  18757163.889    -3398802.066 4  -2538417.26521
 97  1  8  4 33 29.9820000  0  7G30G 7G24G 5G 9G 4G10
  18268962.4834   -7622077.23545  -5710542.43461
  18638821.811   -14185915.278 5 -10954061.34321
  14953650.3814  -35910910.04047 -27857651.60762
  15775671.1704  -30520425.60347 -23474073.09663
  16226709.6864  -34937168.78347 -26272096.77462
  16013187.8344  -38517870.81647 -29771977.46663
  18730159.647    -3540670.641 4  -2648964.23721
 97  1  8  4 33 59.9820000  0  7G30G 7G24G 5G 9G 4G10
  18241234.1314   -7767756.94745  -5824059.09661
  18642840.2094  -14164807.29545 -10937613.59261
  14941028.7874  -35977236.08047 -27909334.22162
  15754769.6084  -30630259.69047 -23559658.10063
  16226898.1624  -34936165.31247 -26271314.85762
  16015963.8504  -38503283.44947 -29760610.69063
  18703166.8894   -3682522.56844  -2759498.18861
 97  1  8  4 34 29.9810000  0  7G30G 7G24G 5G 9G 4G10
  18213526.704    -7913390.279 5  -5937539.60921
  18646859.0484  -14143674.66245 -10921146.63261
  14928516.4854  -36042992.71347 -27960573.14062
  15733929.7354  -30739773.32247 -23644993.39363
  16227183.1654  -34934680.85147 -26270158.14162
  16018819.6424  -38488267.21547 -29748909.72863
  18676180.4784   -3824325.12144  -2869993.68061
 97  1  8  4 34 59.9810000  0  7G30G 7G24G 5G 9G 4G10
  18185819.2124   -8058967.48045  -6050976.38661
  18650889.017   -14122520.451 5 -10904662.86321
  14916105.3764  -36108207.19747 -28011389.61162
  15713150.5094  -30848976.55647 -23730086.81763
  16227560.2984  -34932694.73846 -26268610.52862
  16021760.2434  -38472810.99547 -29736865.92063
  18649210.4234   -3966079.16444  -2980451.35661
 97  1  8  4 35 29.9810000  0  7G30G 7G24G 5G 9G 4G10
  18158127.6344   -8204484.48745  -6164366.26061
  18654919.7594  -14101335.21044 -10888154.90961
  14903795.9934  -36172896.13547 -28061796.56062
  15692427.3454  -30957870.59547 -23814939.30763
  16228035.5874  -34930195.36647 -26266662.97662
  16024787.9624  -38456907.57447 -29724473.63763
  18622244.8684   -4107786.36844  -3090872.56161
 97  1  8  4 35 59.9810000  0  7G30G 7G24G 5G 9G 4G10
  18130456.2434   -8349920.28545  -6277692.87361
  18658960.321   -14080110.300 4 -10871616.05821
  14891585.3924  -36237061.91347 -28111795.86562
  15671764.0254  -31066461.38247 -23899555.50663
  16228606.1654  -34927195.86547 -26264325.71562
  16027898.1654  -38440560.35747 -29711735.55463
  18595290.470    -4249445.290 4  -3201256.14521
 97  1  8  4 36 29.9810000  0  7G30G 7G24G 5G 9G 4G10
  18102797.4314   -8495249.49845  -6390936.42261
  18662998.110   -14058858.156 3 -10855055.99221
  14879473.5564  -36300706.71747 -28161389.21362
  15651151.4464  -31174776.99947 -23983957.28463
  16229273.4464  -34923712.98947 -26261611.78962
  16031089.0874  -38423788.37547 -29698666.48063
  18568340.1574   -4391067.82744  -3311611.32961
 97  1  8  4 36 59.9810000  0  7G30G 7G24G 5G 9G 4G10
  18075161.9854   -8640482.67045  -6504105.12461
  18667052.3144  -14037574.97444 -10838471.67361
  14867464.2204  -36363821.20647 -28210569.32363
  15630590.8454  -31282824.68247 -24068150.28063
  16230020.6574  -34919760.90646 -26258532.25662
  16034358.1344  -38406619.75747 -29685288.33063
  18541391.8214   -4532673.60745  -3421953.53161
 97  1  8  4 37 29.9810000  0  7G30G 7G24G 5G 9G 4G10
  18047539.9154   -8785633.35245  -6617209.55361
  18671114.2284  -14016256.66544 -10821860.05261
  14855559.9854  -36426389.33447 -28259323.69362
  15610082.079   -31390602.892 7 -24152133.29523
  16230860.2594  -34915357.94746 -26255101.38262
  16037696.0874  -38389062.73447 -29671607.53763
  18514446.0254   -4674262.75045  -3532282.70661
 97  1  8  4 37 59.9810000  0  7G30G 7G24G 5G 9G 4G10
  18019936.1654   -8930705.20345  -6730252.55961
  18675171.642   -13994908.686 4 -10805225.32421
  14843753.5014  -36488417.30347 -28307657.17362
  15589624.8064  -31498104.58247 -24235900.84763
  16231781.3684  -34910507.12446 -26251321.53662
  16041114.2904  -38371121.91547 -29657627.68263
  18487506.7204   -4815840.33945  -3642602.89361
 97  1  8  4 38 29.9810000  0  7G30G 7G24G 5G 9G 4G10
  17992346.4074   -9075695.55245  -6843232.05261
  18679240.501   -13973509.397 4 -10788550.59221
  14832057.6654  -36549884.69847 -28355553.83562
  15569224.6264  -31605303.49747 -24319432.46563
  16232796.3294  -34905186.07446 -26247175.26962
  16044604.5954  -38352770.74747 -29643328.07163
  18460570.2984   -4957386.22645  -3752898.38561
 97  1  8  4 38 59.9810000  0  7G30G 7G24G 5G 9G 4G10
  17964768.6184   -9220620.54845  -6956160.59961
  18683324.782   -13952056.616 4 -10771834.16121
  14820471.0794  -36610781.75347 -28403006.08062
  15548888.2434  -31712175.89447 -24402709.64963
  16233895.1344  -34899389.86946 -26242658.75362
  16048174.5174  -38334009.95247 -29628709.27263
  18433641.2824   -5098883.56445  -3863156.04461
 97  1  8  4 39 29.9810000  0  7G30G 7G24G 5G 9G 4G10
  17937198.0714   -9365493.39145  -7069048.52861
  18687413.7674  -13930583.52444 -10755101.92361
  14808984.7904  -36671133.86847 -28450033.69362
  15528607.4074  -31818747.62247 -24485752.55763
  16235089.3604  -34893142.28346 -26237790.51162
  16051821.1104  -38314859.36347 -29613786.73263
  18406724.1894   -5240350.88345  -3973390.31861
 97  1  8  4 39 59.9810000  0  7G30G 7G24G 5G 9G 4G10
  17909646.2204   -9510281.15245  -7181870.14061
  18691502.8454  -13909074.85445 -10738341.93061
  14797605.0324  -36730930.54447 -28496628.49962
  15508389.3144  -31924994.07547 -24568541.99563
  16236369.8844  -34886412.52746 -26232546.56762
  16055538.7284  -38295299.28447 -29598545.11963
  18379814.978    -5381764.039 5  -4083582.38521
 97  1  8  4 40 29.9810000  0  7G30G 7G24G 5G 9G 4G10
  17882110.9074   -9654975.34345  -7294618.85361
  18695599.1734  -13887543.07445 -10721563.94461
  14786334.7354  -36790158.86047 -28542780.42662
  15488234.9004  -32030914.50147 -24651077.38363
  16237737.1654  -34879215.31546 -26226938.35662
  16059342.2284  -38275335.18747 -29582988.67763
  18352914.6104   -5523114.80345  -4193725.83761
 97  1  8  4 40 59.9810000  0  7G30G 7G24G 5G 9G 4G10
  17854597.689    -9799567.771 5  -7407288.24621
  18699701.860   -13866000.187 5 -10704777.26921
  14775172.0094  -36848827.12147 -28588495.95162
  15468140.9544  -32136502.98347 -24733354.12363
  16239195.1264  -34871554.99547 -26220969.29362
  16063214.9464  -38254974.66347 -29567123.33263
  18326030.7594   -5664410.05445  -4303826.02561
 97  1  8  4 41 29.9810000  0  7G30G 7G24G 5G 9G 4G10
  17827102.142    -9944048.919 5  -7519870.94821
  18703803.767   -13844445.015 5 -10687981.12421
  14764110.5484  -36906949.48947 -28633786.09862
  15448109.4704  -32241769.43147 -24815379.92863
  16240741.6504  -34863443.12347 -26214648.35862
  16067163.3534  -38234218.10147 -29550949.39663
  18299146.8374   -5805669.36245  -4413898.21361
 97  1  8  4 41 59.9810000  0  7G30G 7G24G 5G 9G 4G10
  17799630.1654  -10088421.08545  -7632368.73961
  18707909.1424  -13822876.10745
  14753154.2984  -36964522.86547 -28678648.45862
  15428143.8214  -32346695.97947 -24897140.87963
  16242367.3844  -34854890.85947 -26207984.26262
  16071185.0874  -38213077.71847 -29534476.37163
  18272276.2044   -5946884.62945  -4523936.09561
 97  1  8  4 42 29.9810000  0  7G30G 7G24G 5G 9G 4G10
  17772177.9704  -10232679.60645  -7744777.97161
  18712018.8684  -13801283.40945
  14742304.3534  -37021536.12247 -28723074.36762
  15408243.0404  -32451270.60447 -24978627.60463
  16244074.0254  -34845909.73946 -26200985.99762
  16075281.2284  -38191566.48447 -29517714.37563
  18245411.6344   -6088052.28445  -4633936.84561
 97  1  8  4 42 59.9810000  0  7G30G 7G24G 5G 9G 4G10
  17744746.7904  -10376836.56145  -7857108.05061
  18716132.3684  -13779662.76545
  14731559.0644  -37078004.82347 -28767075.94762
  15388406.9784  -32555506.46247 -25059850.34563
  16245863.5014  -34836504.36646 -26193657.14762
  16079442.5874  -38169697.95147 -29500673.95963
  18218558.0794   -6229174.78145  -4743902.42161
 97  1  8  4 43 29.9810000  0  7G30G 7G24G 5G 9G 4G10
  17717337.2204  -10520884.21145  -7969352.96061
  18720253.5094  -13758010.95845
  14720917.2434  -37133927.41547 -28810651.98462
  15368638.5014  -32659397.98747 -25140804.78463
  16247733.9464  -34826674.83446 -26185997.78262
  16083673.0874  -38147467.08947 -29483351.21163
  18191716.4624   -6370227.46845  -4853813.56761
 97  1  8  4 43 59.9810000  0  7G30G 7G24G 5G 9G 4G10
  17689945.9704  -10664827.25145  -8081516.37061
  18724379.7674  -13736334.57845        -0.30971
  14710379.1734  -37189307.70747 -28853805.45762
  15348934.4234  -32762940.29247 -25221487.09663
  16249686.6894  -34816420.51846 -26178007.41762
  16087973.6504  -38124867.91847 -29465741.46863
  18164890.1574   -6511189.96145  -4963654.46361
 97  1  8  4 44 29.9810000  0  7G30G 7G24G 5G 9G 4G10
  17662569.759   -10808694.994 5  -8193621.10221
  18728500.970   -13714656.836 5     16891.39221
  14699939.9934  -37244172.81147 -28896557.48262
  15329288.7204  -32866171.84447 -25301927.27363
  16251713.9314  -34805761.56346 -26169701.74762
  16092342.4004  -38101901.30347 -29447845.40863
  18138080.7354   -6652078.37245  -5073437.63361
 97  1  8  4 44 59.9810000  0  7G30G 7G24G 5G 9G 4G10
  17635207.6814  -10952467.38645  -8305651.54461
  18732632.9934  -13692950.83845     33805.14961
  14689600.2824  -37298500.45947 -28938890.70762
  15309707.9074  -32969076.64447 -25382112.83163
  16253827.0714  -34794662.92946 -26161053.47362
  16096795.7124  -38078515.48847 -29429622.69263
  18111291.3684   -6792856.20745  -5183134.65261
 97  1  8  4 45 29.9810000  0  7G30G 7G24G 5G 9G 4G10
  17607866.0644  -11096153.32345  -8417614.59661
  18736769.5174  -13671225.82945     50733.69461
  14679363.1734  -37352302.39447 -28980814.29162
  15290186.5484  -33071660.94647 -25462048.65263
  16256019.8214  -34783139.71746 -26152074.36362
  16101319.4934  -38054729.19047 -29411087.91862
  18084523.7204   -6933531.13345  -5292751.47361
 97  1  8  4 45 59.9810000  0  7G30G 7G24G 5G 9G 4G10
  17580541.5564  -11239747.04445  -8529505.82061
  18740905.5644  -13649474.50145     67682.78261
  14669226.1654  -37405574.51347 -29022325.02562
  15270725.0644  -33173933.63447 -25541741.66163
  16258293.5324  -34771189.93046 -26142762.84662
  16105918.3454  -38030558.86547 -29392253.89362
  18057771.462    -7074110.335 5  -5402293.68221
 97  1  8  4 46 29.9810000  0  6G30G24G 5G 9G 4G10
  17553233.9704  -11383244.93445  -8641322.34861
  14659188.3374  -37458313.25247 -29063420.14662
  15251321.3534  -33275899.20547 -25621195.35663
  16260651.5794  -34758808.70846 -26133115.15462
  16110589.6424  -38006023.10747 -29373135.12162
  18031036.634    -7214595.668 5  -5511762.78421
 97  1  8  4 46 59.9810000  0  6G30G24G 5G 9G 4G10
  17525951.0094  -11526611.56145  -8753036.58461
  14649257.3144  -37510508.00647 -29104091.37362
  15231981.5324  -33377532.18547 -25700389.89863
  16263092.6894  -34745980.14446 -26123118.87362
  16115323.6814  -37981129.98747 -29353737.89362
  18004325.3764   -7354971.92945  -5621146.87261
 97  1  8  4 47 29.9810000  0  6G30G24G 5G 9G 4G10
  17498699.0794  -11669838.87045  -8864642.27561
  14639425.3844  -37562169.89947 -29144347.39062
  15212703.5794  -33478841.17547 -25779331.96663
  16265614.5484  -34732728.80546 -26112793.16762
  16120121.4234  -37955922.98947 -29334096.07762
  17977625.7514   -7495255.31945  -5730458.59361
 97  1  8  4 47 59.9810000  0  6G30G24G 5G 9G 4G10
  17471469.0794  -11812916.95845  -8976131.68161
  14629698.3534  -37613292.18747 -29184182.93562
  15193488.5404  -33579821.22147 -25858017.72563
  16268215.0174  -34719049.62546 -26102134.07062
  16124980.6964  -37930384.70347 -29314196.11462
  17950953.6894   -7635440.68845  -5839693.92261
 97  1  8  4 48 29.9810000  0  6G30G24G 5G 9G 4G10
  17444267.501   -11955846.775 5  -9087505.56321
  14620076.5254  -37663853.30847 -29223581.20662
  15174341.0174  -33680437.41247 -25936419.95163
  16270901.1424  -34704941.92446 -26091141.07162
  16129908.2754  -37904491.61747 -29294019.68262
  17924291.7044   -7775520.78445  -5948847.22861
 97  1  8  4 48 59.9810000  0  6G30G24G 5G 9G 4G10
  17417101.501   -12098638.263 5  -9198771.64621
  14610559.1964  -37713864.49447 -29262550.95262
  15155261.0484  -33780696.12247 -26014543.62863
  16273660.7904  -34690439.14946 -26079840.21262
  16134901.2434  -37878253.17347 -29273574.14362
  17897656.7284   -7915520.21745  -6057937.67761
 97  1  8  4 49 29.9810000  0  6G30G24G 5G 9G 4G10
  17389952.2354  -12241288.43946  -9309927.61261
  14601151.8064  -37763300.70347 -29301072.66862
  15136255.8684  -33880567.49547 -26092365.47963
  16276496.595   -34675531.751 6 -26068224.07622
  16139966.6574  -37851642.31447 -29252838.40662
  17871030.3064   -8055422.14545  -6166952.15761
 97  1  8  4 49 59.9810000  0  6G30G24G 5G 9G 4G10
  17362827.0644  -12383842.32146  -9421008.55961
  14591850.1034  -37812180.95847 -29339161.17562
  15117324.6424  -33980057.72647 -26169890.33563
  16279411.3604  -34660230.28246 -26056300.86762
  16145097.5094  -37824662.62647 -29231815.27162
  17844431.2514   -8195238.01145  -6275899.56461
 97  1  8  4 50 29.9800000  0  6G30G24G 5G 9G 4G10
  17335720.9574  -12526288.26446  -9532005.38761
  14582654.1134  -37860504.52747 -29376815.89162
  15098466.7934  -34079157.65947 -26247111.07163
  16282395.7074  -34644532.69446 -26044068.98462
  16150303.5274  -37797319.71347 -29210509.10662
  17817841.3954   -8334952.38745  -6384767.91861
 97  1  8  4 50 59.9800000  0  6G30G24G 5G 9G 4G10
  17308631.7854  -12668624.07846  -9642916.40861
  14573560.9494  -37908289.45847 -29414050.89962
  15079676.3564  -34177899.83547 -26324053.02163
  16285463.3794  -34628433.18346 -26031523.92262
  16155574.1134  -37769618.85147 -29188924.01462
  17791274.606    -8474554.157 5  -6493548.54521
 97  1  8  4 51 29.9800000  0  6G30G24G 5G 9G 4G10
  17281567.6764  -12810851.99346  -9753743.35761
  14564568.9884  -37955544.22347 -29450872.78762
  15060954.6764  -34276283.39947 -26400715.53563
  16288600.1924  -34611919.83446 -26018656.38962
  16160913.9884  -37741565.67647 -29167064.39362
  17764737.0594   -8614023.45745  -6602225.91061
 97  1  8  4 51 59.9800000  0  6G30G24G 5G 9G 4G10
  17254528.4964  -12952956.51946  -9864474.15061
  14555677.8954  -38002273.48447 -29487285.19262
  15042299.4424  -34374313.11247 -26477102.31763
  16291825.6844  -34594986.60346 -26005461.67362
  16166316.5204  -37713164.25547 -29144933.41362
  17738223.3874   -8753349.27845  -6710791.48261
 97  1  8  4 52 29.9800000  0  6G30G24G 5G 9G 4G10
  17227513.7074  -13094916.22646  -9975092.11061
  14546880.5824  -38048492.45147 -29523299.96762
  15023712.3564  -34471992.62947 -26553216.22563
  16295122.0204  -34577656.35246 -25991957.58962
  16171785.2854  -37684432.57947 -29122545.09662
  17711736.262    -8892532.585 5  -6819246.00221
 97  1  8  4 52 59.9800000  0  6G30G24G 5G 9G 4G10
  17200528.9494  -13236723.85246 -10085591.54961
  14538185.2704  -38094197.12047 -29558913.99062
  15005195.0274  -34569300.15747 -26629040.27863
  16298495.0904  -34559933.24446 -25978147.40362
  16177312.6454  -37655378.53147 -29099905.57462
  17685280.0274   -9031566.41545  -6927584.06061
 97  1  8  4 53 29.9800000  0  7G30G 6G24G 5G 9G 4G10
  17173573.4814  -13378375.13046 -10195969.17661
  19069469.3874         -0.33153
  14529583.1524  -38139396.74047 -29594134.46262
  14986753.6844  -34666214.07947 -26704557.61163
  16301941.7154  -34541830.47846 -25964041.34862
  16182900.4964  -37626019.30247 -29077028.25462
  17658849.1524   -9170460.21345  -7035812.99461
 97  1  8  4 53 59.9800000  0  7G30G 6G24G 5G 9G 4G10
  17146650.6604  -13519850.67846 -10306209.85761
  19046871.2854    -118778.08543        -0.18071
  14521079.2074  -38184087.79447 -29628958.65562
  14968387.0044  -34762730.43847 -26779765.17163
  16305456.949   -34523348.258 6 -25949639.63522
  16188547.4424  -37596345.80547 -29053906.03862
  17632445.5354   -9309199.70545  -7143921.68961
 97  1  8  4 54 29.9800000  0  7G30G 6G24G 5G 9G 4G10
  17119764.613   -13661141.671 6 -10416306.74121
  19024283.0434    -237458.87243    -92478.69261
  14512676.3094  -38228249.01147 -29663369.99162
  14950096.2074  -34858843.62447 -26854658.55363
  16309046.652   -34504478.472 6 -25934935.92322
  16194257.5514  -37566346.03047 -29030529.58962
  17606079.074    -9447778.892 5  -7251905.49321
 97  1  8  4 54 59.9800000  0  7G30G 6G24G 5G 9G 4G10
  17092907.5354  -13802275.14446 -10526280.86561
  19001715.4424    -356057.27742   -184893.04761
  14504372.0124  -38271882.45447 -29697370.07162
  14931877.3564  -34954584.96047 -26929262.19163
  16312712.2464  -34485224.90246 -25919933.14262
  16200024.6764  -37536030.39047 -29006907.01162
  17579733.496    -9586225.752 5  -7359786.15521
 97  1  8  4 55 29.9800000  0  7G30G 6G24G 5G 9G 4G10
  17066083.942   -13943244.094 6 -10636126.81721
  18979155.3484    -474584.59443   -277251.99361
  14496171.1764  -38314980.65247 -29730953.08062
  14913727.3094  -35049969.34747 -27003587.69263
  16316450.738   -34465581.874 6 -25904626.91322
  16205855.5824  -37505384.07947 -28983026.76762
  17553409.2464   -9724542.48045  -7467565.42561
 97  1  8  4 55 59.9800000  0  7G30G 6G24G 5G 9G 4G10
  17039286.3404  -14084063.84246 -10745856.47261
  18956614.5744    -593057.07943   -369568.21861
  14488073.1764  -38357536.86547 -29764113.75562
  14895642.2934  -35145009.55547 -27077645.00063
  16320261.9494  -34445561.40346 -25889026.55762
  16211749.7314  -37474409.27147 -28958890.54762
  17527109.7464   -9862744.53345  -7575255.32661
 97  1  8  4 56 29.9800000  0  7G30G 6G24G 5G 9G 4G10
  17012516.8874  -14224735.36646 -10855470.64861
  18934082.3094    -711476.93443   -461843.43161
  14480078.6604  -38399549.53047 -29796850.88962
  14877624.5674  -35239692.00947 -27151423.53363
  16324138.1604  -34425178.44046 -25873143.73762
  16217703.3094  -37443126.34147 -28934514.24062
  17500830.7314  -10000848.09145  -7682868.47661
 97  1  8  4 56 59.9800000  0  7G30G 6G24G 5G 9G 4G10
  16985780.6064  -14365240.15946 -10964954.91161
  18911550.2704    -829834.64843   -554070.17261
  14472184.5594  -38441026.86347 -29829170.88262
  14859678.7854  -35333991.47547 -27224903.64663
  16328086.2464  -34404436.74346 -25856981.39062
  16223713.8014  -37411538.45047 -28909900.30262
  17474574.2544  -10138830.04545  -7790386.87161
 97  1  8  4 57 29.9800000  0  7G30G 6G24G 5G 9G 4G10
  16959074.2464  -14505572.26446 -11074304.60161
  18889053.488     -948120.766 3   -646241.15221
  14464394.1994  -38481972.47747 -29861076.54462
  14841811.8874  -35427884.86047 -27298067.31663
  16332098.6994  -34383345.37246 -25840546.56261
  16229782.6994  -37379643.18947 -28885046.84862
  17448346.1134  -10276663.88545  -7897789.85561
 97  1  8  4 57 59.9800000  0  7G30G 6G24G 5G 9G 4G10
  16932396.0044  -14645754.52546 -11183537.52761
  18866548.106    -1066345.947 3   -738364.64121
  14456701.8404  -38522393.81447 -29892573.68562
  14824023.0594  -35521366.27047 -27370909.96963
  16336178.0594  -34361915.23146 -25823847.75962
  16235907.7234  -37347457.13947 -28859966.81662
  17422144.6604  -10414334.91545  -8005065.97561
 97  1  8  4 58 29.9800000  0  7G30G 6G24G 5G 9G 4G10
  16905752.2464  -14785785.34146 -11292652.44761
  18844067.356    -1184512.666 3   -830442.57121
  14449109.8244  -38562291.29747 -29923662.62662
  14806311.0124  -35614443.23547 -27443437.48663
  16340321.7384  -34340131.92646 -25806873.77362
  16242088.9814  -37314974.98547 -28834656.04762
  17395985.0744  -10551818.99045  -8112196.39761
 97  1  8  4 58 59.9800000  0  7G30G 6G24G 5G 9G 4G10
  16879128.5434  -14925685.83646 -11401665.81661
  18821583.981    -1302634.480 3   -922485.51021
  14441613.8174  -38601678.23947 -29954353.73662
  14788672.6844  -35707136.21647 -27515665.79163
  16344535.7314  -34317990.04946 -25789620.37562
  16248327.9574  -37282194.10147 -28809112.50062
  17369859.1064  -10689103.95545  -8219171.67661
 97  1  8  4 59 29.9800000  0  7G30G 6G24G 5G 9G 4G10
  16852531.5514  -15065462.02346 -11510582.31461
  18799119.871    -1420711.462 4  -1014493.50521
  14434219.1604  -38640538.54847 -29984634.48662
  14771105.6604  -35799447.71747 -27587596.82363
  16348821.2314  -34295467.95746 -25772070.70262
  16254624.3174  -37249106.33247 -28783329.82562
  17343773.4654  -10826184.51445  -8325987.69861
 97  1  8  4 59 59.9800000  0  7G30G 6G24G 5G 9G 4G10
  16825955.387   -15205101.588 6 -11619392.35321
  18776657.3244   -1538749.74644  -1106471.36161
  14426922.113   -38678881.214 7 -30014511.86122
  14753609.4024  -35891389.14947 -27659239.48763
  16353180.1454  -34272557.73946 -25754218.58661
  16260978.6294  -37215721.15447 -28757315.38862
  17317724.8244  -10963076.64845  -8432656.87261
 97  1  8  5  0 29.9800000  0  7G30G 6G24G 5G 9G 4G10
  16799417.8634  -15344575.73746 -11728073.51961
  18754205.3634   -1656727.09444  -1198401.70861
  14419722.7074  -38716722.01047 -30043998.20362
  14736183.6844  -35982958.62947 -27730592.33463
  16357613.5204  -34249261.29846 -25736065.54861
  16267386.8954  -37182032.88846 -28731064.81162
  17291711.879   -11099787.820 5  -8539185.05121
 97  1  8  5  0 59.9800000  0  7G30G 6G24G 5G 9G 4G10
  16772912.9654  -15483869.74946 -11836614.30761
  18731769.527    -1774635.330 3  -1290278.24721
  14412616.5204  -38754063.91147 -30073095.77762
  14718835.3244  -36074133.23947 -27801637.47663
  16362118.1844  -34225597.19146 -25717625.99961
  16273857.9814  -37148038.51447 -28704575.67962
  17265727.7234  -11236317.82545  -8645572.06761
 97  1  8  5  1 29.9800000  0  7G30G 6G24G 5G 9G 4G10
  16746441.5274  -15622969.26146 -11945003.53461
  18709346.715    -1892476.071 4  -1382102.17421
  14405605.6454  -38790898.31847 -30101797.90762
  14701562.1764  -36164900.60647 -27872365.30163
  16366689.3714  -34201574.16446 -25698906.76661
  16280381.9574  -37113744.67846 -28677853.21862
  17239783.692   -11372661.470 5  -8751813.85021
 97  1  8  5  1 59.9800000  0  7G30G 6G24G 5G 9G 4G10
  16720008.348   -15761863.765 6 -12053233.00221
  18686936.574    -2010245.548 4  -1473870.57721
  14398694.1454  -38827224.92247 -30130104.34462
  14684370.6374  -36255244.35247 -27942763.02563
  16371324.0984  -34177208.87446 -25679920.83561
  16286967.7624  -37079147.26447 -28650894.19362
  17213875.317   -11508805.774 5  -8857900.29621
 97  1  8  5  2 29.9800000  0  7G30G 6G24G 5G 9G 4G10
  16693615.0204  -15900566.39246 -12161312.97761
  18664538.074    -2127946.210 3  -1565585.34421
  14391877.8634  -38863044.16147 -30158015.43662
  14667261.4344  -36345164.34447 -28012830.54663
  16376024.317   -34152521.212 6 -25660683.71421
  16293606.4264  -37044257.25547 -28623707.17462
  17188006.902   -11644734.751 5  -8963818.96421
 97  1  8  5  2 59.9800000  0  7G30G 6G24G 5G 9G 4G10
  16667250.9654  -16039106.39246 -12269266.22061
  18642145.434    -2245593.697 3  -1657258.69321
  14385159.7854  -38898353.48847 -30185529.19362
  14650228.5594  -36434663.41747 -28082570.07963
  16380779.1214  -34127522.28546 -25641204.04361
  16300293.9424  -37009107.56046 -28596317.80162
  17162183.6844  -11780457.82846  -9069577.20161
 97  1  8  5  3 29.9800000  0  7G30G 6G24G 5G 9G 4G10
  16640919.3094  -16177487.35946 -12377095.53661
  18619774.5124   -2363185.79044  -1748888.87561
  14378533.6994  -38933166.20147 -30212655.98162
  14633273.4494  -36523762.86947 -28151998.22363
  16385595.3174  -34102210.75646 -25621480.78461
  16307028.3244  -36973726.64347 -28568748.25362
  17136390.4574  -11915992.37645  -9175188.52761
 97  1  8  5  3 59.9800000  0  7G30G 6G24G 5G 9G 4G10
  16614621.1064  -16315679.90046 -12484778.04261
  18597407.129    -2480689.756 3  -1840450.37821
  14372003.7384  -38967478.41247 -30239392.76562
  14616395.8404  -36612454.93548 -28221108.92263
  16390474.8484  -34076580.50446 -25601509.17061
  16313807.3954  -36938105.86746 -28540991.80762
  17110636.2234  -12051341.10945  -9280655.07561
 97  1  8  5  4 29.9800000  0  7G30G 6G24G 5G 9G 4G10
  16588362.2314  -16453683.15646 -12592313.04261
  18575063.090    -2598101.466 3  -1931939.96321
  14365568.7934  -39001299.45847 -30265746.82962
  14599594.4104  -36700749.60947 -28289909.97463
  16395414.2934  -34050627.60546 -25581286.14761
  16320626.4574  -36902254.39246 -28513055.59662
  17084911.5824  -12186525.38745  -9385993.44961
 97  1  8  5  4 59.9800000  0  7G30G 6G24G 5G 9G 4G10
  16562143.0514  -16591465.65146 -12699676.03561
  18552747.0434   -2715417.87343  -2023355.31961
  14359229.6294  -39034614.37147 -30291706.49262
  14582870.5044  -36788627.20247 -28358386.02463
  16400416.3484  -34024340.36646 -25560802.60161
  16327500.1684  -36866154.08346 -28484925.48962
  17059219.590   -12321542.572 6  -9491201.62021
 97  1  8  5  5 29.9800000  0  7G30G 6G24G 5G 9G 4G10
  16535970.8244  -16728998.60246 -12806844.57161
  18530435.293    -2832645.425 3  -2114701.42021
  14352985.9814  -39067415.34247 -30317265.69462
  14566227.7544  -36876088.66447 -28426537.81863
  16405483.1294  -33997709.38646 -25540051.20461
  16334418.9024  -36829779.59947 -28456581.73962
  17033557.457   -12456386.040 5  -9596274.42621
 97  1  8  5  5 59.9800000  0  7G30G 6G24G 5G 9G 4G10
  16509844.3014  -16866297.70146 -12913830.89261
  18508140.559    -2949810.587 4  -2205998.96021
  14346843.5354  -39099701.50147 -30342423.73562
  14549666.2704  -36963115.92047 -28494351.26463
  16410616.0674  -33970740.64446 -25519036.60461
  16341395.0984  -36793119.12647 -28428015.14862
  17007933.582   -12591052.635 6  -9701209.40121
 97  1  8  5  6 29.9800000  0  7G30G 6G24G 5G 9G 4G10
  16483754.1374  -17003387.58346 -13020654.17761
  18485852.9424   -3066945.16444  -2297272.63161
  14340797.9494  -39131469.52547 -30367178.04462
  14533190.3404  -37049701.72647 -28561820.71563
  16415810.192   -33943439.478 6 -25497762.99021
  16348425.8714  -36756177.12247 -28399229.16362
  16982342.606   -12725526.156 5  -9805993.95021
 97  1  8  5  6 59.9790000  0  7G30G 6G24G 5G 9G 4G10
  16457711.4844  -17140251.54846 -13127301.42461
  18463564.1794   -3184041.14343  -2388516.21161
  14334852.7964  -39162707.11747 -30391519.01762
  14516801.2884  -37135826.58147 -28628931.00063
  16421067.499   -33915803.796 6 -25476228.71321
  16355508.4444  -36718950.45647 -28370221.37562
  16956795.5154  -12859771.52846  -9910600.70661
 97  1  8  5  7 29.9790000  0  7G30G 6G24G 5G 9G 4G10
  16431701.4214  -17276942.17846 -13233813.59761
  18441283.6404   -3301123.02543  -2479748.85161
  14329003.5384  -39193448.74947 -30415473.53662
  14500493.3434  -37221524.44347 -28695708.55163
  16426388.5774  -33887854.87846 -25454450.34561
  16362642.7344  -36681463.52147 -28341010.76662
  16931288.2104  -12993813.41646 -10015048.91761
 97  1  8  5  7 59.9790000  0  7G30G 6G24G 5G 9G 4G10
  16405717.9054  -17413472.87946 -13340201.13861
  18419009.3044   -3418181.15944  -2570962.95261
  14323246.3044  -39223699.37647 -30439045.45162
  14484268.2184  -37306794.67048 -28762152.87763
  16431764.6244  -33859608.43046 -25432440.15161
  16369823.6944  -36643728.99947 -28311607.23762
  16905825.241   -13127626.036 6 -10119318.48921
 97  1  8  5  8 29.9790000  0  7G30G 6G24G 5G 9G 4G10
  16379770.4684  -17549830.02046 -13446453.45261
  18396741.944    -3535211.174 4  -2662155.18621
  14317580.4134  -39253474.16147 -30462246.57962
  14468117.1794  -37391666.75647 -28828286.96563
  16437192.1944  -33831084.56246 -25410213.75761
  16377047.6714  -36605763.47247 -28282023.70962
  16880405.5854  -13261207.13946 -10223407.64161
 97  1  8  5  8 59.9790000  0  7G30G 6G24G 5G 9G 4G10
  16353864.444   -17685962.278 6 -13552530.51821
  18374485.1484   -3652161.55244  -2753285.33461
  14312009.1634  -39282754.24947 -30485062.23462
  14452046.6554  -37476112.01347 -28894088.46263
  16442679.0464  -33802244.90946 -25387741.30961
  16384324.1404  -36567523.78847 -28252226.55361
  16855037.632   -13394525.101 6 -10327291.75021
 97  1  8  5  9 29.9790000  0  7G30G 6G24G 5G 9G 4G10
  16328000.1094  -17821887.77046 -13658446.46561
  18352245.179    -3769054.037 4  -2844370.38721
  14306527.7344  -39311558.68647 -30507507.24662
  14436056.7344  -37560147.08548 -28959570.33463
  16448220.5154  -33773117.60746 -25365044.73461
  16391650.0074  -36529029.27347 -28222230.82462
  16829713.9214  -13527595.56146 -10430983.01761
 97  1  8  5  9 59.9790000  0  7G30G 6G24G 5G 9G 4G10
  16302175.7884  -17957599.84046 -13764196.11261
  18330007.0154   -3885897.75343  -2935417.43961
  14301133.7734  -39339895.94447 -30529588.22562
  14420142.2024  -37643774.95447 -29024734.90963
  16453816.5544  -33743718.36146 -25342136.24061
  16399021.4914  -36490292.37647 -28192046.22562
  16804433.7654  -13660425.33346 -10534486.73261
 97  1  8  5 10 29.9790000  0  7G30G 6G24G 5G 9G 4G10
  16276397.062   -18093073.858 6 -13869760.25421
  18307787.9444   -4002674.58443  -3026412.37361
  14295833.1874  -39367761.46447 -30551301.61662
  14404310.6484  -37726965.19547 -29089558.46563
  16459464.6164  -33714030.76046 -25319003.04961
  16406443.3434  -36451305.75647 -28161667.04562
  16779206.273   -13793007.263 6 -10637797.30621
 97  1  8  5 10 59.9790000  0  7G30G 6G24G 5G 9G 4G10
  16250658.2104  -18228325.27846 -13975150.96561
  18285580.6634   -4119371.68243  -3117345.14161
  14290622.9994  -39395142.98347 -30572637.85762
  14388567.6794  -37809696.23247 -29154024.21663
  16465168.0464  -33684047.72846 -25295639.66361
  16413904.9444  -36412072.73346 -28131095.85661
  16754025.0854  -13925333.50646 -10740908.66561
 97  1  8  5 11 29.9790000  0  7G30G 6G24G 5G 9G 4G10
  16224963.9764  -18363356.95946 -14080370.42961
  18263389.468    -4235998.600 4  -3208223.22921
  14285507.4764  -39422020.69647 -30593581.52762
  14372912.3354  -37891966.67947 -29218131.05563
  16470931.5154  -33653766.88246 -25272044.19861
  16421419.4054  -36372609.60647 -28100345.36761
  16728895.1874  -14057393.84446 -10843812.81961
 97  1  8  5 11 59.9790000  0  7G30G 6G24G 5G 9G 4G10
  16199309.663   -18498171.540 6 -14185420.73921
  18241205.3824   -4352544.50444  -3299038.20661
  14280486.8904  -39448405.28947 -30614140.95162
  14357342.8044  -37973785.07047 -29281885.64963
  16476751.3904  -33623179.60546 -25248209.98761
  16428968.4444  -36332923.21047 -28069420.91062
  16703814.4764  -14189195.80046 -10946515.62761
 97  1  8  5 12 29.9790000  0  7G30G 6G24G 5G 9G 4G10
  16173694.640   -18632773.863 6 -14290305.64921
  18219045.999    -4469014.162 4  -3389793.78821
  14275559.3744  -39474300.82347 -30634319.28662
  14341857.7654  -38055163.13948 -29345297.13463
  16482632.0934  -33592294.34746 -25224143.54761
  16436557.9294  -36293024.51746 -28038331.01661
  16678783.2414  -14320751.16646 -11049026.28761
 97  1  8  5 12 59.9790000  0  7G30G 6G24G 5G 9G 4G10
  16148125.6014  -18767138.82446 -14395005.61561
  18196900.0544   -4585407.23844  -3480489.65361
  14270725.0304  -39499696.99447 -30654108.51262
  14326452.3434  -38136114.01647 -29408375.74663
  16488564.4524  -33561115.79446 -25199848.60061
  16444197.1944  -36252901.26347 -28007066.13961
  16653791.3904  -14452057.69746 -11151343.05161
 97  1  8  5 13 29.9790000  0  7G30G 6G24G 5G 9G 4G10
  16122605.3744  -18901250.70846 -14499508.36461
  18174757.0154   -4701742.04044  -3571140.09061
  14265987.5774  -39524606.14347 -30673518.23362
  14311128.0304  -38216647.79548 -29471129.33963
  16494550.452   -33529661.120 6 -25175338.47721
  16451874.1244  -36212548.06946 -27975622.09461
  16628852.312   -14583121.495 6 -11253470.67021
 97  1  8  5 13 59.9790000  0  7G30G 6G24G 5G 9G 4G10
  16097135.8434  -19035098.73746 -14603805.51861
  18152627.077    -4818027.408 4  -3661752.07721
  14261337.0384  -39549041.80047 -30692559.00662
  14295883.8194  -38296753.67948 -29533549.51063
  16500584.5154  -33497942.83346 -25150622.93861
  16459603.0234  -36171945.37446 -27943983.62561
  16603961.3434  -14713942.73446 -11355409.28361
 97  1  8  5 14 29.9790000  0  7G30G 6G24G 5G 9G 4G10
  16071712.5234  -19168675.60146 -14707891.39161
  18130508.0934   -4934271.66144  -3752332.00361
  14256777.0694  -39573001.77347 -30711229.11662
  14280724.5384  -38376419.71748 -29595626.94763
  16506668.0234  -33465977.94346 -25125715.24061
  16467374.2264  -36131092.74246 -27912150.40461
  16579109.6404  -14844511.56046 -11457151.22061
 97  1  8  5 14 59.9790000  0  7G30G 6G24G 5G 9G 4G10
  16046347.5384  -19301982.52746 -14811766.93061
  18108395.5154   -5050488.84744  -3842890.83061
  14252308.8824  -39596490.37047 -30729531.91562
  14265654.1324  -38455620.47748 -29657341.82863
  16512800.5074  -33433760.50046 -25100610.75061
  16475196.1944  -36089990.19246 -27880122.44861
  16554320.5624  -14974811.02246 -11558683.24561
 97  1  8  5 15 29.9790000  0  7G30G 6G24G 5G 9G 4G10
  16021025.2264  -19435050.22146 -14915456.04261
  18086285.8594   -5166682.13844  -3933431.04061
  14247923.6164  -39619523.04247 -30747479.45263
  14250673.6324  -38534336.20448 -29718678.76763
  16518979.2024  -33401282.21746 -25075303.01961
  16483063.1164  -36048656.36546 -27847914.27161
  16529576.8744  -15104833.61646 -11659999.55261
 97  1  8  5 15 59.9790000  0  7G30G 6G24G 5G 9G 4G10
  15995747.9294  -19567885.10546 -15018963.76161
  18064178.749    -5282835.482 5  -4023940.10521
  14243628.0934  -39642101.90047 -30765073.36062
  14235789.5854  -38612554.23947 -29779627.89063
  16525213.4134  -33368522.13346 -25049775.69761
  16490968.7884  -36007112.94846 -27815542.78561
  16504886.3744  -15234569.63746 -11761092.54361
 97  1  8  5 16 29.9790000  0  7G30G 6G24G 5G 9G 4G10
  15970515.9604  -19700486.43946 -15122289.48061
  18042085.4214   -5398938.73944  -4114410.17861
  14239419.2104  -39664217.08047 -30782305.96762
  14221000.1634  -38690272.91447 -29840187.90363
  16531501.9844  -33335476.94346 -25024026.19961
  16498907.4604  -35965391.60046 -27783032.64361
  16480257.4054  -15364002.07646 -11861948.98161
 97  1  8  5 16 59.9790000  0  7G30G 6G24G 5G 9G 4G10
  15945321.3744  -19832877.01946 -15225450.98661
  18020000.484    -5514991.770 4  -4204841.09321
  14235297.6324  -39685876.56547 -30799183.47862
  14206299.8044  -38767517.77847 -29900378.71863
  16537841.3594  -33302156.50346 -24998062.24361
  16506876.7574  -35923508.15746 -27750396.19861
  16455682.9054  -15493142.92946 -11962578.21061
 97  1  8  5 17 29.9790000  0  7G30G 6G24G 5G 9G 4G10
  15920171.8124  -19965047.41946 -15328440.92061
  17997933.9764   -5630977.08044  -4295219.24961
  14231265.5774  -39707068.57947 -30815696.73263
  14191688.0464  -38844304.53447 -29960212.55763
  16544232.2734  -33268581.29446 -24971899.74361
  16514877.3274  -35881469.34746 -27717638.68062
  16431164.2264  -15621982.59546 -12062972.74061
 97  1  8  5 17 59.9790000  0  7G30G 6G24G 5G 9G 4G10
  15895065.9524  -20096973.82046 -15431240.71161
  17975871.749    -5746899.180 4  -4385548.15121
  14227323.2494  -39727780.23247 -30831835.68662
  14177160.7414  -38920648.80147 -30019701.60663
  16550665.538   -33234768.559 6 -24945552.18821
  16522907.2884  -35839268.56046 -27684754.95761
  16406700.3514  -15750528.15746 -12163138.09861
 97  1  8  5 18 29.9790000  0  7G30G 6G24G 5G 9G 4G10
  15870008.1634  -20228637.56446 -15533835.84561
  17953825.0234   -5862742.61644  -4475815.75061
  14223475.4684  -39747998.17947 -30847589.93163
  14162718.4214  -38996543.07547 -30078840.00663
  16557145.4524  -33200724.25646 -24919024.16261
  16530973.4214  -35796875.95446 -27651721.76062
  16382304.1874  -15878764.92646 -12263062.83461
 97  1  8  5 18 59.9790000  0  7G30G 6G24G 5G 9G 4G10
  15845004.4374  -20360034.29646 -15636222.91062
  17931795.429    -5978522.625 4  -4566033.94521
  14219719.6794  -39767739.98147 -30862973.13962
  14148360.2104  -39072000.13547 -30137637.71763
  16563665.3124  -33166454.35546 -24892320.36061
  16539080.6634  -35754276.99346 -27618527.75962
  16357951.8594  -16006722.05346 -12362769.67561
 97  1  8  5 19 29.9790000  0  7G30G 6G24G 5G 9G 4G10
  15820059.0694  -20491141.52646 -15738384.39462
  17909774.8594   -6094229.05044  -4656194.78661
  14216052.0154  -39787008.21447 -30877987.35163
  14134090.7184  -39146984.49547 -30196067.08463
  16570235.4764  -33131931.30746 -24865419.29161
  16547229.2964  -35711460.00446 -27585163.88362
  16333657.9054  -16134382.89646 -12462245.64361
 97  1  8  5 19 59.9790000  0  7G30G 6G24G 5G 9G 4G10
  15795161.1714  -20621973.35846 -15840331.27962
  17887769.085    -6209876.147 5  -4746309.40121
  14212472.2104  -39805827.53047 -30892651.74463
  14119909.1014  -39221507.49047 -30254136.95463
  16576855.6244  -33097149.34946 -24838316.49161
  16555416.8744  -35668435.77346 -27551638.50962
  16309418.8514  -16261759.92446 -12561500.45261
 97  1  8  5 20 29.9790000  0  7G30G 6G24G 5G 9G 4G10
  15770311.3434  -20752560.31046 -15942087.34462
  17865770.476    -6325484.290 5  -4836393.65721
  14208972.1554  -39824219.83247 -30906983.40562
  14105816.6164  -39295566.85547 -30311845.55263
  16583518.7804  -33062122.38446 -24811022.75761
  16563641.3044  -35625214.18546 -27517959.35562
  16285232.6484  -16388862.77646 -12660541.63161
 97  1  8  5 20 59.9790000  0  7G30G 6G24G 5G 9G 4G10
  15745511.8434  -20882887.89846 -16043641.30662
  17843775.8824   -6441049.31744  -4926444.32661
  14205555.5854  -39842175.66747 -30920974.96763
  14091815.0234  -39369148.51047 -30369181.91663
  16590235.1484  -33026828.61646 -24783521.13761
  16571905.8434  -35581785.25946 -27484118.64162
  16261101.5464  -16515669.80646 -12759352.28461
 97  1  8  5 21 29.9790000  0  7G30G 6G24G 5G 9G 4G10
  15720756.3124  -21012974.52546 -16145007.51562
  17821792.062    -6556580.376 4  -5016468.49421
  14202219.6404  -39859704.63247 -30934633.90063
  14077902.2024  -39442255.41147 -30426148.32963
  16596999.312   -32991286.011 6 -24755825.61221
  16580205.5304  -35538159.87246 -27450124.84162
  16237027.9294  -16642187.28946 -12857937.33961
 97  1  8  5 21 59.9790000  0  7G30G 6G24G 5G 9G 4G10
  15696048.8434  -21142817.48546 -16246183.83662
  17799809.7264   -6672081.68944  -5106469.47861
  14198967.2344  -39876799.91947 -30947954.89463
  14064077.7264  -39514903.25647 -30482757.05163
  16603803.0694  -32955530.84646 -24727964.45661
  16588543.6554  -35494346.42246 -27415984.50762
  16213006.773   -16768414.387 6 -12956296.09321
 97  1  8  5 22 29.9790000  0  7G30G 6G24G 5G 9G 4G10
  15671391.5464  -21272389.02446 -16347148.66662
  17777842.9374   -6787535.18045  -5196433.22161
  14195798.9444  -39893454.40147 -30960932.40563
  14050345.7024  -39587075.02047 -30538994.78663
  16610648.679   -32919568.388 6 -24699941.78921
  16596919.3514  -35450339.55346 -27381693.44861
  16189046.6944  -16894337.78346 -13054418.21061
 97  1  8  5 22 59.9790000  0  7G30G 6G24G 5G 9G 4G10
  15646794.8434  -21401662.38646 -16447881.15962
  17755887.4524   -6902929.96545  -5286351.24161
  14192710.8434  -39909670.26747 -30973568.14463
  14036701.5544  -39658769.18047 -30594860.36963
  16617529.6634  -32883401.97046 -24671760.17961
  16605326.6404  -35406152.22346 -27347261.77661
  16165138.0774  -17019952.92746 -13152300.12261
 97  1  8  5 23 29.9780000  0  7G30G 6G24G 5G 9G 4G10
  15622253.3614  -21530612.46846 -16548361.74062
  17733941.244    -7018246.495 5  -5376208.25221
  14189711.6044  -39925426.19447 -30985845.48463
  14023152.7994  -39729973.32747 -30650344.12763
  16624449.7914  -32847035.28546 -24643422.50561
  16613775.2294  -35361782.09046 -27312687.64061
  16141300.1434  -17145241.30446 -13249927.41861
 97  1  8  5 23 59.9780000  0  7G30G 6G24G 5G 9G 4G10
  15597775.9084  -21659245.20946 -16648595.04862
  17712010.2444   -7133502.74445  -5466018.30761
  14186800.1274  -39940730.01147 -30997770.53563
  14009695.3074  -39800686.28247 -30705445.13563
  16631407.9244  -32810458.41146 -24614921.08061
  16622249.3614  -35317232.35346 -27277973.56861
  16117520.7054  -17270195.81946 -13347294.55961
 97  1  8  5 24 29.9780000  0  7G30G 6G24G 5G 9G 4G10
  15573357.8774  -21787550.11646 -16748572.89862
  17690093.057    -7248691.490 5  -5555775.72021
  14183975.1044  -39955577.74947 -31009340.19963
  13996336.5494  -39870888.03747 -30760147.80163
  16638413.7134  -32773646.99446 -24586236.86461
  16630759.6664  -35272484.18346 -27243104.86161
  16093808.2834  -17394804.49746 -13444392.22161
 97  1  8  5 24 59.9780000  0  7G30G 6G24G 5G 9G 4G10
  15548998.4554  -21915563.78246 -16848323.81062
  17668178.244    -7363829.527 5  -5645493.64821
  14181234.9404  -39969980.08247 -31020562.79963
  13983071.5024  -39940596.54147 -30814466.11362
  16645462.0964  -32736617.65846 -24557382.84661
  16639312.2054  -35227553.11346 -27208093.63761
  16070158.7684  -17519080.68246 -13541230.79461
 97  1  8  5 25 29.9780000  0  7G30G 6G24G 5G 9G 4G10
  15524693.4554  -22043293.05846 -16947853.11262
  17646279.9014   -7478910.85845  -5735167.41961
  14178582.1044  -39983927.76347 -31031431.11263
  13969901.3464  -40009801.27247 -30868391.88363
  16652548.276   -32699365.941 6 -24528355.55421
  16647900.1194  -35182435.59146 -27172937.12561
  16046575.7294  -17643010.36646 -13637799.37161
 97  1  8  5 25 59.9780000  0  7G30G 6G24G 5G 9G 4G10
  15500437.0264  -22170756.58346 -17047175.34262
  17624388.0884   -7593949.49645  -5824807.90261
  14176005.7764  -39997451.77847 -31041969.30863
  13956824.7994  -40078523.53247 -30921941.70462
  16659674.9084  -32661915.99446 -24499173.79061
  16656514.6044  -35137164.73646 -27137661.13961
  16023054.8854  -17766614.83246 -13734114.52761
 97  1  8  5 26 29.9780000  0  7G30G 6G24G 5G 9G 4G10
  15476236.8464  -22297940.08546 -17146279.35462
  17602510.322    -7708923.099 5  -5914397.71121
  14173515.5104  -40010539.15747 -31052167.26463
  13943841.0724  -40146751.31947 -30975106.21862
  16666840.0494  -32624263.52346 -24469834.20361
  16665158.0574  -35091737.41946 -27102263.22761
  15999596.2994  -17889887.50346 -13830171.14061
 97  1  8  5 26 59.9780000  0  7G30G 6G24G 5G 9G 4G10
  15452090.1274  -22424826.71246 -17245152.04962
  17580644.424    -7823826.064 5  -6003932.49921
  14171109.6514  -40023185.57547 -31062021.61363
  13930951.4634  -40214492.73547 -31027891.73662
  16674042.9864  -32586406.63946 -24440335.33861
  16673831.3544  -35046168.80446 -27066755.21461
  15976209.6114  -18012806.55846 -13925952.20461
 97  1  8  5 27 29.9780000  0  7G30G 6G24G 5G 9G 4G10
  15428002.0884  -22551406.26246 -17343785.46662
  17558792.611    -7938677.316 5  -6093426.95921
  14168783.2444  -40035410.32647 -31071547.39963
  13918150.9864  -40281755.31647 -31080304.15463
  16681286.5574  -32548347.78846 -24410679.10161
  16682529.8464  -35000456.27146 -27031135.06061
  15952884.6194  -18135369.95946 -14021456.14061
 97  1  8  5 27 59.9780000  0  7G30G 6G24G 5G 9G 4G10
  15403973.9554  -22677680.99047 -17442181.36862
  17536939.8544   -8053494.01145  -6182894.50061
  14166534.5264  -40047228.58647 -31080756.42563
  13905441.2214  -40348550.81947 -31132352.60062
  16688564.6974  -32510092.64646 -24380869.91561
  16691257.0104  -34954586.34246 -26995392.26661
  15929625.0414  -18257582.64746 -14116686.80061
 97  1  8  5 28 29.9780000  0  7G30G 6G24G 5G 9G 4G10
  15380003.3304  -22803647.91346 -17540337.40662
  17515095.658    -8168286.318 5  -6272343.02921
  14164364.4554  -40058632.23947 -31089642.38263
  13892819.0964  -40414877.38747 -31184035.65262
  16695882.6274  -32471645.41946 -24350911.06261
  16700019.2764  -34908542.44846 -26959513.90761
  15906437.2684  -18379437.85246 -14211638.90061
 97  1  8  5 28 59.9780000  0  7G30G 6G24G 5G 9G 4G10
  15356092.2994  -22929301.08147 -17638248.96362
  17493253.7684   -8283059.52645  -6361776.68461
  14162273.4164  -40069616.18747 -31098201.30163
  13880287.1584  -40480732.64347 -31235351.44562
  16703233.8464  -32433018.71446 -24320812.34761
  16708815.9084  -34862321.47346 -26923497.57361
  15883318.3544  -18500940.66946 -14306316.41061
 97  1  8  5 29 29.9780000  0  7G30G 6G24G 5G 9G 4G10
  15332240.5334  -23054652.48847 -17735925.37562
  17471415.877    -8397812.007 4  -6451194.19321
  14160265.3304  -40080178.88647 -31106431.97263
  13867848.4944  -40546100.17947 -31286287.19062
  16710613.5654  -32394228.89346 -24290586.51861
  16717641.1274  -34815931.13746 -26887349.25161
  15860258.8384  -18622106.91146 -14400731.64961
 97  1  8  5 29 59.9780000  0  7G30G 6G24G 5G 9G 4G10
  15308441.6974  -23179695.98646 -17833361.86862
  17449588.3074   -8512532.93945  -6540587.12261
  14158337.9634  -40090306.98247 -31114323.99663
  13855503.1904  -40610969.73047 -31336834.89862
  16718029.9794  -32355277.32946 -24260234.66761
  16726497.0104  -34769398.99446 -26851090.43761
  15837266.861   -18742940.453 6 -14494887.64721
 97  1  8  5 30 29.9780000  0  7G30G 6G24G 5G 9G 4G10
  15284708.9014  -23304421.00247 -17930550.18362
  17427765.533    -8627203.600 5  -6629940.85921
  14156494.4324  -40099990.45747 -31121869.55763
  13843258.4554  -40675320.97147 -31386978.71562
  16725473.924   -32316149.931 5 -24229745.79321
  16735373.0334  -34722750.61046 -26814741.05361
  15814337.8854  -18863432.04146 -14588777.17961
 97  1  8  5 30 59.9780000  0  7G30G 6G24G 5G 9G 4G10
  15261037.0884  -23428823.53847 -18027487.22162
  17405957.5264   -8741817.30245  -6719250.23761
  14154735.8614  -40109242.62747 -31129079.03863
  13831112.1354  -40739145.94347 -31436712.46762
  16732955.0494  -32276835.59445 -24199111.27161
  16744271.1514  -34675999.99346 -26778312.00161
  15791475.0884  -18983574.52746 -14682394.69161
 97  1  8  5 31 29.9780000  0  7G30G 6G24G 5G 9G 4G10
  15237424.1114  -23552913.51147 -18124180.70062
  17384159.854    -8856377.003 5  -6808517.50421
  14153051.6974  -40118080.54747 -31135965.72663
  13819066.1044  -40802453.14047 -31486042.75062
  16740471.5264  -32237334.85945 -24168331.48261
  16753183.9634  -34629160.19146 -26741813.44961
  15768681.8854  -19103359.42446 -14775733.55861
 97  1  8  5 31 59.9780000  0  7G30G 6G24G 5G 9G 4G10
  15213872.5104  -23676677.62347 -18220620.25062
  17362368.885    -8970872.721 5  -6897734.93921
  14151448.1434  -40126511.40847 -31142535.22863
  13807118.2364  -40865236.24647 -31534964.65662
  16748023.8774  -32197641.22045 -24137401.40161
  16762116.8854  -34582212.08146 -26705230.50761
  15745958.1114  -19222769.65846 -14868780.48361
 97  1  8  5 32 29.9780000  0  7G30G 6G24G 5G 9G 4G10
  15190381.4864  -23800110.11947 -18316801.42062
  17340596.7604   -9085289.61445  -6986890.94161
  14149920.4794  -40134536.43247 -31148788.49863
  13795272.1044  -40927481.66147 -31583467.57662
  16755613.8694  -32157763.78945 -24106328.08961
  16771081.0574  -34535121.27546 -26668536.36761
  15723310.276   -19341781.332 6 -14961516.82621
 97  1  8  5 32 59.9780000  0  7G30G 6G24G 5G 9G 4G10
  15166956.5654  -23923221.52247 -18412732.37462
  17318831.0654   -9199646.14045  -7075999.90261
  14148467.5654  -40142175.21747 -31154740.79463
  13783527.4084  -40989214.28747 -31631570.92762
  16763230.3384  -32117737.58245 -24075138.84661
  16780063.0654  -34487881.20146 -26631725.93061
  15700737.651   -19460401.988 6 -15053948.48021
 97  1  8  5 33 29.9780000  0  7G30G 6G24G 5G 9G 4G10
  15143590.0654  -24046006.92547 -18508409.30862
  17297087.197    -9313933.866 5  -7165055.25421
  14147087.5184  -40149429.75647 -31160393.67763
  13771875.3384  -41050437.70547 -31679277.48862
  16770875.7604  -32077562.36545 -24043833.48961
  16789089.2524  -34440482.30246 -26594791.70361
  15678245.6514  -19578614.97246 -15146062.47162
 97  1  8  5 33 59.9780000  0  7G30G 6G24G 5G 9G 4G10
  15120287.0414  -24168462.57947 -18603829.29762
  17275347.8384   -9428161.20745  -7254063.55161
  14145775.7834  -40156314.86747 -31165758.69963
  13760320.2834  -41111155.91947 -31726590.38562
  16778546.807   -32037248.906 5 -24012420.44621
  16798137.9634  -34392923.69346 -26557733.05561
  15655823.7764  -19696425.73646 -15237863.04361
 97  1  8  5 34 29.9780000  0  7G30G 6G24G 5G 9G 4G10
  15097049.1904  -24290575.80547 -18698982.45162
  17253625.7914   -9542322.35845  -7343020.26861
  14144542.0654  -40162812.15047 -31170821.51963
  13748861.9404  -41171375.55247 -31773514.77662
  16786245.9404  -31996786.12745 -23980891.01261
  16807218.6664  -34345207.20046 -26520551.36761
  15633484.111   -19813819.970 6 -15329339.04821
 97  1  8  5 34 59.9780000  0  7G30G 6G24G 5G 9G 4G10
  15073879.9164  -24412337.99147 -18793862.07762
  17231913.283    -9656426.293 5  -7431932.38721
  14143376.1354  -40168925.53047 -31175585.18863
  13737494.6194  -41231108.09047 -31820059.60562
  16793977.5654  -31956162.70746 -23949236.40661
  16816325.5264  -34297350.01046 -26483260.04361
  15611222.7604  -19930808.52646 -15420498.94061
 97  1  8  5 35 29.9780000  0  7G30G 6G24G 5G 9G 4G10
  15050778.9864  -24533741.15547 -18888461.93862
  17210209.658    -9770468.186 5  -7520796.21421
  14142288.9634  -40174642.41147 -31180039.89963
  13726226.3154  -41290332.14947 -31866208.22862
  16801740.2444  -31915368.51745 -23917448.72961
  16825456.9864  -34249356.04046 -26445862.15961
  15589032.1354  -20047398.32646 -15511348.11361
 97  1  8  5 35 59.9780000  0  7G30G 6G24G 5G 9G 4G10
  15027742.4474  -24654794.68447 -18982789.36162
  17188517.018    -9884467.558 5  -7609626.84221
  14141279.1514  -40179944.82547 -31184171.65463
  13715052.4014  -41349046.20147 -31911959.44462
  16809532.760   -31874421.581 5 -23885542.05621
  16834610.7684  -34201245.16746 -26408373.16961
  15566918.8934  -20163614.77146 -15601906.35762
 97  1  8  5 36 29.9780000  0  7G30G 6G24G 5G 9G 4G10
  15004771.4864  -24775506.36947 -19076850.40562
  17166827.2364   -9998432.14645  -7698430.39261
  14140351.4714  -40184826.37147 -31187975.45263
  13703975.9404  -41407247.90547 -31957311.42762
  16817350.2684  -31833330.02345 -23853522.67961
  16843789.4714  -34153030.97946 -26370803.68161
  15544876.3774  -20279466.42246 -15692180.35462
 97  1  8  5 36 59.9780000  0  7G30G 6G24G 5G 9G 4G10
  14981866.5964  -24895869.60047 -19170639.93162
  17145148.955   -10112379.502 5  -7787220.51921
  14139501.7834  -40189295.37047 -31191457.78563
  13693003.1274  -41464917.09447 -32002248.47162
  16825196.291   -31792095.761 5 -23821392.09821
  16852984.2764  -34104723.43246 -26333161.44661
  15522901.7214  -20394957.63946 -15782173.48761
 97  1  8  5 37 29.9780000  0  7G30G 6G24G 5G 9G 4G10
  14959027.5104  -25015887.42147 -19264160.31262
  17123468.549   -10226310.118 5  -7875997.57621
  14138724.4944  -40193355.88947 -31194621.82663
  13682132.9244  -41522046.33147 -32046764.75862
  16833070.7604  -31750722.08845 -23789152.88861
  16862190.1664  -34056332.28846 -26295454.07561
  15500992.463   -20510076.333 6 -15871876.35922
 97  1  8  5 37 59.9780000  0  7G30G 6G24G 5G 9G 4G10
  14936254.0264  -25135568.68447 -19357418.44362
  17101790.627   -10340219.974 5  -7964758.49321
  14138026.1664  -40197037.81747 -31197490.86163
  13671360.1514  -41578654.64247 -32090875.13362
  16840967.7524  -31709230.59045 -23756821.86761
  16871408.8384  -34007873.93446 -26257694.31861
  15479156.6744  -20624814.98446 -15961283.08562
 97  1  8  5 38 29.9780000  0  7G30G 6G24G 5G 9G 4G10
  14913551.3304  -25254876.59647 -19450385.64662
  17080130.0804  -10454068.67545  -8053471.72061
  14137397.9634  -40200343.49547 -31200066.70963
  13660691.7134  -41634714.54547 -32134558.17562
  16848890.260   -31667590.150 5 -23724374.80321
  16880652.4404  -33959310.36046 -26219852.58261
  15457402.7994  -20739129.53346 -16050359.35162
 97  1  8  5 38 59.9780000  0  7G30G 6G24G 5G 9G 4G10
  14890916.4634  -25373814.74747 -19543064.72862
  17058475.0804  -10567846.78745
  14136840.4634  -40203277.79047 -31202353.17063
  13650124.7604  -41690239.37547 -32177824.28662
  16856840.2834  -31625809.38645 -23691818.35861
  16889911.6974  -33910649.63746 -26181935.13561
  15435737.0184  -20852999.74346
 97  1  8  5 39 29.9780000  0  7G30G 6G24G 5G 9G 4G10
  14868352.9554  -25492391.95247 -19635462.55362
  17036839.7134  -10681521.93045  -8230707.99261
  14136353.1584  -40205835.42347 -31204346.13563
  13639660.4244  -41745232.89547 -32220676.38962
  16864814.2364  -31583899.04045 -23659160.97361
  16899195.5654  -33861863.85246 -26143920.23861
  15414152.1194  -20966414.97446 -16227464.87262
 97  1  8  5 39 59.9780000  0  7G30G 6G24G 5G 9G 4G10
  14845857.5264  -25610610.75647 -19727581.10262
  17015229.4794  -10795104.16345  -8319213.59461
  14135937.1744  -40208007.76147 -31206038.85963
  13629295.3304  -41799702.24047 -32263120.03362
  16872813.7214  -31541874.46845 -23626414.55161
  16908507.0264  -33812941.05446 -26105798.57861
  15392656.0574  -21079377.98946 -16315487.99762
 97  1  8  5 40 29.9770000  0  7G30G 6G24G 5G 9G 4G10
  14823429.5214  -25728460.16747 -19819411.81162
  16993627.732   -10908621.121 5  -8407668.33921
  14135601.2004  -40209785.19947 -31207423.88163
  13619029.6614  -41853649.70247 -32305157.02362
  16880829.364   -31499738.493 5 -23593581.34921
  16917839.0994  -33763891.11046 -26067577.84261
  15371247.2474  -21191892.62146 -16403161.72262
 97  1  8  5 40 59.9770000  0  7G30G 6G24G 5G 9G 4G10
  14801071.5834  -25845952.11747 -19910963.98562
  16972033.9194  -11022104.49645  -8496096.93761
  14135338.6074  -40211175.83847 -31208507.48363
  13608859.3254  -41907093.32547 -32346801.42062
  16888864.6224  -31457514.84545 -23560679.81861
  16927191.7164  -33714738.09346 -26029276.79261
  15349914.5214  -21303988.13446 -16490508.86562
 97  1  8  5 41 29.9770000  0  7G30G 6G24G 5G 9G 4G10
  14778786.0914  -25963065.35247 -20002221.05262
  16950441.4744  -11135564.63845  -8584507.41361
  14135143.8334  -40212192.27847 -31209299.52463
  13598787.6934  -41960017.08447 -32388040.71462
  16896914.7244  -31415209.73145 -23527714.80961
  16936566.9584  -33665478.04046 -25990892.33461
  15328661.8724  -21415688.97046 -16577548.46562
 97  1  8  5 41 59.9770000  0  7G30G 6G24G 5G 9G 4G10
  14756575.7554  -26079785.07347 -20093171.48162
  16928850.7944  -11249016.03645  -8672911.09361
  14135018.4354  -40212842.17047 -31209805.92963
  13588816.3334  -42012418.31147 -32428872.85062
  16904984.607   -31372816.869 5 -23494681.42321
  16945956.5524  -33616133.75146 -25952442.23061
  15307477.9744  -21526992.09946 -16664278.17062
 97  1  8  5 42 29.9770000  0  7G30G 6G24G 5G 9G 4G10
  14734441.4274  -26196099.51847 -20183806.12162
  16907271.6144  -11362440.03745  -8761293.42061
  14134966.6614  -40213124.88647
  13578947.3964  -42064278.98147 -32469283.76262
  16913069.427   -31330319.878 5 -23461566.91221
  16955360.3104  -33566709.19846 -25913929.59761
  15286376.6224  -21637890.09946 -16750692.18562
 97  1  8  5 42 59.9770000  0  7G30G 6G24G 5G 9G 4G10
  14712380.9584  -26312024.48247 -20274137.25962
  16885693.669   -11475819.191 5  -8849640.80021
  14134979.9194  -40213041.65447
  13569183.3414  -42115597.88347 -32509272.53262
  16921178.497   -31287707.572 5 -23428362.53621
  16964786.0604  -33517188.26446 -25875341.85261
  15265351.5604  -21748371.06446 -16836781.24062
 97  1  8  5 43 29.9770000  0  7G30G 6G24G 5G 9G 4G10
  14690393.7944  -26427572.32147 -20364174.53362
  16864127.3884  -11589141.46145  -8937943.85461
  14135064.6384  -40212586.00147
  13559519.7164  -42166372.77648 -32548837.38862
  16929312.2864  -31244972.32345 -23395062.35261
  16974233.8254  -33467553.14045 -25836665.13661
  15244410.8724  -21858405.29346 -16922522.18562
 97  1  8  5 43 59.9770000  0  7G30G 6G24G 5G 9G 4G10
  14668471.7554  -26542764.25947 -20453934.49162
  16842571.8024  -11702414.36145  -9026208.46361
  14135227.3334  -40211759.97047 -31208962.65863
  13549956.8104  -42216624.28548 -32587994.41262
  16937465.0134  -31202114.77545 -23361666.86561
  16983691.7714  -33417822.80745 -25797914.23561
  15223563.8884  -21967969.04746 -17007896.52862
 97  1  8  5 44 29.9770000  0  7G30G 6G24G 5G 9G 4G10
  14646621.1534  -26657599.55347 -20543416.52962
  16821023.7714  -11815644.51345  -9114439.78061
  14135451.9194  -40210572.90547 -31208037.67163
  13540491.9664  -42266367.05548 -32626755.02662
  16945643.2394  -31159139.39645 -23328179.57161
  16993171.9894  -33368001.64445 -25759092.55661
  15202800.0914  -22077065.18946 -17092906.50762
 97  1  8  5 44 59.9770000  0  7G30G 6G24G 5G 9G 4G10
  14624841.5214  -26772055.07047 -20632602.64962
  16799492.0134  -11928807.37945  -9202618.62361
  14135745.6534  -40209019.20347 -31206827.00463
  13531125.8494  -42315585.25048 -32665106.87362
  16953848.2784  -31116039.34845 -23294595.11661
  17002673.333   -33318078.576 5 -25720191.47321
  15182134.2324  -22185666.62746 -17177530.99362
 97  1  8  5 45 29.9770000  0  7G30G 6G24G 5G 9G 4G10
  14603135.3884  -26886118.99247 -20721483.62563
  16777970.099   -12041915.181 5  -9290754.56021
  14136108.3104  -40207124.36447 -31205350.50263
  13521859.8024  -42364280.35848 -32703051.12362
  16962066.0834  -31072836.92545 -23260930.90061
  17012186.1074  -33268091.68145 -25681240.64661
  15161559.5364  -22293799.82346 -17261790.60762
 97  1  8  5 45 59.9770000  0  7G30G 6G24G 5G 9G 4G10
  14581506.9744  -26999769.95147 -20810042.81362
  16756452.403   -12154972.427 5  -9378851.12921
  14136530.1934  -40204890.18347 -31203609.58163
  13512693.8104  -42412445.75048 -32740582.60762
  16970306.6614  -31029538.12645 -23227191.59361
  17021705.7244  -33218061.53345 -25642256.12961
  15141065.794   -22401498.656 6 -17345711.75422
 97  1  8  5 46 29.9770000  0  7G30G 6G24G 5G 9G 4G10
  14559961.4974  -27112995.72747
  16734950.9034  -12267958.53345
  14137024.0054  -40202312.09447 -31201600.67763
  13503634.0364  -42460056.90448 -32777682.22662
  16978562.443   -30986145.215 5 -23193378.94721
  17031234.5524  -33167976.01845 -25603228.44961
  15120653.3334  -22508773.81346 -17429302.77862
 97  1  8  5 46 59.9770000  0  7G30G 6G24G 5G 9G 4G10
  14538493.6304  -27225810.91947 -20986178.62463
  16713464.052   -12380875.522 5  -9554879.51121
  14137579.4034  -40199385.11147 -31199319.91463
  13494683.3334  -42507096.03248 -32814336.09262
  16986836.380   -30942675.605 5 -23159506.52921
  17040779.9824  -33117839.18445 -25564160.79661
  15100316.5914  -22615629.02046 -17512566.56662
 97  1  8  5 47 29.9770000  0  7G30G 6G24G 5G 9G 4G10
  14517103.8494  -27338214.55047 -21073765.87463
  16691987.153   -12493748.016 5  -9642832.09821
  14138203.2554  -40196109.94047 -31196767.83263
  13485837.4434  -42553573.28648 -32850552.14462
  16995121.5994  -30899141.58445 -23125583.93061
  17050330.8334  -33067646.86145 -25525049.88861
  15080061.8644  -22722080.90846 -17595516.08062
 97  1  8  5 47 59.9770000  0  7G30G 6G24G 5G 9G 4G10
  14495791.5134  -27450216.45947 -21161040.09063
  16670518.536   -12606573.366 5  -9730747.96721
  14138897.4274  -40192466.06147 -31193928.45763
  13477101.5604  -42599486.41947 -32886328.62062
  17003416.068   -30855541.468 5 -23091609.83521
  17059900.1614  -33017378.81945 -25485879.98761
  15059886.6694  -22828094.24446 -17678123.85862
 97  1  8  5 48 29.9770000  0  7G30G 6G24G 5G 9G 4G10
  14474551.7324  -27561833.33447 -21248014.28163
  16649056.3644  -12719360.19445  -9818633.79961
  14139657.7634  -40188471.10747 -31190815.49663
  13468469.7474  -42644846.11648 -32921673.85062
  17011726.9114  -30811874.04845 -23057583.27661
  17069477.4664  -32967034.50245 -25446650.66161
  15039799.9194  -22933638.82646 -17760366.37862
 97  1  8  5 48 59.9770000  0  7G30G 6G24G 5G 9G 4G10
  14453387.9664  -27673048.27347 -21334675.28262
  16627599.2394  -12832121.29945  -9906499.59661
  14140482.7084  -40184131.14047 -31187433.70863
  13459940.5284  -42689665.57048 -32956598.10762
  17020049.005   -30768137.477 5 -23023502.81721
  17079066.8644  -32916611.40845 -25407359.92761
  15019809.6224  -23038691.15046 -17842225.30862
 97  1  8  5 49 29.9770000  0  7G30G 6G24G 5G 9G 4G10
  14432303.1934  -27783848.09547 -21421012.80862
  16606144.3184  -12944856.84245  -9994345.45661
  14141372.9274  -40179457.00947 -31183791.52363
  13451510.8964  -42733961.54948 -32991114.46362
  17028385.4194  -30724330.28345 -22989367.35261
  17088683.2474  -32866101.69845 -25368001.71861
  14999917.0994  -23143241.99046 -17923693.48162
 97  1  8  5 49 59.9770000  0  7G30G 6G24G 5G 9G 4G10
  14411293.5214  -27894246.90147 -21507037.85562
  16584698.4274  -13057565.15445 -10082170.11161
  14142321.4354  -40174461.85447 -31179899.20264
  13443179.7084  -42777743.81447 -33025230.52462
  17036733.6934  -30680458.04345 -22955181.19361
  17098306.630   -32815514.762 5 -25328583.34121
  14980117.6144  -23247284.61146 -18004765.64462
 97  1  8  5 50 29.9770000  0  7G30G 6G24G 5G 9G 4G10
  14390364.0604  -28004224.26947 -21592734.51462
  16563255.1854  -13170242.89545 -10169970.94061
  14143332.3024  -40169151.47047 -31175761.23963
  13434946.1774  -42821007.43647 -33058942.43862
  17045095.2554  -30636523.47445 -22920946.47361
  17107954.8184  -32764849.54045 -25289103.95961
  14960412.0914  -23350842.24546 -18085459.88562
 97  1  8  5 50 59.9770000  0  7G30G 6G24G 5G 9G 4G10
  14369522.5524  -28113764.98847 -21678090.92462
  16541820.6304  -13282869.72545 -10257732.09361
  14144407.6694  -40163503.73347 -31171360.40463
  13426816.8414  -42863733.74947 -33092235.67662
  17053465.278   -30592538.477 5 -22886672.45121
  17117607.4274  -32714096.27445 -25249555.96761
  14940795.6074  -23453924.26646 -18165783.53262
 97  1  8  5 51 29.9770000  0  7G30G 6G24G 5G 9G 4G10
  14348752.2394  -28222906.91647 -21763136.58362
  16520398.3184  -13395457.94445 -10345463.16761
  14145543.8184  -40157538.20947 -31166711.94363
  13418785.7944  -42905942.33947 -33125125.49262
  17061840.5604  -30548536.26745 -22852384.98461
  17127279.9894  -32663294.21645 -25209969.94261
  14921260.7784  -23556572.76846 -18245769.37062
 97  1  8  5 51 59.9770000  0  7G30G 6G24G 5G 9G 4G10
  14328063.0754  -28331630.83147 -21847856.51762
  16498986.8574  -13507978.44945 -10433141.48261
  14146743.0524  -40151234.90247 -31161800.27863
  13410855.7864  -42947602.53247 -33157587.99362
  17070219.8644  -30504496.76145 -22818068.51061
  17136955.6224  -32612436.93245 -25170340.90161
  14901811.6074  -23658768.03046 -18325402.03762
 97  1  8  5 52 29.9770000  0  7G30G 6G24G 5G 9G 4G10
  14307457.7474  -28439903.16047 -21932224.56663
  16477592.3494  -13620411.57545 -10520751.69261
  14148011.6854  -40144570.72747 -31156607.41263
  13403036.6534  -42988694.54847 -33189607.75462
  17078613.8724  -30460402.40145 -22783709.28561
  17146642.3644  -32561514.82745 -25130661.34761
  14882456.8494  -23760490.60046 -18404666.35962
 97  1  8  5 52 59.9770000  0  7G30G 6G24G 5G 9G 4G10
  14286936.1694  -28547753.60247 -22016263.87863
  16456210.1384  -13732779.80145 -10608311.33761
  14149339.9114  -40137585.84047 -31151164.64363
  13395319.7634  -43029254.49847 -33221212.92362
  17087008.568   -30416279.651 5 -22749327.90121
  17156344.4034  -32510555.30645 -25090952.62461
  14863191.4354  -23861741.83046 -18483563.40462
 97  1  8  5 53 29.9770000  0  7G30G 6G24G 5G 9G 4G10
  14266496.3184  -28655173.13347 -22099967.40963
  16434836.552   -13845094.104 5 -10695828.96221
  14150727.8104  -40130292.95047 -31145481.87263
  13387701.4434  -43069288.32747 -33252408.12362
  17095410.8184  -30372113.13545 -22714912.42661
  17166045.6224  -32459560.39245 -25051216.34061
  14844013.3414  -23962509.60847 -18562083.74662
 97  1  8  5 53 59.9770000  0  7G30G 6G24G 5G 9G 4G10
  14246137.0054  -28762152.81147 -22183328.20462
  16413473.0684  -13957369.20045 -10783316.04061
  14152173.4744  -40122695.37747 -31139561.67963
  13380183.5604  -43108793.27047 -33283191.20262
  17103823.8024  -30327905.15145 -22680464.65461
  17175752.9664  -32408524.30845 -25011447.96361
  14824931.9744  -24062794.06046 -18640227.46062
 97  1  8  5 54 29.9770000  0  7G30G 6G24G 5G 9G 4G10
  14225860.6304  -28868707.60947 -22266357.92163
  16392110.3414  -14069613.51145 -10870779.12961
  14153675.5284  -40114802.80247 -31133411.62763
  13372767.7004  -43147767.86947 -33313561.03862
  17112244.7324  -30283662.34445 -22645989.74561
  17185476.2714  -32357454.16145 -24971653.03461
  14805940.7944  -24162600.09447 -18717998.38162
 97  1  8  5 54 59.9770000  0  7G30G 6G24G 5G 9G 4G10
  14205665.1694  -28974837.78347 -22349056.75363
  16370762.747   -14181814.769 5 -10958208.63021
  14155235.6384  -40106610.39647 -31127027.93163
  13365455.6694  -43186193.16147 -33343502.84162
  17120670.247   -30239376.864 5 -22611481.57221
  17195202.0444  -32306349.57545 -24931831.29961
  14787038.1934  -24261915.63046 -18795387.09062
 97  1  8  5 55 29.9770000  0  7G30G 6G24G 5G 9G 4G10
  14185553.8184  -29080516.22447 -22431403.59363
  16349420.2324  -14293949.32345 -11045586.16261
  14156857.3024  -40098087.54547 -31120386.75064
  13358252.3104  -43224041.55447 -33372995.09762
  17129112.1854  -30195032.50945 -22576927.53861
  17204928.9894  -32255207.80245 -24891980.57561
  14768234.7164  -24360733.39146 -18872387.93162
 97  1  8  5 55 59.9770000  0  7G30G 6G24G 5G 9G 4G10
  14165530.9824  -29185750.51347 -22513404.33663
  16328094.732   -14406011.992 5 -11132907.69221
  14158540.3574  -40089240.33947 -31113492.82963
  13351159.4974  -43261314.03547 -33402038.59862
  17137555.4664  -30150639.53245 -22542335.59961
  17214669.5834  -32204039.10145 -24852108.85961
  14749527.0284  -24459042.84946 -18948992.69162
 97  1  8  5 56 29.9770000  0  7G30G 6G24G 5G 9G 4G10
  14145587.6074  -29290542.23447 -22595060.23063
  16306784.4114  -14518003.36845 -11220173.66961
  14160281.4034  -40080080.78147 -31106355.50563
  13344174.7394  -43298025.20447 -33430644.71362
  17146017.2084  -30106198.18145 -22507705.98261
  17224409.3024  -32152854.27945 -24812224.59961
  14730920.3254  -24556825.16846 -19025186.69362
 97  1  8  5 56 59.9770000  0  7G30G 6G24G 5G 9G 4G10
  14125735.9194  -29394868.77547 -22676353.64363
  16285483.489   -14629935.334 5 -11307393.33621
  14162084.6074  -40070613.12947 -31098978.11863
  13337292.6854  -43334189.65347 -33458824.82262
  17154478.5834  -30061716.92945 -22473045.27961
  17234155.3184  -32101653.27745 -24772327.72261
  14712413.6074  -24654076.81846 -19100967.19962
 97  1  8  5 57 29.9760000  0  7G30G 6G24G 5G 9G 4G10
  14105977.7584  -29498703.80247 -22757264.05563
  16264199.1254  -14741785.56245 -11394549.34461
  14163945.9064  -40060826.96747 -31091352.53663
  13330518.8604  -43369781.77447 -33486558.94862
  17162952.938   -30017178.303 5 -22438339.85321
  17243908.2584  -32050398.60045 -24732389.02461
  14694012.1254  -24750769.46247 -19176312.10962
 97  1  8  5 57 59.9760000  0  7G30G 6G24G 5G 9G 4G10
  14086301.7744  -29602082.82647 -22837819.14763
  16242924.0244  -14853600.56245 -11481677.88561
  14165866.3364  -40050743.82847 -31083495.54763
  13323851.2744  -43404820.15447 -33513861.58662
  17171435.102   -29972601.191 5 -22403604.45021
  17253669.3834  -31999088.83345 -24692407.40261
  14675718.6254  -24846921.75247 -19251235.95662
 97  1  8  5 58 29.9760000  0  7G30G 6G24G 5G 9G 4G10
  14066718.2814  -29705003.65047 -22918017.18663
  16221653.586   -14965392.095 5 -11568788.14521
  14167840.0704  -40040369.82247 -31075411.90763
  13317289.5164  -43439301.95347 -33540730.52863
  17179923.7974  -29928003.86745 -22368853.29861
  17263444.461   -31947733.220 5 -24652390.05821
  14657517.3284  -24942554.59147 -19325755.04862
 97  1  8  5 58 59.9760000  0  7G30G 6G24G 5G 9G 4G10
  14047218.3754  -29807485.73947 -22997873.36463
  16200380.6024  -15077155.50945 -11655876.50061
  14169868.8674  -40029707.75547 -31067103.81363
  13310835.7274  -43473213.38947 -33567155.03262
  17188413.477   -29883403.090 5 -22334099.47321
  17273223.9224  -31896335.47945 -24612339.89161
  14639414.7504  -25037686.44847 -19399883.74262
 97  1  8  5 59 29.9760000  0  7G30G 6G24G 5G 9G 4G10
  14027796.8914  -29909547.02847 -23077401.64363
  16179121.000   -15188891.145 5 -11742943.20221
  14171955.3524  -40018745.67447 -31058561.92763
  13304492.8364  -43506549.90247 -33593131.54663
  17196901.555   -29838796.181 4 -22299340.82421
  17283009.4694  -31844899.47145 -24572259.88661
  14621407.5704  -25132318.09647 -19473622.67862
 97  1  8  5 59 59.9760000  0  7G30G 6G24G 5G 9G 4G10
  14008451.4454  -30011200.65347 -23156612.25463
  16157855.094   -15300633.683 5 -11830015.27921
  14174093.586   -40007500.306 7 -31049799.29923
  13298251.6334  -43539351.01047 -33618690.84862
  17205378.3204  -29794219.00844 -22264605.38461
  17292795.8674  -31793467.72245 -24532183.20061
  14603487.945   -25226476.125 7 -19546992.55222
 97  1  8  6  0 29.9760000  0  7G30G 6G24G 5G 9G 4G10
  13989192.8134  -30112402.04147 -23235470.49663
  16136599.7424  -15412330.45445 -11917051.73561
  14176292.1884  -39995950.03447 -31040799.09863
  13292114.3604  -43571596.88047 -33643817.52863
  17213862.7894  -29749649.96145 -22229876.27461
  17302589.0004  -31742020.96845 -24492094.84761
  14585669.0864  -25320132.28547 -19619971.37262
 97  1  8  6  0 59.9760000  0  7G30G 6G24G 5G 9G 4G10
  13970024.9224  -30213132.14847 -23313961.48463
  16115357.813   -15523965.639 5 -12004040.16121
  14178549.0944  -39984097.85647 -31031563.63563
  13286082.6104  -43603292.09947 -33668515.10563
  17222345.8364  -29705076.65045 -22195143.81961
  17312383.9694  -31690540.10645 -24451979.90361
  14567946.2894  -25413276.47347 -19692551.24862
 97  1  8  6  1 29.9760000  0  7G30G 6G24G 5G 9G 4G10
  13950951.3994  -30313355.20147 -23392057.37463
  16094123.2974  -15635540.13345 -12090981.31861
  14180862.5244  -39971940.44147 -31022090.31963
  13280156.9614  -43634442.58047 -33692788.21963
  17230831.149   -29660497.076 5 -22160406.52921
  17322193.4384  -31639013.02345 -24411828.94161
  14550319.7194  -25505888.36447 -19764716.35762
 97  1  8  6  1 59.9760000  0  7G30G 6G24G 5G 9G 4G10
  13931982.0784  -30413053.17747 -23469744.10763
  16072909.4774  -15747030.47446 -12177856.88561
  14183228.7114  -39959497.04847 -31012394.18363
  13274332.6104  -43665042.43447 -33716632.27463
  17239309.945   -29615920.018 5 -22125671.17321
  17332001.4384  -31587437.00245 -24371639.85061
  14532800.8674  -25597961.78747 -19836461.86262
 97  1  8  6  2 29.9760000  0  7G30G 6G24G 5G 9G 4G10
  13913103.9694  -30512251.62647 -23547041.60563
  16051707.7974  -15858434.63745 -12264665.33261
  14185651.9454  -39946781.48547 -31002485.95863
  13268615.1334  -43695086.38447 -33740043.15663
  17247794.9224  -29571342.70844 -22090935.63261
  17341826.4304  -31535813.16545 -24331413.49061
  14515381.9454  -25689499.93547 -19907790.27662
 97  1  8  6  2 59.9760000  0  7G30G 6G24G 5G 9G 4G10
  13894319.6564  -30610965.72347 -23623961.68763
  16030524.5634  -15969764.93146 -12351416.20461
  14188121.8914  -39933784.63647 -30992358.53663
  13263007.3994  -43724561.36047 -33763010.67663
  17256272.7354  -29526761.81444 -22056197.25161
  17351652.3364  -31484150.51444 -24291156.89161
  14498065.8524  -25780488.50547 -19978690.45762
 97  1  8  6  3 29.9760000  0  7G30G 6G24G 5G 9G 4G10
  13875622.1644  -30709213.39147 -23700518.31763
  16009348.5634  -16081030.90446 -12438116.96161
  14190650.0394  -39920498.09847 -30982005.39863
  13257505.4144  -43753472.89447 -33785539.15063
  17264760.563   -29482187.515 5 -22021464.04821
  17361493.539   -31432474.612 4 -24250889.96321
  14480856.4454  -25870917.12647 -20049154.30262
 97  1  8  6  3 59.9760000  0  7G30G 6G24G 5G 9G 4G10
  13857011.1804  -30807006.62047 -23776720.82963
  15988189.0944  -16192239.61746 -12524773.08761
  14193232.5164  -39906935.22847 -30971436.92763
  13252108.8834  -43781822.70647 -33807629.92963
  17273237.0944  -29437622.60244 -21986738.15561
  17371325.141   -31380803.493 4 -24210626.77421
  14463752.8914  -25960806.13647 -20119197.67562
 97  1  8  6  4 29.9760000  0  7G30G 6G24G 5G 9G 4G10
  13838492.7114  -30904344.49747 -23852568.51763
  15967034.3994  -16303400.50346 -12611391.96861
  14195867.8754  -39893081.04247 -30960641.44563
  13246822.7814  -43809608.49647 -33829281.19763
  17281717.0084  -29393059.03845 -21952013.29961
  17381160.578   -31329144.094 4 -24170372.69121
  14446747.9614  -26050156.15947 -20188821.04962
 97  1  8  6  4 59.9760000  0  7G30G 6G24G 5G 9G 4G10
  13820062.1174  -31001195.73647 -23928037.02163
  15945895.4854  -16414497.34846 -12697960.95361
  14198561.0004  -39878928.29247 -30949613.34563
  13241643.7114  -43836822.18647 -33850486.69162
  17290197.4774  -29348500.63344 -21917292.50561
  17390983.0634  -31277492.87444 -24130125.00561
  14429849.5164  -26138954.94547 -20258014.91562
 97  1  8  6  5 29.9760000  0  7G30G 6G24G 5G 9G 4G10
  13801725.320   -31097552.266 7 -24003120.03223
  15924763.9384  -16525540.36446 -12784487.99961
  14201309.508   -39864496.083 7 -30938367.46923
  13236569.828   -43863490.457 7 -33871267.17123
  17298673.281   -29303961.859 4 -21882586.99221
  17400812.5164  -31225847.49645 -24089881.86061
  14413054.2034  -26227221.69047 -20326794.17762
 97  1  8  6  5 59.9760000  0  7G30G 6G24G 5G 9G 4G10
  13783483.2974  -31193415.76747 -24077818.85963
  15903643.977   -16636529.582 6 -12870973.12921
  14204104.6174  -39849797.69947 -30926914.17963
  13231600.5314  -43889610.16047 -33891620.20063
  17307145.375   -29259443.158 4 -21847897.09421
  17410641.9384  -31174201.48745 -24049638.20761
  14396358.6954  -26314963.60447 -20395164.48762
 97  1  8  6  6 29.9760000  0  7G30G 6G24G 5G 9G 4G10
  13765335.188   -31288790.156 7 -24152136.55323
  15882530.0784  -16747469.74746 -12957420.01861
  14206951.9694  -39834834.87247 -30915254.83562
  13226732.1254  -43915185.99147 -33911549.42962
  17315611.3674  -29214951.01144 -21813227.90961
  17420469.2894  -31122557.51745 -24009396.16761
  14379760.695   -26402168.143 7 -20463116.05922
 97  1  8  6  6 59.9760000  0  7G30G 6G24G 5G 9G 4G10
  13747280.9924  -31383660.83147 -24226061.75363
  15861432.531   -16858358.277 6 -13043826.69421
  14209848.2584  -39819614.99247 -30903395.19263
  13221967.6254  -43940224.36347 -33931059.85863
  17324075.3284  -29170487.11544 -21778580.74261
  17430295.7664  -31070893.60545 -23969138.55761
  14363271.2114  -26488824.44247 -20530640.44562
 97  1  8  6  7 29.9760000  0  7G30G 6G24G 5G 9G 4G10
  13729324.2504  -31478021.90247 -24299589.85363
  15840338.133   -16969198.636 6 -13130195.82021
  14212792.6644  -39804136.64347 -30891334.14762
  13217304.6644  -43964724.00247 -33950150.50363
  17332528.4694  -29126047.05943 -21743952.14561
  17440133.5394  -31019209.25145 -23928865.04261
  14346887.4854  -26574931.59347 -20597736.91862
 97  1  8  6  7 59.9760000  0  7G30G 6G24G 5G 9G 4G10
  13711468.4924  -31571864.45047 -24372713.90163
  15819253.6024  -17079984.85746 -13216522.76361
  14215786.1334  -39788401.34447 -30879072.86763
  13212749.9384  -43988665.76947 -33968806.42862
  17340984.2354  -29081625.11844 -21709337.65361
  17449972.6644  -30967517.37445 -23888585.63561
  14330604.7114  -26660485.88047 -20664402.58862
 97  1  8  6  8 29.9760000  0  7G30G 6G24G 5G 9G 4G10
  13693706.1174  -31665191.10947 -24445435.97363
  15798185.570   -17190720.055 6 -13302809.96721
  14218831.6494  -39772420.18047 -30866620.02363
  13208297.8054  -44012056.61747 -33987033.08562
  17349426.633   -29037242.606 4 -21674753.87221
  17459808.539   -30915830.351 5 -23848310.03121
  14314429.3834  -26745495.96347 -20730644.21262
 97  1  8  6  8 59.9760000  0  7G30G 6G24G 5G 9G 4G10
  13676046.7274  -31758006.88147 -24517759.94763
  15777120.860   -17301399.217 6 -13389053.49921
  14221916.3994  -39756191.28747 -30853974.12963
  13203954.289   -44034890.938 7 -34004826.07623
  17357865.3674  -28992910.62044 -21640209.48361
  17469642.172   -30864156.670 5 -23808044.81721
  14298354.0084  -26829966.35347 -20796465.28262
 97  1  8  6  9 29.9760000  0  7G30G 6G24G 5G 9G 4G10
  13658480.4064  -31850316.94147 -24589689.85763
  15756069.2274  -17412023.78446 -13475254.48761
  14225052.7814  -39739710.59847 -30841132.04263
  13199719.0474  -44057144.29247 -34022166.36363
  17366293.7894  -28948627.13344 -21605702.85061
  17479472.3054  -30812513.26545 -23767803.17361
  14282385.0554  -26913888.84147 -20861859.41962
 97  1  8  6  9 59.9760000  0  7G30G 6G24G 5G 9G 4G10
  13641004.8204  -31942144.82747 -24661244.04263
  15735029.9384  -17522598.84846 -13561416.88961
  14228234.4854  -39722989.04047 -30828102.25163
  13195593.7664  -44078820.16747 -34039056.66163
  17374706.8054  -28904407.59944 -21571246.08661
  17489291.9224  -30760896.68945 -23727582.46461
  14266520.1644  -26997263.14547 -20926826.39162
 97  1  8  6 10 29.9760000  0  7G30G 6G24G 5G 9G 4G10
  13623620.5634  -32033495.86247 -24732426.67563
  15714001.4924  -17633109.45146 -13647529.07961
  14231464.8284  -39706017.86447 -30814877.96863
  13191576.9384  -44099924.45147 -34055501.58463
  17383109.4304  -28860261.27544 -21536846.36361
  17499108.5244  -30709286.70245 -23687366.89461
  14250761.5314  -27080070.81347 -20991351.84962
 97  1  8  6 10 59.9760000  0  7G30G 6G24G 5G 9G 4G10
  13606330.1644  -32124378.60147 -24803244.39463
  15692978.4614  -17743579.62346 -13733609.73761
  14234739.4384  -39688812.66447 -30801471.32063
  13187665.8754  -44120478.42447 -34071517.67463
  17391495.9224  -28816186.33244 -21502502.25261
  17508936.649   -30657686.457 5 -23647158.88421
  14235109.9304  -27162318.11347 -21055440.63962
 97  1  8  6 11 29.9760000  0  7G30G 6G24G 5G 9G 4G10
  13589123.8284  -32214781.88147 -24873688.51763
  15671967.4224  -17854000.78346 -13819652.20861
  14238056.3914  -39671375.82447 -30787884.17863
  13183855.0244  -44140503.49447 -34087121.63663
  17399871.2744  -28772178.29744 -21468210.27761
  17518747.9694  -30606074.12044 -23606941.47761
  14219569.5554  -27244002.55447 -21119090.84362
 97  1  8  6 11 59.9760000  0  7G30G 6G24G 5G 9G 4G10
  13572017.2814  -32304676.00447 -24943735.88763
  15650966.547   -17964345.578 6 -13905635.17621
  14241422.1724  -39653690.02647 -30774103.04263
  13180143.594   -44160009.820 7 -34102321.38523
  17408234.031   -28728225.272 4 -21433961.17721
  17528581.8994  -30554433.29944 -23566701.84461
  14204130.2744  -27325117.95947 -21182297.64062
 97  1  8  6 12 29.9760000  0  7G30G 6G24G 5G 9G 4G10
  13555013.1724  -32394041.58447 -25013371.40563
  15629978.7114  -18074625.64746 -13991567.69061
  14244835.5554  -39635756.38447 -30760128.76763
  13176529.6724  -44179005.93747 -34117123.55962
  17416588.0004  -28684324.94343 -21399753.12861
  17538406.5244  -30502793.11944 -23526462.73061
  14188800.180   -27405682.712 7 -21245075.33822
 97  1  8  6 12 59.9760000  0  7G30G 6G24G 5G 9G 4G10
  13538112.4854  -32482851.66547 -25082574.08163
  15609006.063   -18184848.072 6 -14077455.30321
  14248294.6024  -39617578.45447 -30745964.15563
  13173015.274   -44197468.890 7 -34131510.29723
  17424932.8674  -28640470.15643 -21365580.53661
  17548228.9064  -30451165.96744 -23486233.78861
  14173573.0944  -27485698.04547 -21307424.94662
 97  1  8  6 13 29.9760000  0  7G30G 6G24G 5G 9G 4G10
  13521317.8134  -32571103.65847 -25151341.86863
  15588045.5864  -18295017.25646 -14163301.41861
  14251799.8834  -39599152.72647 -30731606.44663
  13169606.8204  -44215387.91747 -34145473.18063
  17433259.719   -28596684.242 3 -21331461.62221
  17558046.860   -30399579.147 4 -23446036.26421
  14158452.7504  -27565164.36147 -21369346.74662
 97  1  8  6 13 59.9760000  0  7G30G 6G24G 5G 9G 4G10
  13504633.9924  -32658788.94347 -25219668.07163
  15567086.8754  -18405131.62746 -14249104.82661
  14255356.5704  -39580473.47647 -30717051.19363
  13166308.2814  -44232718.04747 -34158977.18863
  17441587.875   -28552954.515 3 -21297386.52021
  17567851.9534  -30348044.76944 -23405879.58761
  14143435.078   -27644063.244 7 -21430826.37322
 97  1  8  6 14 29.9750000  0  7G30G 6G24G 5G 9G 4G10
  13488052.6124  -32745920.50947 -25287562.80163
  15546143.5194  -18515200.56346 -14334872.82061
  14258954.2534  -39561557.31147 -30702311.32363
  13163123.5114  -44249441.84347 -34172008.73063
  17449898.6054  -28509293.73243 -21263365.12761
  17577652.3234  -30296560.17444 -23365761.72261
  14128533.5114  -27722379.45947 -21491851.98162
 97  1  8  6 14 59.9750000  0  7G30G 6G24G 5G 9G 4G10
  13471572.3704  -32832519.52247 -25355042.55563
  15525206.8314  -18625225.75346 -14420606.73461
  14262601.6914  -39542402.30947 -30687385.34863
  13160058.3004  -44265561.06947 -34184569.17663
  17458187.823   -28465694.933 3 -21229392.00721
  17587441.7374  -30245102.54144 -23325664.86761
  14113748.0194  -27800096.23547 -21552410.49262
 97  1  8  6 15 29.9750000  0  7G30G 6G24G 5G 9G 4G10
  13455188.3624  -32918603.33947 -25422120.86563
  15504282.2454  -18735188.02146 -14506291.62261
  14266291.8474  -39523000.42347 -30672266.99263
  13157105.0194  -44281091.46547 -34196670.79463
  17466474.6124  -28422155.14143 -21195464.90461
  17597232.4254  -30193660.85444 -23285580.43161
  14099073.3864  -27877206.00747 -21612496.01262
 97  1  8  6 15 59.9750000  0  7G30G 6G24G 5G 9G 4G10
  13438903.9484  -33004185.75047 -25488808.46063
  15483374.7144  -18845071.44246 -14591915.05561
  14270029.4724  -39503364.87647 -30656966.56263
  13154257.1984  -44296048.69447 -34208325.78363
  17474751.323   -28378667.761 3 -21161578.59921
  17607019.7144  -30142225.48944 -23245500.92561
  14084512.5344  -27953719.73847 -21672117.08362
 97  1  8  6 16 29.9750000  0  6G30G 6G24G 5G 9G10
  13422714.7694  -33089269.42247 -25555107.42263
  15462474.3624  -18954881.14146 -14677481.05461
  14273805.7454  -39483504.45047 -30641490.91263
  13151514.9724  -44310463.72047 -34219558.29663
  17483016.730   -28335234.708 4 -21127734.63121
  14070064.1834  -28029643.99847 -21731278.83862
 97  1  8  6 16 59.9750000  0  6G30G 6G24G 5G 9G10
  13406618.1914  -33173863.07347 -25621024.55763
  15441589.722   -19064628.942 6 -14762998.81721
  14277626.1914  -39463433.76047 -30625851.41363
  13148868.0504  -44324375.12747 -34230398.36863
  17491267.3944  -28291872.62743 -21093945.98961
  14055722.019   -28105012.878 7 -21790007.80523
 97  1  8  6 17 29.9750000  0  6G30G 6G24G 5G 9G10
  13390613.4724  -33257957.51347 -25686552.69563
  15420720.2614  -19174311.77446 -14848465.95061
  14281483.4724  -39443164.16547 -30610056.92163
  13146314.0814  -44337788.46947 -34240850.34563
  17499507.4254  -28248590.97942 -21060219.95861
  14041484.261   -28179835.296 7 -21848310.97022
 97  1  8  6 17 59.9750000  0  6G30G 6G24G 5G 9G10
  13374712.5194  -33341525.86847 -25751670.89363
  15399857.894   -19283931.631 6 -14933883.98621
  14285379.2144  -39422699.40647 -30594110.35963
  13143858.5974  -44350690.88147 -34250904.18463
  17507725.6124  -28205385.73742 -21026553.55761
  14027351.5504  -28254097.97847 -21906177.97862
 97  1  8  6 18 29.9750000  0  6G30G 6G24G 5G 9G10
  13358912.4804  -33424539.73647 -25816357.02763
  15379012.058   -19393487.907 6 -15019252.53921
  14289309.3314  -39402028.61647 -30578003.25563
  13141503.1524  -44363070.42547 -34260550.58763
  17515937.089   -28162256.622 3 -20992946.43121
  14013332.2534  -28327774.00847 -21963587.85162
 97  1  8  6 18 59.9750000  0  6G30G 6G24G 5G 9G10
  13343224.4094  -33506989.20047 -25880603.36663
  15358174.6594  -19502969.07846 -15104562.52361
  14293288.4174  -39381141.51647 -30561727.58563
  13139249.9644  -44374911.76247 -34269777.61663
  17524117.823   -28119222.068 3 -20959412.96221
  13999425.394   -28400860.112 7 -22020538.04022
 97  1  8  6 19 29.9750000  0  6G30G 6G24G 5G 9G10
  13327640.1284  -33588878.99647 -25944413.60363
  15337354.8864  -19612387.34446 -15189823.49961
  14297303.8004  -39360038.05847 -30545283.33063
  13137102.2144  -44386198.06947 -34278572.15763
  17532290.6984  -28076301.96142 -20925968.74561
  13985634.0814  -28473343.85147 -22077018.86162
 97  1  8  6 19 59.9750000  0  6G30G 6G24G 5G 9G10
  13312160.6754  -33670231.99347 -26007805.54562
  15316538.6674  -19721775.31946 -15275060.87761
  14301352.5664  -39338747.15447 -30528693.01663
  13135058.3944  -44396944.92547 -34286946.33763
  17540426.4564  -28033539.24043 -20892647.10461
  13971948.6984  -28545249.34147 -22133049.10062
 97  1  8  6 20 29.9750000  0  5G30G 6G24G 5G10
  13296785.4174  -33751030.63947 -26070765.52963
  15295735.7694  -19831109.29346 -15360256.16461
  14305446.5584  -39317244.50447 -30511937.70563
  13133118.9724  -44407126.23947 -34294879.83763
  13958376.5114  -28616556.20947 -22188612.87963
 97  1  8  6 20 59.9750000  0  5G30G 6G24G 5G10
  13281518.5894  -33831267.07447 -26133287.43163
  15274944.6124  -19940376.87746 -15445399.74461
  14309580.5194  -39295508.85647 -30495000.84063
  13131294.7304  -44416719.36247 -34302355.02063
  13944922.9724  -28687251.71047 -22243700.26863
 97  1  8  6 21 29.9750000  0  5G30G 6G24G 5G10
  13266351.5274  -33910966.79747 -26195391.11763
  15254156.4874  -20049601.76646 -15530510.02861
  14313754.6124  -39273576.04947 -30477910.33863
  13129575.9024  -44425750.31947 -34309392.13263
  13931584.7924  -28757350.66947 -22298322.82863
 97  1  8  6 21 59.9750000  0  5G30G 6G24G 5G10
  13251284.7614  -33990140.26647 -26257084.74063
  15233382.3164  -20158783.07246 -15615586.36561
  14317961.1054  -39251469.85347 -30460684.72963
  13127959.4024  -44434247.33447 -34316013.19263
  13918359.5814  -28826863.23247 -22352488.45163
 97  1  8  6 22 29.9750000  0  5G30G 6G24G 5G10
  13236319.4954  -34068790.98647 -26318371.02062
  15212610.3164  -20267914.80546 -15700624.07861
  14322205.9254  -39229183.47547 -30443318.72663
  13126440.2374  -44442220.66047 -34322226.19563
  13905237.9414  -28895795.12247 -22406201.59563
 97  1  8  6 22 59.9750000  0  5G30G 6G24G 5G10
  13221453.7694  -34146904.16147 -26379238.42763
  15191858.4094  -20376979.65646 -15785609.66261
  14326480.3784  -39206709.15647 -30425806.27363
  13125026.9954  -44449659.71847 -34328022.88563
  13892231.6444  -28964144.71147 -22459461.00463
 97  1  8  6 23 29.9750000  0  5G30G 6G24G 5G10
  13206690.1834  -34224471.91247 -26439680.83463
  15171119.8624  -20485971.30646 -15870538.22861
  14330789.8624  -39184060.21647 -30408157.75263
  13123709.0504  -44456574.06047 -34333410.69763
  13879338.7694  -29031924.73547 -22512276.59862
 97  1  8  6 23 59.9750000  0  5G30G 6G24G 5G10
  13192039.8084  -34301476.41947 -26499684.35163
  15150390.8474  -20594885.47746 -15955406.40561
  14335139.8164  -39161212.49047 -30390354.33663
  13122497.3234  -44462950.59647 -34338379.43663
  13866546.4724  -29099129.18147 -22564643.68162
 97  1  8  6 24 29.9750000  0  5G30G 6G24G 5G10
  13177494.8704  -34377910.99047 -26559243.76062
  15129682.0504  -20703723.01546 -16040214.86661
  14339525.5814  -39138151.47247 -30372384.71562
  13121387.7924  -44468782.30347 -34342923.63563
  13853867.0034  -29165765.60847 -22616568.15763
 97  1  8  6 24 59.9750000  0  5G30G 6G24G 5G10
  13163057.0814  -34453772.91947 -26618356.96162
  15108984.6594  -20812487.73446 -16124966.58261
  14343955.8474  -39114878.85247 -30354250.21063
  13120380.9414  -44474064.75947 -34347039.85263
  13841299.6054  -29231815.40747 -22668035.52663
 97  1  8  6 25 29.9750000  0  5G30G 6G24G 5G10
  13148730.2144  -34529074.83447 -26677033.78262
  15088297.2374  -20921199.91546 -16209677.35961
  14348422.8314  -39091396.07747 -30335951.95062
  13119476.4954  -44478825.17447 -34350749.28563
  13828842.0034  -29297267.34747 -22719037.02262
 97  1  8  6 25 59.9750000  0  5G30G 6G24G 5G10
  13134500.5734  -34603829.25347 -26735283.97963
  15067619.1754  -21029864.69646 -16294351.21461
  14352928.6444  -39067707.12947 -30317493.03962
  13118670.4334  -44483065.43147 -34354053.40363
  13816506.1204  -29362101.52647 -22769557.14663
 97  1  8  6 26 29.9750000  0  5G30G 6G24G 5G10
  13120375.7304  -34678076.54547 -26793139.01563
  15046943.3704  -21138514.83846 -16379013.66061
  14357467.9334  -39043870.51847 -30298919.05762
  13117953.4414  -44486824.61547 -34356982.63963
  13804278.6284  -29426350.89147 -22819621.57763
 97  1  8  6 26 59.9750000  0  5G30G 6G24G 5G10
  13106349.2534  -34751770.30747 -26850562.74162
  15026278.1754  -21247115.48046 -16463637.53061
  14362036.5814  -39019864.11447 -30280212.77862
  13117337.7924  -44490059.55947 -34359503.38763
  13792173.4174  -29489964.83047 -22869190.87463
 97  1  8  6 27 29.9750000  0  5G30G 6G24G 5G10
  13092438.0974  -34824893.65647 -26907541.97762
  15005620.2774  -21355657.25046 -16548215.53361
  14366633.5344  -38995689.37747 -30261375.32962
  13116826.339   -44492761.087 7 -34361608.49723
  13780185.3164  -29552954.01647 -22918273.35363
 97  1  8  6 27 59.9750000  0  5G30G 6G24G 5G10
  13078627.2064  -34897457.48847 -26964085.22863
  14984980.3314  -21464140.16646 -16632747.67161
  14371264.2614  -38971370.12847 -30242425.27362
  13116412.0424  -44494923.06547 -34363293.16563
  13768313.6364  -29615353.75147 -22966896.50562
 97  1  8  6 28 29.9750000  0  5G30G 6G24G 5G10
  13064928.7304  -34969437.61347 -27020173.63263
  14964347.6984  -21572549.80546 -16717222.71661
  14375922.5894  -38946889.20747 -30223349.23562
  13116105.9094  -44496542.13747 -34364554.80163
  13756547.7374  -29677181.18547 -23015073.72362
 97  1  8  6 28 59.9750000  0  5G30G 6G24G 5G10
  13051348.0344  -35040821.04047 -27075797.09563
  14943736.9874  -21680863.94746 -16801623.35061
  14380616.0194  -38922215.09347 -30204122.65762
  13115899.6054  -44497609.19747 -34365386.29063
  13744892.1284  -29738425.41547 -23062796.49063
 97  1  8  6 29 29.9750000  0  5G30G 6G24G 5G10
  13037869.1834  -35111636.23947 -27130977.77263
  14923144.0584  -21789092.44046 -16885957.25261
  14385348.4564  -38897357.63947 -30184753.22362
  13115799.0114  -44498146.12347
  13733347.1834  -29799104.87147 -23110079.17263
 97  1  8  6 29 59.9750000  0  5G30G 6G24G 5G10
  13024500.8234  -35181908.22147 -27185735.16763
  14902559.4644  -21897253.48246 -16970238.58661
  14390109.0424  -38872342.37947 -30165260.81762
  13115794.5504  -44498175.39847
  13721905.7064  -29859223.08647 -23156924.52162
 97  1  8  6 30 29.9750000  0  5G30G 6G24G 5G10
  13011232.2924  -35251622.95247 -27240058.34363
  14881990.152   -22005344.606 6 -17054465.46721
  14394899.6524  -38847164.54347 -30145641.72762
  13115885.9874  -44497691.35147
  13710581.4484  -29918750.64347 -23203309.61963
 97  1  8  6 30 59.9750000  0  5G30G 6G24G 5G10
  12998070.1914  -35320783.90247 -27293949.99563
  14861433.7534  -22113370.90946 -17138641.81861
  14399720.9954  -38821836.33847 -30125905.47362
  13116075.9564  -44496679.88247 -34364662.20663
  13699368.5894  -29977658.38647 -23249211.74063
 97  1  8  6 31 29.9750000  0  5G30G 6G24G 5G10
  12985013.6524  -35389412.88947 -27347427.13263
  14840882.823   -22221367.052 6 -17222794.67921
  14404555.1914  -38796411.17047 -30106093.66062
  13116365.2304  -44495180.49247 -34363493.86863
  13688270.0194  -30035979.66747 -23294656.88763
 97  1  8  6 31 59.9740000  0  5G30G 6G24G 5G10
  12972063.3114  -35457455.52347 -27400447.37063
  14820346.3654  -22329289.94946 -17306890.43861
  14409422.5844  -38770845.69247 -30086172.51562
  13116746.4514  -44493162.93547 -34361921.75963
  13677291.3814  -30093681.14247 -23339619.06563
 97  1  8  6 32 29.9740000  0  5G30G 6G24G 5G10
  12959234.5454  -35524873.41847 -27452980.79363
  14799830.6474  -22437112.62646 -17390908.12261
  14414323.9594  -38745088.30847 -30066101.83562
  13117235.8504  -44490595.19447 -34359920.93863
  13666436.0144  -30150730.53047 -23384073.12263
 97  1  8  6 32 59.9740000  0  5G30G 6G24G 5G10
  12946522.9984  -35591673.47447 -27505032.79363
  14779326.2724  -22544855.72746 -17474863.76961
  14419260.6154  -38719150.13047 -30045890.27462
  13117825.5614  -44487505.70447 -34357513.55763
  13655697.2174  -30207154.30947 -23428039.68963
 97  1  8  6 33 29.9740000  0  5G30G 6G24G 5G10
  12933928.6394  -35657863.60547 -27556609.52563
  14758836.1394  -22652525.47346 -17558762.27361
  14424229.8504  -38693029.55147 -30025536.58562
  13118510.2644  -44483909.31947 -34354711.18663
  13645071.4284  -30262972.05147 -23471534.02162
 97  1  8  6 33 59.9740000  0  6G30G 6G24G 5G17G10
  12921446.3894  -35723452.60547 -27607717.84463
  14738360.873   -22760126.760 6 -17642607.43521
  14429236.6624  -38666719.39347 -30005035.17862
  13119291.6154  -44479793.87247 -34351504.35863
  16998674.5224         -0.42653
  13634573.2954  -30318165.37547 -23514541.78862
 97  1  8  6 34 29.9740000  0  6G30G 6G24G 5G17G10
  12909075.8194  -35788454.42047 -27658368.62463
  14717899.1234  -22867654.65946 -17726395.41461
  14434275.0694  -38640241.28747 -29984402.88762
  13120174.912   -44475147.582 7 -34347883.90023
  16972876.7724    -135556.11143
  13624190.5064  -30372724.56147 -23557055.44162
 97  1  8  6 34 59.9740000  0  6G30G 6G24G 5G17G10
  12896813.8424  -35852889.31647 -27708577.63163
  14697452.6394  -22975103.05346 -17810121.41761
  14439345.0844  -38613616.43747 -29963656.25362
  13121161.0294  -44469971.64647 -34343850.71763
  16947109.4984    -270970.18743        -0.23471
  13613923.6944  -30426676.24847 -23599095.71262
 97  1  8  6 35 29.9740000  0  6G30G 6G24G 5G17G10
  12884658.6394  -35916765.22347 -27758351.07963
  14677027.1944  -23082443.49446 -17893763.30961
  14444436.7014  -38586841.73047 -29942792.85362
  13122249.5694  -44464252.88247 -34339394.55563
  16921370.748     -406228.544 3   -105396.35721
  13603774.7334  -30480001.12647 -23640647.54962
 97  1  8  6 35 59.9740000  0  6G30G 6G24G 5G17G10
  12872611.9904  -35980087.52347 -27807693.13963
  14656619.5224  -23189682.08746 -17977325.82962
  14449556.6544  -38559939.43547 -29921830.03462
  13123437.9834  -44458000.60147 -34334522.65763
  16895659.631     -541341.115 3   -210678.88121
  13593743.4834  -30532710.75847 -23681719.98163
 97  1  8  6 36 29.9740000  0  6G30G 6G24G 5G17G10
  12860670.6154  -36042839.16547 -27856590.53363
  14636230.3894  -23296825.47546 -18060814.17061
  14454700.5224  -38532908.24547 -29900766.77862
  13124727.7174  -44451222.76847 -34329241.24763
  16869976.9044    -676295.75543   -315838.25861
  13583825.6084  -30584829.28147 -23722331.81163
 97  1  8  6 36 59.9740000  0  6G30G 6G24G 5G17G10
  12848840.5764  -36105000.78847 -27905028.16063
  14615859.436   -23403882.812 6 -18144235.45122
  14459869.0844  -38505742.52447 -29879598.69262
  13126116.4904  -44443925.24147 -34323554.88463
  16844336.1004    -811066.40843   -420854.38161
  13574021.7644  -30636353.65347 -23762480.66662
 97  1  8  6 37 29.9740000  0  6G30G 6G24G 5G17G10
  12837127.2174  -36166550.28547 -27952988.81163
  14595499.4204  -23510870.39046 -18227602.38062
  14465064.8114  -38478442.39647 -29858325.87662
  13127605.2094  -44436109.11347 -34317464.40363
  16818728.076     -945630.702 3   -525709.60521
  13564338.9284  -30687253.69247 -23802143.02263
 97  1  8  6 37 59.9740000  0  6G30G 6G24G 5G17G10
  12825529.8654  -36227494.12647 -28000477.51963
  14575147.311   -23617821.286 6 -18310940.72022
  14470284.1154  -38451025.71447 -29836962.22862
  13129187.0764  -44427788.61447 -34310980.90463
  16793157.1314   -1079998.72943   -630411.91761
  13554766.6784  -30737556.06347 -23841339.66463
 97  1  8  6 38 29.9740000  0  6G30G 6G24G 5G17G10
  12814044.6314  -36287847.17347 -28047505.87763
  14554800.7794  -23724741.54546 -18394255.19562
  14475518.5614  -38423503.68946 -29815516.50462
  13130863.7094  -44418979.57647 -34304116.74063
  16767625.662    -1214176.564 3   -734966.07521
  13545306.8814  -30787270.28947 -23880078.02563
 97  1  8  6 38 59.9740000  0  6G30G 6G24G 5G17G10
  12802669.6474  -36347620.03147 -28094082.13363
  14534462.8264  -23831618.73446 -18477536.10562
  14480778.1944  -38395873.77347 -29793986.70162
  13132633.5454  -44409680.30347 -34296870.55963
  16742131.389    -1348169.051 2   -839375.76921
  13535959.5614  -30836386.76647 -23918350.59463
 97  1  8  6 39 29.9740000  0  6G30G 6G24G 5G17G10
  12791405.8974  -36406808.11547 -28140202.72563
  14514135.6154  -23938431.74146 -18560767.00262
  14486059.9754  -38368116.76146 -29772357.87062
  13134497.3114  -44399886.59147 -34289239.11563
  16716661.1784   -1481976.95842   -943641.62461
  13526725.3654  -30884910.90047 -23956161.60063
 97  1  8  6 39 59.9740000  0  6G30G 6G24G 5G17G10
  12780258.5694  -36465393.18047 -28185853.44263
  14493833.1234  -24045135.80346 -18643913.00562
  14491368.8424  -38340208.53046 -29750611.20762
  13136456.4364  -44389591.84247 -34281217.25063
  16691235.8734   -1615591.69442  -1047756.95761
  13517606.3654  -30932833.90847 -23993504.20363
 97  1  8  6 40 29.9740000  0  6G30G 6G24G 5G17G10
  12769224.9124  -36523381.54747 -28231039.18863
  14473546.389   -24151733.587 6 -18726976.19322
  14496704.4674  -38312169.45646 -29728762.58162
  13138506.5844  -44378824.80947 -34272827.36663
  16665846.7174   -1749034.55342  -1151738.40161
  13508596.5764  -30980166.68047 -24030386.87063
 97  1  8  6 40 59.9740000  0  6G30G 6G24G 5G17G10
  12758306.5764  -36580757.73747 -28275747.91663
  14453281.0764  -24258219.46446 -18809952.17862
  14502068.8344  -38283980.40446 -29706797.08762
  13140646.9594  -44367577.92947 -34264063.58563
  16640490.3034   -1882287.89043  -1255572.11761
  13499707.9284  -31026892.29647 -24066796.43663
 97  1  8  6 41 29.9740000  0  6G30G 6G24G 5G17G10
  12747506.4514  -36637522.09347 -28319979.88463
  14433041.0144  -24364589.23246 -18892837.68862
  14507462.3974  -38255646.75446 -29684718.92762
  13142877.4514  -44355847.33447 -34254922.87163
  16615165.998    -2015342.448 2  -1359251.02821
  13490930.2094  -31072995.62747 -24102721.10263
 97  1  8  6 41 59.9740000  0  6G30G 6G24G 5G17G10
  12736815.1784  -36693701.39447 -28363755.96163
  14412816.108   -24470869.868 6 -18975653.75022
  14512878.1234  -38227192.02646 -29662546.41562
  13145198.4284  -44343650.62647 -34245418.95663
  16589875.834    -2148213.209 2  -1462786.67321
  13482276.4834  -31118475.58847 -24138160.02763
 97  1  8  6 42 29.9740000  0  6G30G 6G24G 5G17G10
  12726234.7484  -36749304.55547 -28407083.11363
  14392606.2094  -24577081.09146 -19058415.72062
  14518317.1234  -38198599.40246 -29640266.45762
  13147612.3344  -44330961.71547 -34235531.50963
  16564635.9514   -2280880.18042  -1566163.54961
  13473744.1784  -31163315.67147 -24173100.34763
 97  1  8  6 42 59.9740000  0  6G30G 6G24G 5G17G10
  12715759.4444  -36804349.32547 -28449975.14963
  14372406.2094  -24683231.28846 -19141130.14062
  14523784.9984  -38169866.57446 -29617877.24562
  13150121.5694  -44317776.90047 -34225257.64563
  16539426.3194   -2413347.96343  -1669385.12861
  13465332.6314  -31207512.02047 -24207539.04563
 97  1  8  6 43 29.9740000  0  6G30G 6G24G 5G17G10
  12705393.0224  -36858820.91747 -28492420.55463
  14352220.2724  -24789298.69046 -19223780.05862
  14529280.4124  -38140996.28646 -29595380.91562
  13152727.061   -44304086.788 7 -34214590.04523
  16514261.3654   -2545609.30543  -1772445.92061
  13457048.5844  -31251053.73747 -24241467.66163
 97  1  8  6 43 59.9740000  0  6G30G 6G24G 5G17G10
  12695136.6624  -36912712.45047 -28534413.95963
  14332052.9674  -24895287.99646 -19306369.12262
  14534797.4124  -38111998.85046 -29572785.51762
  13155427.2954  -44289904.01447 -34203538.56263
  16489130.1944   -2677672.53144  -1875352.35361
  13448884.7954  -31293960.45347 -24274901.45563
 97  1  8  6 44 29.9740000  0  6G30G 6G24G 5G17G10
  12684992.0224  -36966019.82347 -28575952.17763
  14311898.2644  -25001202.58446 -19388899.95962
  14540333.4124  -38082903.39646 -29550113.73562
  13158217.4364  -44275234.64047 -34192107.88963
  16464029.694    -2809557.408 3  -1978119.78621
  13440836.0454  -31336262.77047 -24307864.31063
 97  1  8  6 44 59.9740000  0  6G30G 6G24G 5G17G10
  12674965.9674  -37018712.73947 -28617011.60163
  14291761.7564  -25107013.60946 -19471350.11062
  14545885.8264  -38053736.76747 -29527386.49762
  13161102.0844  -44260076.22347 -34180296.15463
  16438967.1394   -2941277.58343  -2080758.85261
  13432899.7484  -31377964.48047 -24340359.12763
 97  1  8  6 45 29.9740000  0  6G30G 6G24G 5G17G10
  12665054.6784  -37070796.11747 -28657596.06163
  14271643.2724  -25212745.10546 -19553738.27162
  14551441.6314  -38024529.11246 -29504627.28862
  13164077.0144  -44244445.50947 -34168116.38563
  16413930.944    -3072846.411 4  -2183279.95821
  13425073.2094  -31419098.33247 -24372411.47563
 97  1  8  6 45 59.9740000  0  6G30G 6G24G 5G17G10
  12655262.7014  -37122258.22147 -28697696.40763
  14251539.6704  -25318395.66046 -19636063.38462
  14557010.7874  -37995258.49446 -29481819.01562
  13167148.0844  -44228314.86447 -34155547.06663
  16388924.7334   -3204251.39844  -2285673.46261
  13417352.0374  -31459658.71147 -24404016.95763
 97  1  8  6 46 29.9740000  0  6G30G 6G24G 5G17G10
  12645589.2874  -37173098.50947 -28737312.21363
  14231447.553   -25423976.071 6 -19718333.81722
  14562595.0064  -37965915.95146 -29458954.70062
  13170313.6004  -44211675.01547 -34142580.96163
  16363949.2484   -3335487.17244  -2387935.09461
  13409745.7954  -31499636.36347 -24435168.36363
 97  1  8  6 46 59.9740000  0  6G30G 6G24G 5G17G10
  12636031.7174  -37223324.46847 -28776449.33763
  14211368.3734  -25529490.03146 -19800552.49962
  14568194.7564  -37936481.11546 -29436018.46562
  13173573.2484  -44194540.95147 -34129229.74763
  16339015.412    -3466535.741 5  -2490050.87721
  13402251.3424  -31539018.91047 -24465856.06263
 97  1  8  6 47 29.9740000  0  6G30G 6G24G 5G17G10
  12626588.6154  -37272947.98747 -28815117.02963
  14191304.4284  -25634930.89946 -19882714.19862
  14573820.3894  -37906923.53146 -29412986.58562
  13176925.5764  -44176928.65247 -34115505.88963
  16314113.8114   -3597380.23545  -2592007.61461
  13394871.4514  -31577802.79747 -24496077.26863
 97  1  8  6 47 59.9740000  0  6G30G 6G24G 5G17G10
  12617259.7484  -37321967.71447 -28853314.22163
  14171257.9444  -25740273.51546 -19964799.35362
  14579473.5534  -37877229.35846 -29389848.26162
  13180364.6624  -44158845.85647 -34101415.39663
  16289253.9124   -3728027.89945  -2693811.00361
  13387604.6544  -31615973.05747 -24525820.33063
